     2.10           OBSERVATION DATA    G (GPS)             RINEX VERSION / TYPE
teqc 2003Nov3 GPS Data Processor 20031211 22:27:43UTC       PGM / RUN BY / DATE
Solaris 2.7|Ultra 2|cc SC5.0|=+-|*Sparc                     COMMENT
2 OBSERVATION DATA                                          COMMENT
ASHTORIN USGS 15 - SEP - 92 13:49                           COMMENT
                                                            COMMENT
bill Bill_Reset_no2_1942_USC&GS                             MARKER NAME
                                                            MARKER NUMBER
GDH USGS                                                    OBSERVER / AGENCY
099 ASHTECH L-XII 7A24                                      REC # / TYPE / VERS
1036 ASH700228D NONE                                        ANT # / TYPE
 -2633166.0000 -3858200.0000  4329058.0000                  APPROX POSITION XYZ
        1.3538        0.0000        0.0000                  ANTENNA: DELTA H/E/N
     1     1                                                WAVELENGTH FACT L1/2
     3    L1    L2    C1                                    # / TYPES OF OBSERV
    30.0000                                                 INTERVAL
                                                            COMMENT
Receiver type modified to reflect codeless receiver         COMMENT
Original receiver designation: ASHTECH LM-XII3              COMMENT
                                                            COMMENT
                                                            COMMENT
  1992     8    27    21    28    0.0000000     GPS         TIME OF FIRST OBS
                                                            END OF HEADER
 92  8 27 21 28  0.0000000  0  3G 3G16G17
   1549092.45118    -50685.51131  20748740.736
  -1242082.51617    127575.86834  22643272.099
  -1141038.25418    -93367.42735  20999450.723
 92  8 27 21 28 30.0000000  0  3G 3G16G17
   1521834.756 8    -71923.29621  20743551.118
  -1173009.719 7    181398.82825  22656417.998
  -1193433.654 8   -134194.97026  20989479.116
 92  8 27 21 29  0.0000000  0  5G20G 3G23G16G17
   7991288.56016    201407.48931  22923866.987
   1494751.217 8    -93027.96825  20738397.356
  22507620.15016   -222561.90932  23577955.941
  -1103687.599 7    235416.06025  22669610.245
  -1245628.227 8   -174866.02026  20979545.403
 92  8 27 21 29 30.0000000  0  5G20G 3G23G16G17
   8090882.829 6    279015.53123  22942820.796
   1468336.940 8   -113610.51026  20733369.777
  22398560.904 6   -307542.93425  23557210.423
  -1033606.397 7    290024.80425  22682944.564
  -1297133.197 8   -214999.71927  20969745.187
 92  8 27 21 30  0.0000000  0  5G20G 3G23G16G17
   8191282.962 6    357249.28525  22961927.828
   1442818.724 8   -133494.84126  20728514.188
  22290262.642 6   -391930.98525  23536596.303
   -962533.195 7    345406.48525  22696469.281
  -1347723.745 8   -254420.88727  20960117.862
 92  8 27 21 30 30.0000000  0  5G20G 3G23G16G17
   8292600.246 6    436197.63025  22981215.096
   1418312.099 8   -152590.89527  20723852.146
  22182845.625 6   -475632.35425  23516155.374
   -890361.135 7    401644.46925  22710201.395
  -1397287.999 8   -293042.34027  20950685.522
 92  8 27 21 31  0.0000000  0  5G20G 3G23G16G17
   8394875.118 6    515892.22025  23000671.746
   1394861.693 8   -170863.92627  20719388.266
  22076345.995 6   -558618.84025  23495890.933
   -817062.694 7    458760.15325  22724151.847
  -1445788.472 8   -330834.87728  20941455.392
 92  8 27 21 31 30.0000000  0  5G20G 3G23G16G17
   8498108.830 6    596333.91525  23020314.928
   1372473.668 8   -188309.12227  20715130.164
  21970769.907 6   -640885.74825  23475800.252
   -742655.881 7    516739.47425  22738309.006
  -1493221.465 8   -367795.61428  20932434.397
 92  8 27 21 32  0.0000000  0  5G20G 3G23G16G17
   8602243.954 6    677478.05725  23040134.177
   1351094.036 8   -204968.57127  20711059.492
  21866082.391 6   -722460.21725  23455885.878
   -667192.777 7    575541.90725  22752670.864
  -1539630.042 8   -403958.10628  20923600.293
 92  8 27 21 32 30.0000000  0  6G20G 3G23G16G17G26
   8707193.732 6    759256.91025  23060107.790
   1330641.384 8   -220905.68427  20707165.847
  21762181.000 6   -803422.15725  23436118.073
   -590756.608 7    635102.54425  22767214.545
  -1585091.375 8   -439382.49328  20914949.212
  11165784.29515   -170912.00831  24118633.108
 92  8 27 21 33  0.0000000  0  6G20G 3G23G16G17G26
   8812912.092 6    841634.72825  23080222.964
   1311073.451 8   -236153.40727  20703446.412
  21659030.772 6   -883798.73525  23416485.085
   -513379.655 7    695396.25525  22781944.128
  -1629639.817 8   -474095.52928  20906471.021
  11094381.100 5   -226551.75222  24105054.488
 92  8 27 21 33 30.0000000  0  6G20G 3G23G16G17G26
   8919341.562 6    924566.63325  23100471.606
   1292337.335 8   -250752.96627  20699882.540
  21556581.570 6   -963629.05425  23396978.339
   -435095.694 7    756396.73225  22796837.908
  -1673327.302 8   -508137.68228  20898158.016
  11023743.400 5   -281593.91324  24091603.370
 92  8 27 21 34  0.0000000  0  6G20G 3G23G16G17G26
   9026422.981 6   1008006.57725  23120853.056
   1274378.161 8   -264747.11327  20696459.509
  21454772.595 6  -1042960.60025  23377610.607
   -355962.148 7    818059.24225  22811893.874
  -1716216.016 8   -541557.43028  20889997.036
  10953803.184 5   -336092.58125  24078292.975
 92  8 27 21 34 30.0000000  0  6G20G 3G23G16G17G26
   9134112.657 6   1091920.44125  23141346.629
   1257156.631 8   -278166.46528  20693183.017
  21353554.097 6  -1121831.96725  23358356.316
   -276039.040 7    880336.99125  22827100.697
  -1758355.193 8   -574393.11928  20881977.408
  10884511.565 5   -390085.83325  24065105.284
 92  8 27 21 35  0.0000000  0  6G20G 3G23G16G17G26
   9242395.071 6   1176296.19725  23161951.035
   1240661.268 8   -291019.96728  20690047.128
  21252936.146 6  -1200235.33625  23339202.546
   -195341.098 6    943218.48525  22842457.386
  -1799759.484 8   -606656.17028  20874101.470
  10815856.761 5   -443582.89825  24052042.068
 92  8 27 21 35 30.0000000  0  6G20G 3G23G16G17G26
   9351184.328 6   1261066.87725  23182654.672
   1224810.616 8   -303371.11328  20687029.478
  21152832.186 6  -1278238.28825  23320153.344
   -113958.213 7   1006633.70826  22857945.773
  -1840512.009 8   -638411.35028  20866343.411
  10747757.061 5   -496647.35925  24039068.039
 92  8 27 21 36  0.0000000  0  6G20G 3G23G16G17G26
   9460440.551 6   1346201.44825  23203437.994
   1209568.738 8   -315247.87128  20684129.975
  21053215.740 6  -1355861.32225  23301198.996
    -31938.679 6   1070545.03026  22873556.866
  -1880650.242 8   -669687.87128  20858703.530
  10680183.318 5   -549302.02725  24026221.693
 92  8 27 21 36 30.0000000  0  6G20G 3G23G16G17G26
   9570111.126 6   1431658.88725  23224314.162
   1194887.985 8   -326687.40028  20681337.078
  20954039.148 6  -1433141.58725  23282329.609
     50670.452 6   1134915.74726  22889274.565
  -1920210.221 8   -700513.78428  20851177.630
  10613099.819 5   -601574.65225  24013459.348
 92  8 27 21 37  0.0000000  0  6G20G 3G23G16G17G26
   9680233.125 6   1517468.05225  23245268.605
   1180809.447 8   -337657.67928  20678655.944
  20855347.164 6  -1510044.28025  23263545.333
    133918.383 6   1199784.27326  22905118.057
  -1959149.856 8   -730856.33228  20843767.720
  10546559.928 5   -653423.68925  24000801.871
 92  8 27 21 37 30.0000000  0  6G20G 3G23G16G17G26
   9790753.735 6   1603587.90525  23266300.485
   1167284.369 8   -348196.66028  20676083.066
  20757077.881 6  -1586617.56525  23244847.307
    217739.664 6   1265099.57926  22921065.277
  -1997534.195 8   -760766.14028  20836462.887
  10480518.111 6   -704884.56425  23988227.586
 92  8 27 21 38  0.0000000  0  6G20G 3G23G16G17G26
   9901658.429 6   1690006.91825  23287408.153
   1154302.729 8   -358312.21927  20673609.988
  20659216.712 6  -1662872.88225  23226221.112
    302106.834 6   1330840.20626  22937122.491
  -2035383.727 8   -790259.28428  20829262.292
  10414960.804 6   -755967.96625  23975754.780
 92  8 27 21 38 30.0000000  0  6G20G 3G23G16G17G26
  10012914.568 6   1776699.87025  23308578.747
   1141836.826 8   -368025.90028  20671241.118
  20561729.093 6  -1738837.12325  23207670.284
    386984.771 6   1396978.83126  22953276.148
  -2072728.204 8   -819358.83728  20822153.673
  10349860.901 5   -806694.86625  23963362.260
 92  8 27 21 39  0.0000000  0  6G20G 3G23G16G17G26
  10124521.446 6   1863666.08225  23329816.494
   1129889.404 8   -377335.55928  20668966.712
  20464625.500 6  -1814502.09125  23189194.255
    472369.879 6   1463512.66426  22969520.672
  -2109586.840 8   -848079.80229  20815138.589
  10285213.198 5   -857069.48125  23951062.345
 92  8 27 21 39 30.0000000  0  6G20G 3G23G16G17G26
  10236441.029 6   1950875.98725  23351112.851
   1118427.578 8   -386266.83328  20666786.951
  20367856.602 6  -1889906.27925  23170778.934
    558208.578 6   1530399.96926  22985858.102
  -2145995.056 8   -876449.80828  20808212.095
  10220982.006 5   -907119.50025  23938837.737
 92  8 27 21 40  0.0000000  0  6G20G 3G23G16G17G26
  10348636.090 6   2038300.50825  23372464.579
   1107418.103 8   -394845.61628  20664689.933
  20271398.161 6  -1965068.57025  23152423.601
    644479.365 6   1597623.95326  23002273.867
  -2181967.884 8   -904480.55929  20801369.362
  10157133.113 5   -956871.72025  23926682.352
 92  8 27 21 40 30.0000000  0  6G20G 3G23G16G17G26
  10461075.435 6   2125915.42025  23393865.594
   1096834.100 8   -403092.86628  20662674.938
  20175227.898 6  -2040006.27625  23134122.320
    731159.828 6   1665167.15426  23018769.497
  -2217532.111 8   -932192.88329  20794602.866
  10093640.502 5  -1006346.24725  23914606.832
 92  8 27 21 41  0.0000000  0  6G20G 3G23G16G17G26
  10573771.770 6   2213730.55125  23415304.472
   1086692.540 8   -410995.37328  20660750.720
  20079362.461 6  -2114706.50425  23115873.504
    818267.865 6   1733043.53725  23035344.123
  -2252667.361 8   -959570.97129  20787912.038
  10030522.442 6  -1055528.96025  23902602.333
 92  8 27 21 41 30.0000000  0  6G20G 3G23G16G17G26
  10686714.085 6   2301737.37025  23436799.981
   1076986.762 8   -418558.28328  20658900.791
  19983799.711 6  -2189170.84725  23097694.719
    905800.877 7   1801251.06825  23052003.890
  -2287370.020 8   -986611.97529  20781309.409
   9967778.955 5  -1104419.78325  23890652.126
 92  8 27 21 42  0.0000000  0  6G20G 3G23G16G17G26
  10799891.795 6   2389927.61825  23458342.917
   1067710.485 8   -425786.52728  20657134.264
  19888548.429 6  -2263392.46725  23079569.716
    993768.393 6   1869797.17725  23068738.575
  -2321652.740 8  -1013325.73729  20774787.244
   9905400.441 5  -1153026.24325  23878790.477
 92  8 27 21 42 30.0000000  0  6G20G 3G23G16G17G26
  10913277.310 6   2478279.78025  23479911.336
   1058840.532 8   -432698.16628  20655448.021
  19793589.157 6  -2337386.55825  23061496.188
   1082139.838 7   1938658.02925  23085556.931
  -2355547.371 8  -1039737.09929  20768337.779
   9843369.635 5  -1201361.77225  23866976.226
 92  8 27 21 43  0.0000000  0  6G20G 3G23G16G17G26
  11026845.951 6   2566774.62425  23501519.716
   1050356.439 8   -439309.13828  20653831.870
  19698914.765 6  -2411158.64925  23043481.690
   1170897.050 7   2007819.52325  23102447.628
  -2389069.311 8  -1065858.06329  20761956.337
   9781675.400 6  -1249435.00425  23855241.900
 92  8 27 21 43 30.0000000  0  6G20G 3G23G16G17G26
  11140614.776 6   2655425.49925  23523172.976
   1042279.871 8   -445602.54428  20652295.673
  19604555.951 6  -2484684.85125  23025523.941
   1260051.630 6   2077290.62225  23119407.667
  -2422201.542 8  -1091675.34329  20755652.061
   9720337.489 6  -1297230.66725  23843570.949
 92  8 27 21 44  0.0000000  0  6G20G 3G23G16G17G26
  11254509.167 6   2744174.20025  23544842.425
   1034539.979 8   -451633.60928  20650821.923
  19510434.995 6  -2558025.68125  23007617.698
   1349519.343 7   2147005.68125  23136439.536
  -2455007.417 8  -1117238.32129  20749407.894
   9659288.172 6  -1344801.40325  23831951.413
 92  8 27 21 44 30.0000000  0  6G20G 3G23G16G17G26
  11368584.315 6   2833063.70825  23566560.170
   1027196.569 8   -457355.70528  20649422.732
  19416613.155 6  -2631133.46025  22989766.706
   1439343.719 7   2216998.67325  23153533.552
  -2487420.484 8  -1142495.19629  20743240.413
   9598599.685 6  -1392090.98925  23820405.267
 92  8 27 21 45  0.0000000  0  6G20G 3G23G16G17G26
  11482783.565 6   2922049.94925  23588284.780
   1020197.231 8   -462809.73128  20648097.170
  19323028.087 6  -2704056.75225  22971953.518
   1529469.292 7   2287226.36625  23170683.719
  -2519493.717 8  -1167487.30429  20737137.628
   9538213.754 6  -1439144.81325  23808912.333
 92  8 27 21 45 30.0000000  0  6G20G 3G23G16G17G26
  11597120.216 6   3011143.22825  23610043.387
   1013559.659 8   -467981.85728  20646831.926
  19229678.839 6  -2776796.27425  22954191.354
   1619912.869 7   2357701.88725  23187892.316
  -2551212.467 8  -1192203.17329  20731100.977
   9478145.519 5  -1485951.10625  23797482.925
 92  8 27 21 46  0.0000000  0  6G20G 3G23G16G17G26
  11711559.533 6   3100316.52725  23631822.560
   1007253.240 8   -472895.92228  20645629.128
  19136520.490 6  -2849387.05925  22936462.917
   1710652.875 7   2428408.35425  23205158.503
  -2582608.936 8  -1216667.91829  20725127.373
   9418367.160 5  -1532531.50325  23786102.144
 92  8 27 21 46 30.0000000  0  6G20G 3G23G16G17G26
  11826094.477 6   3189564.35325  23653618.311
   1001275.914 8   -477553.56627  20644491.686
  19043549.981 6  -2921831.48825  22918770.006
   1801688.728 7   2499345.34625  23222484.379
  -2613701.410 8  -1240895.77629  20719213.037
   9358871.349 5  -1578891.88725  23774783.060
 92  8 27 21 47  0.0000000  0  6G20G 3G23G16G17G26
  11940713.509 6   3278877.66925  23675429.111
    995620.055 8   -481960.70028  20643414.382
  18950763.145 6  -2994132.75825  22901113.789
   1893001.225 7   2570497.94925  23239862.868
  -2644504.975 8  -1264898.51229  20713350.146
   9299645.483 5  -1625041.83225  23763511.493
 92  8 27 21 47 30.0000000  0  6G20G 3G23G16G17G26
  12055408.072 6   3368249.88325  23697251.304
    990281.003 8   -486120.98528  20642400.244
  18858164.922 6  -3066287.06425  22883491.149
   1984575.941 7   2641854.84825  23257289.474
  -2675037.468 8  -1288690.02829  20707537.950
   9240697.897 5  -1670974.90125  23752286.964
 92  8 27 21 48  0.0000000  0  6G20G 3G23G16G17G26
  12170172.807 6   3457676.72825  23719092.804
    985257.944 8   -490035.03628  20641445.675
  18765771.953 6  -3138281.43325  22865910.989
   2076388.535 7   2713397.11025  23274759.849
  -2705305.430 8  -1312275.42629  20701780.016
   9182029.468 5  -1716690.45025  23741126.560
 92  8 27 21 48 30.0000000  0  6G20G 3G23G16G17G26
  12284996.075 6   3547149.18625  23740941.408
    980543.216 8   -493708.83928  20640547.017
  18673596.823 6  -3210106.05025  22848374.390
   2168407.607 6   2785100.23025  23292269.617
  -2735310.110 8  -1335655.65829  20696070.409
   9123649.080 5  -1762181.59825  23730021.078
 92  8 27 21 49  0.0000000  0  6G20G 3G23G16G17G26
  12399856.343 6   3636650.48925  23762795.859
    976119.760 8   -497155.65428  20639705.889
  18581634.925 6  -3281764.52825  22830869.808
   2260616.881 6   2856951.58125  23309814.491
  -2765050.126 8  -1358829.68229  20690409.278
   9065544.307 6  -1807457.91225  23718977.114
 92  8 27 21 49 30.0000000  0  6G20G 3G23G16G17G26
  12514685.101 6   3726127.23125  23784653.997
    971923.676 8   -500425.30628  20638906.223
  18489813.174 6  -3353313.77425  22813395.445
   2352958.027 6   2928905.70625  23327385.747
  -2794581.808 8  -1381841.33329  20684790.957
   9007643.129 6  -1852575.63025  23707939.385
 92  8 27 21 50  0.0000000  0  6G20G 3G23G16G17G26
  12629530.277 6   3815616.76325  23806502.601
    968006.644 8   -503477.49628  20638163.397
  18398168.367 6  -3424725.19025  22795956.638
   2445482.752 6   3001002.85625  23344994.507
  -2823834.480 8  -1404635.58329  20679223.961
   8949981.462 6  -1897506.71225  23696973.007
 92  8 27 21 50 30.0000000  0  6G20G 3G23G16G17G26
  12744449.216 6   3905163.76825  23828370.812
    964430.537 8   -506264.08028  20637482.508
  18306747.916 6  -3495961.73825  22778560.551
   2538271.334 6   3073305.60925  23362650.094
  -2852752.012 8  -1427168.70029  20673719.772
   8892613.022 6  -1942209.29225  23686061.161
 92  8 27 21 51  0.0000000  0  6G20G 3G23G16G17G26
  12859367.901 6   3994710.55325  23850242.081
    961125.275 8   -508839.58028  20636851.205
  18215475.101 6  -3567083.26225  22761192.434
   2631259.447 6   3145763.84325  23380346.543
  -2881423.346 8  -1449509.96129  20668266.067
   8835442.894 6  -1986757.28125  23675172.159
 92  8 27 21 51 30.0000000  0  6G20G 3G23G16G17G26
  12974271.064 6   4084245.22825  23872105.945
    958080.262 8   -511212.31128  20636271.377
  18124323.107 6  -3638110.64925  22743843.235
   2724430.316 6   3218364.54425  23398074.440
  -2909881.654 8  -1471685.22529  20662847.169
   8778472.125 6  -2031149.94125  23664338.020
 92  8 27 21 52  0.0000000  0  6G20G 3G23G16G17G26
  13089142.851 6   4173755.48925  23893970.349
    955283.531 8   -513391.54828  20635738.196
  18033284.812 6  -3709049.42425  22726520.147
   2817771.223 6   3291097.65225  23415838.792
  -2938150.321 8  -1493712.70429  20657471.680
   8721711.876 6  -2075378.58225  23653531.011
 92  8 27 21 52 30.0000000  0  6G20G 3G23G16G17G26
  13203979.423 6   4263238.27025  23915816.195
    952735.544 8   -515376.99328  20635255.800
  17942379.860 6  -3779884.27125  22709224.611
   2911285.152 6   3363965.62325  23433636.241
  -2966240.152 8  -1515600.84329  20652124.552
   8665184.079 5  -2119426.10725  23642783.272
 92  8 27 21 53  0.0000000  0  6G20G 3G23G16G17G26
  13318782.717 6   4352695.13325  23937667.198
    950442.748 8   -517163.57028  20634820.381
  17851621.363 6  -3850605.02025  22691950.150
   3004970.466 6   3436967.13225  23451456.714
  -2994132.836 8  -1537335.35129  20646818.345
   8608915.557 6  -2163271.59625  23632074.835
 92  8 27 21 53 30.0000000  0  6G20G 3G23G16G17G26
  13433554.251 6   4442127.25125  23959506.719
    948410.750 8   -518746.97428  20634429.782
  17760996.373 6  -3921221.76725  22674707.167
   3098833.586 6   3510107.15425  23469319.908
  -3021815.573 8  -1558906.30229  20641550.032
   8552932.763 6  -2206894.45025  23621421.110
 92  8 27 21 54  0.0000000  0  6G20G 3G23G16G17G26
  13548334.052 6   4531565.81425  23981344.321
    946683.533 8   -520092.82227  20634106.665
  17670564.669 6  -3991687.86425  22657498.930
   3192907.774 6   3583411.69925  23487222.554
  -3049243.403 8  -1580278.57729  20636331.485
   8497257.550 6  -2250277.58425  23610820.209
 92  8 27 21 54 30.0000000  0  6G20G 3G23G16G17G26
  13662988.953 6   4620907.01625  24003166.484
    945132.419 8   -521301.47727  20633808.342
  17580203.174 6  -4062099.27325  22640302.415
   3287050.593 6   3656769.71925  23505141.329
  -3076533.819 8  -1601543.79329  20631135.962
   8441744.364 6  -2293534.48225  23600255.883
 92  8 27 21 55  0.0000000  0  6G20G 3G23G16G17G26
  13777591.307 6   4710207.31025  24024974.316
    943833.924 8   -522313.27927  20633558.944
  17489980.594 7  -4132402.42225  22623133.391
   3381322.804 6   3730228.55425  23523076.923
  -3103601.836 8  -1622635.70029  20625986.487
   8386460.533 6  -2336612.70925  23589743.780
 92  8 27 21 55 30.0000000  0  6G20G 3G23G16G17G26
  13892165.615 6   4799485.73225  24046774.774
    942816.670 8   -523105.93727  20633367.497
  17399932.941 6  -4202569.28326  22605997.044
   3475733.498 6   3803795.29625  23541046.752
  -3130428.807 8  -1643539.78429  20620878.593
   8331417.574 6  -2379503.16025  23579266.094
 92  8 27 21 56  0.0000000  0  6G20G 3G23G16G17G26
  14006713.366 6   4888743.45625  24068571.784
    942086.434 8   -523674.94327  20633231.931
  17310096.187 6  -4272571.79826  22588898.141
   3570278.420 6   3877466.65025  23559034.660
  -3156994.902 8  -1664240.60429  20615826.670
   8276619.939 6  -2422202.46425  23568840.721
 92  8 27 21 56 30.0000000  0  6G20G 3G23G16G17G26
  14121222.521 6   4977971.12225  24090366.246
    941635.132 8   -524026.59527  20633145.561
  17220453.253 7  -4342423.27026  22571844.687
   3664952.583 6   3951238.69125  23577045.021
  -3183297.846 8  -1684736.36029  20610817.798
   8222089.125 6  -2464693.84925  23558463.465
 92  8 27 21 57  0.0000000  0  6G20G 3G23G16G17G26
  14235749.158 6   5067212.39625  24112160.619
    941522.957 8   -524114.00027  20633120.258
  17131064.247 7  -4412076.89226  22554837.161
   3759815.514 6   4025157.81225  23595102.031
  -3209301.874 8  -1704999.20529  20605871.072
   8167887.511 6  -2506928.71625  23548145.448
 92  8 27 21 57 30.0000000  0  6G20G 3G23G16G17G26
  14350325.411 5   5156492.34425  24133962.096
    941786.091 8   -523908.97227  20633169.844
  17041970.872 6  -4481500.14926  22537876.583
   3854907.768 6   4099255.63625  23613199.002
  -3234988.739 8  -1725014.89729  20600984.755
   8114058.770 6  -2548873.05425  23537901.780
 92  8 27 21 58  0.0000000  0  6G20G 3G23G16G17G26
  14464960.699 6   5245818.26025  24155777.993
    942438.207 8   -523400.81427  20633295.487
  16953178.837 7  -4550688.60026  22520987.115
   3950250.050 6   4173548.27825  23631343.791
  -3260349.126 8  -1744776.20429  20596158.696
   8060627.464 6  -2590507.68625  23527737.196
 92  8 27 21 58 30.0000000  0  6G20G 3G23G16G17G26
  14579655.118 5   5335190.27225  24177604.293
    943483.684 8   -522586.14227  20633494.099
  16864683.618 6  -4619645.76926  22504142.976
   4045839.947 6   4248033.88625  23649530.940
  -3285395.182 8  -1764292.56829  20591393.555
   8007584.285 6  -2631839.95525  23517639.437
 92  8 27 21 59  0.0000000  0  6G20G 3G23G16G17G26
  14694408.498 6   5424608.16725  24199447.111
    944926.402 8   -521461.91227  20633766.820
  16776493.641 7  -4688365.07326  22487358.825
   4141669.612 6   4322706.39425  23667772.082
  -3310142.950 8  -1783576.49929  20586681.027
   7954911.219 6  -2672883.75125  23507615.966
 92  8 27 21 59 30.0000000  0  6G20G 3G23G16G17G26
  14809210.383 5   5514063.89425  24221286.422
    946760.003 8   -520033.13727  20634118.837
  16688588.714 7  -4756862.27626  22470632.175
   4237736.638 6   4397563.73125  23686049.829
  -3334582.655 8  -1802620.38629  20582031.906
   7902612.108 6  -2713636.17925  23497664.146
 92  8 27 22  0  0.0000000  0  6G20G 3G23G16G17G26
  14924053.342 5   5603551.63425  24243138.205
    948981.238 8   -518302.27727  20634542.144
  16600954.397 7  -4825148.62326  22453958.558
   4334036.990 6   4472602.95625  23704371.285
  -3358707.104 8  -1821418.64229  20577443.193
   7850665.640 6  -2754113.82525  23487785.654
 92  8 27 22  0 30.0000000  0  6G20G 3G23G16G17G26
  15038938.273 5   5693072.04625  24265006.985
    951595.066 8   -516265.52427  20635038.840
  16513592.211 7  -4893222.88426  22437329.370
   4430580.830 6   4547831.93625  23722748.593
  -3382511.260 8  -1839967.28329  20572909.971
   7799078.851 6  -2794311.23525  23477960.016
 92  8 27 22  1  0.0000000  0  6G20G 3G23G16G17G26
  15153858.687 5   5782620.13125  24286879.213
    954599.060 8   -513924.71927  20635612.852
  16426495.897 7  -4961090.00726  22420758.402
   4527376.863 6   4623257.39425  23741170.720
  -3405987.661 8  -1858260.54929  20568443.003
   7747876.436 6  -2834209.07825  23468225.276
 92  8 27 22  1 30.0000000  0  6G20G 3G23G16G17G26
  15268798.465 5   5872183.27225  24308750.332
    957981.112 8   -511289.35627  20636255.188
  16339653.427 7  -5028759.31326  22404234.471
   4624414.943 6   4698871.46825  23759629.451
  -3429120.567 8  -1876286.14929  20564040.281
   7697051.626 6  -2873812.75625  23458545.337
 92  8 27 22  2  0.0000000  0  6G20G 3G23G16G17G26
  15383746.153 6   5961752.58325  24330626.128
    961733.677 8   -508365.25727  20636965.096
  16253081.281 6  -5096218.00026  22387750.743
   4721669.192 6   4774654.00625  23778144.753
  -3451912.941 8  -1894046.40829  20559702.974
   7646597.275 6  -2913127.75125  23448948.831
 92  8 27 22  2 30.0000000  0  6G20G 3G23G16G17G26
  15498701.697 5   6051327.97425  24352495.508
    965861.360 8   -505148.86327  20637753.221
  16166809.549 7  -5163442.58426  22371343.491
   4819129.355 6   4850596.95025  23796684.218
  -3474358.206 8  -1911536.17929  20555432.310
   7596542.409 6  -2952131.43325  23439423.944
 92  8 27 22  3  0.0000000  0  6G20G 3G23G16G17G26
  15613665.258 6   6140909.65425  24374380.957
    970367.809 8   -501637.31027  20638611.497
  16080848.150 7  -5230425.33926  22354983.247
   4916782.599 6   4926690.42025  23815268.293
  -3496452.052 8  -1928752.11329  20551227.122
   7546881.689 6  -2990827.97825  23429976.825
 92  8 27 22  3 30.0000000  0  6G20G 3G23G16G17G26
  15728632.516 6   6230494.17225  24396256.063
    975253.010 8   -497830.66127  20639539.624
  15995201.270 7  -5297163.02326  22338683.711
   5014614.389 5   5002922.91825  23833886.304
  -3518207.858 8  -1945704.64529  20547087.018
   7497598.779 6  -3029230.13325  23420594.190
 92  8 27 22  4  0.0000000  0  6G20G 3G23G16G17G26
  15843601.295 6   6320079.91625  24418137.915
    980518.532 8   -493727.62727  20640541.021
  15909871.944 7  -5363653.28026  22322449.620
   5112621.154 5   5079291.83024  23852532.046
  -3539656.410 8  -1962417.76429  20543006.572
   7448710.669 6  -3067324.63225  23411293.489
 92  8 27 22  4 30.0000000  0  6G20G 3G23G16G17G26
  15958568.152 6   6409664.18125  24440011.462
    986164.794 8   -489327.94527  20641620.843
  15824845.893 7  -5429907.20726  22306268.592
   5210811.439 5   5155803.76724  23871219.459
  -3560814.785 8  -1978904.77329  20538980.690
   7400207.431 6  -3105119.22225  23402064.108
 92  8 27 22  5  0.0000000  0  6G20G 3G23G16G17G26
  16073537.165 6   6499250.06625  24461887.048
    992200.459 8   -484624.83627  20642764.162
  15740115.945 7  -5495930.40626  22290145.723
   5309194.817 5   5232466.15024  23889944.196
  -3581688.724 8  -1995170.13329  20535008.230
   7352079.899 6  -3142621.15025  23392900.112
 92  8 27 22  5 30.0000000  0  6G20G 3G23G16G17G26
  16188508.530 6   6588837.80025  24483766.981
    998629.292 8   -479615.35027  20643990.553
  15655685.458 7  -5561720.26626  22274076.218
   5407773.170 5   5309280.49723  23908702.690
  -3602285.536 8  -2011219.57329  20531087.964
   7304344.253 6  -3179817.65925  23383819.069
 92  8 27 22  6  0.0000000  0  6G20G 3G23G16G17G26
  16303482.099 6   6678427.19825  24505643.586
   1005454.880 8   -474296.69027  20645284.517
  15571555.135 7  -5627276.23426  22258062.264
   5506548.825 5   5386248.46023  23927500.516
  -3622593.100 8  -2027043.60629  20527225.647
   7257005.570 6  -3216704.79025  23374808.537
 92  8 27 22  6 30.0000000  0  6G20G 3G23G16G17G26
  16418451.858 6   6768013.68425  24527523.579
   1012675.627 8   -468670.12027  20646659.545
  15487720.391 7  -5692601.87626  22242113.066
   5605523.376 5   5463371.54023  23946335.427
  -3642591.203 8  -2042626.49929  20523419.782
   7210053.351 6  -3253290.79725  23365869.265
 92  8 27 22  7  0.0000000  0  6G20G 3G23G16G17G26
  16533409.045 6   6857590.31625  24549406.390
   1020286.409 8   -462739.62527  20648112.219
  15404175.807 7  -5757701.40826  22226214.652
   5704682.485 5   5540638.39323  23965193.782
  -3662276.185 8  -2057965.40429  20519670.098
   7163503.933 6  -3289562.98225  23357013.396
 92  8 27 22  7 30.0000000  0  6G20G 3G23G16G17G26
  16648344.929 6   6947150.45525  24571263.988
   1028282.802 8   -456508.65527  20649633.456
  15320921.414 7  -5822574.84126  22210375.027
   5804023.145 5   5618046.63323  23984102.172
  -3681634.847 8  -2073050.03729  20515987.268
   7117367.907 6  -3325513.01825  23348228.638
 92  8 27 22  8  0.0000000  0  6G20G 3G23G16G17G26
  16763258.427 6   7036693.08825  24593140.383
   1036667.200 8   -449975.35027  20651226.763
  15237967.556 7  -5887214.07326  22194585.528
   5903548.768 5   5695599.02522  24003056.460
  -3700650.371 8  -2087867.29129  20512370.811
   7071645.678 6  -3361140.58625  23339538.734
 92  8 27 22  8 30.0000000  0  6G20G 3G23G16G17G26
  16878158.967 6   7126225.60425  24614998.461
   1045452.955 8   -443129.26927  20652897.237
  15155338.698 7  -5951600.04626  22178861.983
   6003259.671 5   5773295.91622  24022011.527
  -3719323.047 8  -2102417.39529  20508816.202
   7026351.987 6  -3396434.26425  23330919.700
 92  8 27 22  9  0.0000000  0  6G20G 3G23G16G17G26
  16993042.690 6   7215745.06125  24636862.325
   1054640.667 8   -435970.01027  20654645.446
  15073036.735 7  -6015731.30826  22163202.444
   6103139.542 5   5851124.26022  24041021.907
  -3737678.916 8  -2116720.62729  20505323.500
   6981486.008 6  -3431394.65825  23322376.545
 92  8 27 22  9 30.0000000  0  6G20G 3G23G16G17G26
  17107891.295 6   7305237.13125  24658714.437
   1064215.626 8   -428508.98927  20656469.654
  14991052.182 7  -6079615.24026  22147602.234
   6203182.342 5   5929079.77822  24060062.895
  -3755738.838 8  -2130793.28329  20501888.208
   6937016.785 6  -3466045.91525  23313916.192
 92  8 27 22 10  0.0000000  0  5G20G 3G23G17G26
  17222702.027 5   7394699.68425  24680573.175
   1074178.999 8   -420745.29727  20658367.790
  14909367.506 7  -6143265.48526  22132053.228
  -3773519.681 8  -2144648.44129  20498505.320
   6892934.516 6  -3500395.60525  23305531.236
 92  8 27 22 10 30.0000000  0  5G20G 3G23G17G26
  17337479.109 5   7484135.97425  24702409.518
   1084538.782 8   -412672.72027  20660334.938
  14827982.992 7  -6206681.88726  22116567.419
  -3791017.083 8  -2158282.76229  20495176.425
   6849249.474 6  -3534435.78425  23297213.435
 92  8 27 22 11  0.0000000  0  5G20G 3G23G17G26
  17452224.760 5   7573547.80525  24724242.503
   1095300.974 8   -404286.57827  20662383.749
  14746890.931 7  -6269870.37826  22101137.641
  -3808199.518 8  -2171671.63029  20491905.299
   6805970.154 6  -3568159.80025  23288977.057
 92  8 27 22 11 30.0000000  0  5G20G 3G23G17G26
  17566930.056 5   7662928.18525  24746074.559
   1106460.375 8   -395590.91327  20664509.308
  14666086.302 7  -6332834.89726  22085756.669
  -3825038.393 8  -2184792.80329  20488702.706
   6763091.175 6  -3601571.87525  23280810.710
 92  8 27 22 12  0.0000000  0  5G20G 3G23G17G26
  17681586.711 6   7752270.66925  24767895.343
   1118012.490 8   -386589.24827  20666707.146
  14585566.118 7  -6395577.75626  22070438.144
  -3841540.184 8  -2197651.31029  20485558.033
   6720623.208 6  -3634663.71625  23272730.104
 92  8 27 22 12 30.0000000  0  5G20G 3G23G17G26
  17796199.089 5   7841578.66125  24789704.794
   1129965.417 8   -377275.23827  20668982.721
  14505360.229 7  -6458075.71426  22055174.900
  -3857698.037 8  -2210241.82029  20482484.441
   6678589.794 6  -3667416.92225  23264734.429
 92  8 27 22 13  0.0000000  0  5G20G 3G23G17G26
  17910765.150 5   7930850.54725  24811502.914
   1142321.008 8   -367647.48327  20671331.985
  14425477.399 7  -6520321.94726  22039972.814
  -3873525.242 8  -2222574.66129  20479474.195
   6636995.555 6  -3699827.90525  23256824.166
 92  8 27 22 13 30.0000000  0  5G20G 3G23G17G26
  18025282.375 6   8020084.36825  24833301.093
   1155080.423 8   -357705.06527  20673761.862
  14345923.933 7  -6582311.53226  22024835.873
  -3889058.995 8  -2234678.85729  20476518.541
   6595845.706 6  -3731892.62625  23248991.248
 92  8 27 22 14  0.0000000  0  5G20G 3G23G17G26
  18139744.872 5   8109275.53725  24855079.846
   1168241.815 8   -347449.39827  20676263.690
  14266697.156 7  -6644046.55527  22009759.311
  -3904333.300 8  -2246580.87529  20473611.754
   6555132.963 6  -3763616.75125  23241247.909
 92  8 27 22 14 30.0000000  0  5G20G 3G23G17G26
  18254153.391 6   8198424.67525  24876855.631
   1181809.379 8   -336877.25227  20678844.214
  14187806.163 7  -6705519.93326  21994746.814
  -3919341.277 8  -2258275.37729  20470753.083
   6514849.173 6  -3795006.58525  23233583.385
 92  8 27 22 15  0.0000000  0  5G20G 3G23G17G26
  18368511.294 6   8287534.41025  24898613.519
   1195790.346 8   -325982.98527  20681506.701
  14109251.514 7  -6766731.23026  21979799.102
  -3934059.299 8  -2269743.93129  20467954.850
   6474984.787 6  -3826069.59225  23225989.612
 92  8 27 22 15 30.0000000  0  5G20G 3G23G17G26
  18482816.709 5   8376603.23225  24920353.448
   1210186.754 8   -314764.99627  20684245.275
  14031029.602 7  -6827683.24226  21964911.498
  -3948467.357 8  -2280970.95629  20465210.669
   6435538.283 6  -3856807.01925  23218484.787
 92  8 27 22 16  0.0000000  0  5G20G 3G23G17G26
  18597067.847 5   8465629.75425  24942104.111
   1225000.461 8   -303221.81627  20687069.590
  13953154.590 7  -6888364.95826  21950093.776
  -3962533.072 8  -2291931.21629  20462534.752
   6396522.705 6  -3887208.64025  23211062.586
 92  8 27 22 16 30.0000000  0  4G 3G23G17G26
   1240237.602 7   -291348.70227  20689960.998
  13875636.878 7  -6948768.25027  21935340.600
  -3976234.172 8  -2302607.36829  20459928.896
   6357964.618 6  -3917253.78025  23203724.626
 92  8 27 22 17  0.0000000  0  4G 3G23G17G26
   1255898.488 8   -279145.40327  20692946.331
  13798475.059 7  -7008894.22727  21920659.823
  -3989576.124 8  -2313003.65729  20457391.123
   6319875.836 6  -3946933.24625  23196480.261
 92  8 27 22 17 30.0000000  0  4G 3G23G17G26
   1271979.700 8   -266614.57127  20696002.566
  13721672.341 7  -7068740.37427  21906043.891
  -4002578.102 8  -2323135.03429  20454915.017
   6282270.359 6  -3976236.09825  23189318.339
 92  8 27 22 18  0.0000000  0  4G 3G23G17G26
   1288481.737 8   -253755.81627  20699145.110
  13645235.033 7  -7128301.80827  21891496.043
  -4015257.120 8  -2333014.75829  20452500.698
   6245156.630 6  -4005155.79125  23182256.698
 92  8 27 22 18 30.0000000  0  4G 3G23G17G26
   1305405.958 8   -240568.09127  20702365.451
  13569158.269 7  -7187582.28227  21877019.245
  -4027631.947 8  -2342657.45029  20450145.439
   6208519.878 6  -4033703.81325  23175286.583
 92  8 27 22 19  0.0000000  0  4G 3G23G17G26
   1322749.812 8   -227053.38027  20705664.367
  13493449.125 7  -7246576.33327  21862610.919
  -4039708.229 8  -2352067.50629  20447848.639
   6172343.120 6  -4061893.37925  23168402.898
 92  8 27 22 19 30.0000000  0  4G 3G23G17G26
   1340511.066 8   -213213.42927  20709047.944
  13418106.507 7  -7305284.76727  21848277.962
  -4051481.416 8  -2361241.38529  20445611.618
   6136615.296 6  -4089733.15025  23161604.745
 92  8 27 22 20  0.0000000  0  4G 3G23G17G26
   1358689.534 8   -199048.38527  20712504.162
  13343126.526 7  -7363710.61327  21834010.299
  -4062954.317 8  -2370181.26529  20443426.760
   6101326.372 6  -4117230.93325  23154888.524
 92  8 27 22 20 30.0000000  0  4G 3G23G17G26
   1377291.003 8   -184553.70127  20716044.291
  13268511.123 7  -7421852.38727  21819807.512
  -4074110.905 8  -2378874.68329  20441301.232
   6066474.100 6  -4144388.45825  23148255.796
 92  8 27 22 21  0.0000000  0  4G 3G23G17G26
   1396316.633 8   -169728.53027  20719666.114
  13194246.686 7  -7479720.66727  21805675.925
  -4084946.059 8  -2387317.62029  20439241.088
   6032072.853 6  -4171194.55925  23141710.307
 92  8 27 22 21 30.0000000  0  4G 3G23G17G26
   1415768.918 8   -154570.88627  20723367.561
  13120306.564 7  -7537336.26127  21791602.198
  -4095477.472 8  -2395523.88829  20437234.757
   5998132.928 6  -4197641.16025  23135253.287
 92  8 27 22 22  0.0000000  0  5G 3G21G23G17G26
   1435649.083 8   -139079.82527  20727149.893
   9761297.44815   -221046.29231  24947615.105
  13046681.515 7  -7594706.34927  21777598.952
  -4105714.041 8  -2403500.40629  20435290.573
   5964661.346 6  -4223722.83525  23128883.597
 92  8 27 22 22 30.0000000  0  5G 3G21G23G17G26
   1455963.680 8   -123250.26627  20731015.866
   9652774.862 5   -305607.73121  24926946.814
  12973380.865 7  -7651823.66027  21763647.600
  -4115650.365 8  -2411242.97929  20433398.223
   5931667.993 6  -4249431.85525  23122603.665
 92  8 27 22 23  0.0000000  0  5G 3G21G23G17G26
   1476711.988 8   -107082.74527  20734966.082
   9544329.181 5   -390110.37822  24906318.874
  12900406.087 7  -7708687.03227  21749760.374
  -4125297.923 8  -2418760.52029  20431561.754
   5899155.215 6  -4274766.43825  23116411.751
 92  8 27 22 23 30.0000000  0  5G 3G21G23G17G26
   1497890.131 8    -90580.27927  20738995.622
   9435954.128 5   -474558.13123  24885710.901
  12827778.707 7  -7765279.70527  21735940.002
  -4134658.167 8  -2426054.19829  20429777.539
   5867108.008 6  -4299738.18725  23110316.940
 92  8 27 22 24  0.0000000  0  5G 3G21G23G17G26
   1519494.711 8    -73745.53527  20743108.145
   9327652.941 5   -558948.27724  24865083.261
  12755521.252 7  -7821584.14127  21722192.779
  -4143707.304 8  -2433105.44729  20428057.540
   5835520.691 6  -4324351.59625  23104309.040
 92  8 27 22 24 30.0000000  0  5G 3G21G23G17G26
   1541528.661 8    -56576.20927  20747299.993
   9219438.150 5   -643271.06724  24844479.155
  12683654.861 7  -7877583.85727  21708514.808
  -4152437.344 8  -2439908.06429  20426397.319
   5804398.953 6  -4348602.25325  23098384.091
 92  8 27 22 25  0.0000000  0  5G 3G21G23G17G26
   1563995.112 8    -39069.90227  20751573.774
   9111294.834 5   -727538.25724  24823903.589
  12612178.337 7  -7933279.75227  21694911.905
  -4160832.271 8  -2446449.53229  20424799.635
   5773756.831 6  -4372479.17925  23092558.734
 92  8 27 22 25 30.0000000  0  5G 3G21G23G17G26
   1586877.672 8    -21239.32127  20755932.607
   9003180.370 5   -811782.98325  24803346.580
  12541081.061 7  -7988680.15227  21681383.650
  -4168896.698 8  -2452733.48229  20423266.437
   5743578.185 6  -4395994.92925  23086809.404
 92  8 27 22 26  0.0000000  0  5G 3G21G23G17G26
   1610174.373 8     -3086.03426  20760361.201
   8895089.590 5   -896009.21425  24782779.109
  12470346.975 7  -8043797.54427  21667923.838
  -4176639.464 8  -2458766.77929  20421787.681
   5713871.730 6  -4419142.76425  23081162.424
 92  8 27 22 26 30.0000000  0  5G 3G21G23G17G26
   1633891.318 8     15394.70726  20764874.576
   8787032.329 5   -980209.35425  24762211.278
  12399974.799 8  -8098632.93027  21654531.929
  -4184065.070 8  -2464552.96229  20420381.384
   5684648.001 6  -4441914.40225  23075594.558
 92  8 27 22 27  0.0000000  0  5G 3G21G23G17G26
   1658035.897 8     34208.65526  20769466.528
   8679019.816 5  -1064374.62325  24741649.083
  12329953.073 8  -8153195.24127  21641208.793
  -4191165.686 8  -2470085.88029  20419027.761
   5655905.228 6  -4464311.29425  23070128.472
 92  8 27 22 27 30.0000000  0  5G 3G21G23G17G26
   1682607.707 8     53355.52326  20774145.179
   8571068.520 5  -1148492.21725  24721114.259
  12260294.071 8  -8207474.87327  21627950.561
  -4197957.605 8  -2475378.27529  20417732.658
   5627630.860 6  -4486343.18625  23064746.868
 92  8 27 22 28  0.0000000  0  5G 3G21G23G17G26
   1707611.248 7     72838.81026  20778899.527
   8463208.587 5  -1232538.56625  24700582.672
  12190988.008 7  -8261479.51827  21614757.565
  -4204449.019 8  -2480436.49629  20416497.663
   5599834.996 6  -4508002.24425  23059454.542
 92  8 27 22 28 30.0000000  0  5G 3G21G23G17G26
   1733046.442 8     92658.43226  20783745.582
   8355449.093 5  -1316506.67725  24680078.607
  12122027.765 7  -8315214.70227  21601638.437
  -4210643.704 8  -2485263.50829  20415316.361
   5572505.598 6  -4529297.79725  23054254.042
 92  8 27 22 29  0.0000000  0  5G 3G21G23G17G26
   1758909.732 8    112811.66026  20788665.746
   8247781.601 5  -1400403.13125  24659592.889
  12053418.106 8  -8368676.68827  21588584.604
  -4216554.114 8  -2489868.99529  20414197.325
   5545630.017 6  -4550239.74025  23049141.951
 92  8 27 22 29 30.0000000  0  5G 3G21G23G17G26
   1785213.329 8    133307.97326  20793671.501
   8140222.422 5  -1484215.18925  24639115.655
  11985182.336 8  -8421847.32827  21575599.034
  -4222170.560 8  -2494245.41629  20413128.925
   5519234.567 6  -4570807.54825  23044122.376
 92  8 27 22 30  0.0000000  0  5G 3G21G23G17G26
   1811952.215 8    154143.46426  20798760.388
   8032769.532 5  -1567944.40525  24618679.523
  11917299.793 8  -8474742.75227  21562679.957
  -4227484.993 8  -2498386.52029  20412114.847
   5493324.355 6  -4590997.25825  23039190.011
 92  8 27 22 30 30.0000000  0  5G 3G21G23G17G26
   1839121.187 8    175314.10826  20803929.529
   7925403.378 5  -1651606.01825  24598239.613
  11849784.784 8  -8527351.76827  21549833.191
  -4232495.921 8  -2502291.11929  20411163.755
   5467888.310 6  -4610817.49925  23034346.684
 92  8 27 22 31  0.0000000  0  5G 3G21G23G17G26
   1866723.340 8    196822.27726  20809181.623
   7818117.318 5  -1735205.16725  24577823.477
  11782662.373 7  -8579654.85927  21537059.004
  -4237191.266 8  -2505949.79329  20410268.305
   5442947.353 6  -4630251.96225  23029604.207
 92  8 27 22 31 30.0000000  0  5G 3G21G23G17G26
   1894767.921 7    218675.19026  20814516.730
   7710918.104 5  -1818736.76825  24557423.919
  11715933.154 8  -8631651.55927  21524361.535
  -4241552.369 8  -2509348.02129  20409440.249
   5418526.224 6  -4649281.30225  23024957.873
 92  8 27 22 32  0.0000000  0  5G 3G21G23G17G26
   1923257.377 7    240874.79126  20819938.596
   7603790.640 5  -1902212.31925  24537031.886
  11649608.493 8  -8683333.05327  21511740.392
  -4245592.881 8  -2512496.44929  20408670.411
   5394617.108 6  -4667911.70425  23020405.885
 92  8 27 22 32 30.0000000  0  5G 3G21G23G17G26
   1952186.828 7    263417.21226  20825442.186
   7496715.199 5  -1985647.38125  24516658.590
  11583697.726 8  -8734692.01127  21499197.975
  -4249330.389 8  -2515408.77529  20407963.741
   5371217.330 6  -4686145.20225  23015954.416
 92  8 27 22 33  0.0000000  0  5G 3G21G23G17G26
   1981555.076 7    286301.56926  20831027.710
   7389696.496 5  -2069038.23625  24496295.368
  11518183.524 8  -8785741.95727  21486733.024
  -4252775.492 8  -2518093.22629  20407304.947
   5348341.917 6  -4703970.13125  23011600.890
 92  8 27 22 33 30.0000000  0  5G 3G21G23G17G26
   2011366.029 7    309530.89326  20836705.599
   7282745.954 5  -2152375.99725  24475946.235
  11453053.713 7  -8836492.36327  21474336.366
  -4255939.582 8  -2520558.74729  20406699.006
   5325985.298 6  -4721390.81425  23007346.026
 92  8 27 22 34  0.0000000  0  5G 3G21G23G17G26
   2041617.998 8    333103.87326  20842462.004
   7175874.916 5  -2235651.75925  24455608.075
  11388301.787 8  -8886948.33327  21462016.545
  -4258832.252 8  -2522812.75229  20406152.664
   5304139.052 6  -4738413.79325  23003184.547
 92  8 27 22 34 30.0000000  0  5G 3G21G23G17G26
   2072306.240 7    357016.77626  20848303.250
   7069107.533 5  -2318846.77925  24435302.142
  11323906.668 8  -8937126.27227  21449762.169
  -4261445.200 8  -2524848.78629  20405653.810
   5282805.662 6  -4755037.13425  22999125.357
 92  8 27 22 35  0.0000000  0  5G 3G21G23G17G26
   2103427.401 7    381267.04126  20854224.751
   6962446.885 5  -2401958.63525  24414995.310
  11259855.551 8  -8987036.15827  21437572.308
  -4263772.188 8  -2526662.01829  20405210.777
   5261971.270 6  -4771271.64825  22995158.983
 92  8 27 22 35 30.0000000  0  5G 3G21G23G17G26
   2134981.041 8    405854.30726  20860229.384
   6855895.440 5  -2484985.43025  24394714.081
  11196162.812 8  -9036666.77927  21425451.399
  -4265801.654 8  -2528243.39729  20404825.243
   5241618.570 6  -4787130.80125  22991288.422
 92  8 27 22 36  0.0000000  0  5G 3G21G23G17G26
   2166973.337 7    430783.39226  20866314.031
   6749457.135 5  -2567924.00925  24374462.561
  11132851.241 8  -9086000.39427  21413406.637
  -4267514.444 8  -2529578.00429  20404498.949
   5221757.651 6  -4802606.80425  22987512.446
 92  8 27 22 36 30.0000000  0  5G 3G21G23G17G26
   2199414.162 7    456061.95026  20872486.608
   6643132.185 5  -2650774.33325  24354236.043
  11069945.956 8  -9135017.42127  21401431.158
  -4268888.478 8  -2530648.66929  20404238.550
   5202392.616 6  -4817696.35025  22983824.310
 92  8 27 22 37  0.0000000  0  5G 3G21G23G17G26
   2232306.922 8    481692.68726  20878748.973
   6536909.775 5  -2733544.73125  24334023.406
  11007470.132 8  -9183699.81227  21389544.267
  -4269913.264 8  -2531447.19529  20404045.453
   5183529.385 6  -4832394.89525  22980234.175
 92  8 27 22 37 30.0000000  0  5G 3G21G23G17G26
   2265649.282 8    507673.74026  20885094.920
   6430796.280 5  -2816230.23925  24313835.232
  10945427.961 7  -9232044.28327  21377740.178
  -4270594.235 8  -2531977.79929  20403912.136
   5165177.544 6  -4846694.96025  22976744.441
 92  8 27 22 38  0.0000000  0  5G 3G21G23G17G26
   2299441.622 8    534005.43626  20891527.117
   6324790.217 5  -2898832.09825  24293650.116
  10883810.999 8  -9280057.41027  21366014.246
  -4270937.033 8  -2532244.91729  20403849.209
   5147338.820 6  -4860595.19725  22973349.231
 92  8 27 22 38 30.0000000  0  5G 3G21G23G17G26
   2333695.425 8    560696.70126  20898042.566
   6218900.995 5  -2981342.86725  24273504.423
  10822614.384 8  -9327743.01128  21354367.609
  -4270935.673 8  -2532243.83129  20403849.029
   5130015.741 6  -4874093.64125  22970054.542
 92  8 27 22 39  0.0000000  0  5G 3G21G23G17G26
   2368413.502 8    587749.75526  20904649.212
   6113123.817 6  -3063766.43325  24253376.717
  10761829.343 8  -9375107.89628  21342798.378
  -4270610.079 8  -2531990.10729  20403912.915
   5113220.371 6  -4887180.89925  22966853.388
 92  8 27 22 39 30.0000000  0  5G 3G21G23G17G26
   2403595.561 8    615164.35026  20911346.936
   6007460.918 5  -3146100.89125  24233265.619
  10701446.814 8  -9422159.16028  21331310.841
  -4269974.618 8  -2531494.93129  20404028.875
   5096944.855 6  -4899863.07125  22963758.211
 92  8 27 22 40  0.0000000  0  5G 3G21G23G17G26
   2439240.689 8    642939.76626  20918126.802
   5901905.975 5  -3228351.26625  24213169.991
  10641466.211 8  -9468897.22428  21319896.633
  -4269036.421 8  -2530763.85429  20404207.701
   5081191.539 6  -4912138.29825  22960764.424
 92  8 27 22 40 30.0000000  0  5G 3G21G23G17G26
   2475352.459 8    671078.81126  20925000.054
   5796470.553 5  -3310508.45525  24193117.863
  10581896.800 8  -9515314.86828  21308560.880
  -4267794.689 8  -2529796.25429  20404442.259
   5065976.447 6  -4923994.13725  22957868.159
 92  8 27 22 41  0.0000000  0  5G 3G21G23G17G26
   2511929.464 7    699580.36026  20931960.635
   5691166.079 5  -3392563.61425  24173073.949
  10522748.480 8  -9561404.40328  21297305.622
  -4266253.654 8  -2528595.43329  20404744.030
   5051309.321 6  -4935422.98425  22955078.950
 92  8 27 22 41 30.0000000  0  5G 3G21G23G17G26
   2548964.350 8    728438.71826  20939006.328
   5586004.711 5  -3474507.33225  24153067.030
  10464020.160 8  -9607166.64828  21286131.608
  -4264413.447 8  -2527161.49429  20405088.461
   5037173.522 6  -4946437.82625  22952389.751
 92  8 27 22 42  0.0000000  0  5G 3G21G23G17G26
   2586464.774 7    757659.82726  20946140.699
   5480998.580 5  -3556330.03825  24133070.483
  10405708.656 8  -9652604.11328  21275034.550
  -4262274.957 8  -2525495.12629  20405497.288
   5023576.279 6  -4957033.05225  22949801.553
 92  8 27 22 42 30.0000000  0  5G 3G21G23G17G26
   2624434.720 8    787246.78926  20953368.755
   5376157.377 5  -3638024.21625  24113130.987
  10347811.090 8  -9697719.04128  21264012.650
  -4259837.882 8  -2523596.09229  20405961.697
   5010514.645 6  -4967210.87025  22947308.269
 92  8 27 22 43  0.0000000  0  5G 3G21G23G17G26
   2662874.627 7    817199.96026  20960684.170
   5271473.998 6  -3719595.47225  24093218.802
  10290316.990 8  -9742519.55528  21253074.603
  -4257095.397 8  -2521459.06429  20406481.297
   4997988.202 6  -4976971.65025  22944930.495
 92  8 27 22 43 30.0000000  0  5G 3G21G23G17G26
   2701779.546 7    847515.49826  20968087.425
   5166939.333 6  -3801050.79225  24073319.568
  10233210.800 8  -9787017.82028  21242207.306
  -4254044.161 8  -2519081.47429  20407063.404
   4985987.546 6  -4986322.75325  22942642.239
 92  8 27 22 44  0.0000000  0  6G 3G21G23G17G28G26
   2741157.891 7    878199.90626  20975581.307
   5062556.275 6  -3882388.05325  24053459.666
  10176498.637 8  -9831209.04428  21231414.058
  -4250666.480 8  -2516449.50629  20407709.786
  21989385.30516   -278503.92631  24416116.204
   4974541.888 6  -4995241.37825  22940466.585
 92  8 27 22 44 30.0000000  0  6G 3G21G23G17G28G26
   2781016.677 7    909258.71826  20983164.917
   4958326.712 5  -3963605.64925  24033623.509
  10120202.765 7  -9875075.91128  21220700.015
  -4246930.989 8  -2513538.70129  20408418.256
  21882253.878 5   -361983.76421  24395728.279
   4963667.384 6  -5003714.98525  22938396.429
 92  8 27 22 45  0.0000000  0  6G 3G21G23G17G28G26
   2821357.414 7    940693.05026  20990839.754
   4854258.056 5  -4044697.86725  24013805.668
  10064344.204 8  -9918601.98628  21210074.321
  -4242824.842 8  -2510339.08229  20409197.117
  21775227.277 5   -445381.58721  24375358.221
   4953363.044 6  -5011744.30125  22936435.066
 92  8 27 22 45 30.0000000  0  6G 3G21G23G17G28G26
   2862179.877 7    972502.75026  20998614.122
   4750356.730 5  -4125659.66925  23994048.026
  10008940.794 8  -9961773.39928  21199531.849
  -4238356.848 8  -2506857.51929  20410046.009
  21668304.806 5   -528697.65322  24355002.163
   4943627.854 6  -5019330.08825  22934581.000
 92  8 27 22 46  0.0000000  0  6G 3G21G23G17G28G26
   2903482.423 7   1004686.56626  21006466.856
   4646616.146 5  -4206496.25125  23974295.720
   9954009.937 8 -10004576.60828  21189073.230
  -4233533.224 8  -2503098.82829  20410960.826
  21561487.380 5   -611931.85423  24334684.209
   4934464.987 6  -5026469.94225  22932835.189
 92  8 27 22 46 30.0000000  0  6G 3G21G23G17G28G26
   2945269.455 7   1037247.88326  21014422.478
   4543047.548 5  -4287198.81625  23954587.214
   9899563.420 8 -10047002.40828  21178715.610
  -4228364.783 8  -2499071.45629  20411949.122
  21454765.865 5   -695091.33824  24314381.754
   4925854.789 6  -5033179.14025  22931202.039
 92  8 27 22 47  0.0000000  0  6G 3G21G23G17G28G26
   2987534.862 7   1070181.96926  21022462.342
   4439641.003 5  -4367775.09625  23934916.422
   9845590.093 8 -10089059.49828  21168444.841
  -4222879.220 8  -2494796.97329  20412993.389
  21348128.365 5   -778185.40125  24294076.541
   4917788.065 6  -5039464.89025  22929664.194
 92  8 27 22 47 30.0000000  0  6G 3G21G23G17G28G26
   3030277.039 7   1103487.56026  21030596.971
   4336385.087 6  -4448234.01425  23915266.855
   9792064.820 8 -10130767.45028  21158261.071
  -4217086.174 8  -2490282.89429  20414094.976
  21241573.891 5   -861214.73125  24273793.482
   4910257.580 6  -5045332.78725  22928235.653
 92  8 27 22 48  0.0000000  0  6G 3G21G23G17G28G26
   3073496.152 7   1137164.78826  21038820.308
   4233276.353 6  -4528578.21825  23895649.666
   9738977.607 8 -10172134.04628  21148156.626
  -4210992.452 8  -2485534.50429  20415258.201
  21135106.946 5   -944175.86025  24253544.900
   4903257.594 6  -5050787.28925  22926899.388
 92  8 27 22 48 30.0000000  0  6G 3G21G23G17G28G26
   3117185.436 7   1171208.38626  21047135.471
   4130323.906 6  -4608800.68825  23876053.462
   9686305.277 8 -10213177.34728  21138136.363
  -4204598.604 8  -2480552.27729  20416470.322
  21028724.082 5  -1027071.47125  24233296.138
   4896776.498 6  -5055837.46725  22925670.479
 92  8 27 22 49  0.0000000  0  6G 3G21G23G17G28G26
   3161349.846 8   1205622.20326  21055540.003
   4027529.893 6  -4688899.69825  23856492.364
   9634045.514 8 -10253899.18228  21128193.386
  -4197871.314 8  -2475310.22329  20417749.746
  20922453.383 5  -1109879.67325  24213080.383
   4890837.541 6  -5060465.22525  22924537.023
 92  8 27 22 49 30.0000000  0  6G 3G21G23G17G28G26
   3205995.691 7   1240411.16326  21064035.642
   3924909.584 6  -4768863.36525  23836970.898
   9582211.092 8 -10294289.57928  21118326.317
  -4190795.558 8  -2469796.63129  20419099.651
  20816299.680 6  -1192596.70025  24192879.108
   4885454.190 7  -5064660.02525  22923517.729
 92  8 27 22 50  0.0000000  0  6G 3G21G23G17G28G26
   3251125.703 7   1275577.40926  21072626.134
   3822481.484 6  -4848677.22225  23817469.969
   9530823.347 8 -10334331.91128  21108545.708
  -4183366.697 8  -2464007.87829  20420514.132
  20710278.166 5  -1275210.72325  24172707.813
   4880649.958 6  -5068403.50525  22922599.465
 92  8 27 22 50 30.0000000  0  6G 3G21G23G17G28G26
   3296739.331 8   1311120.50026  21081304.017
   3720251.027 6  -4928337.10425  23798009.481
   9479883.022 8 -10374025.62128  21098853.927
  -4175570.927 8  -2457933.24529  20421995.017
  20604391.800 6  -1357719.40725  24152553.485
   4876430.220 6  -5071691.59525  22921796.081
 92  8 27 22 51  0.0000000  0  6G 3G21G23G17G28G26
   3342838.959 7   1347042.28426  21090077.383
   3618201.828 6  -5007855.73225  23778600.407
   9429408.398 8 -10413356.46128  21089247.288
  -4167426.375 8  -2451586.82829  20423546.143
  20498636.051 5  -1440126.38925  24132426.559
   4872798.151 7  -5074521.76025  22921101.851
 92  8 27 22 51 30.0000000  0  6G 3G21G23G17G28G26
   3389427.362 7   1383344.91526  21098942.426
   3516342.197 6  -5087226.67825  23759203.656
   9379404.112 8 -10452320.79328  21079732.895
  -4158961.271 8  -2444990.62929  20425155.849
  20392989.545 5  -1522448.17725  24112325.504
   6510572.27617      -797.07931  22920527.329
 92  8 27 22 52  0.0000000  0  6G 3G21G23G17G28G26
   3436501.543 7   1420026.09926  21107900.854
   3414674.345 6  -5166448.15125  23739863.055
   9329859.189 8 -10490927.15928  21070305.981
  -4150181.531 8  -2438149.24629  20426826.472
  20287449.525 6  -1604687.07025  24092245.466
       378.46616     -1095.55031  22920054.856
 92  8 27 22 52 30.0000000  0  6G 3G21G23G17G28G26
   3484057.035 7   1457082.32326  21116947.002
   3313186.268 6  -5245529.56725  23720551.654
   9280764.709 8 -10529182.55228  21060960.910
  -4141088.424 8  -2431063.70229  20428557.384
  20182006.304 6  -1686850.53125  24072176.549
     -1531.296 6     -2598.56621  22919691.538
 92  8 27 22 53  0.0000000  0  6G 3G21G23G17G28G26
   3532089.346 7   1494510.07526  21126087.314
   3211864.345 6  -5324481.53925  23701272.301
   9232110.254 8 -10567095.06128  21051705.118
  -4131695.644 8  -2423744.63529  20430346.036
  20076659.959 6  -1768938.46825  24052128.858
     -2895.102 6     -3663.19121  22919434.376
 92  8 27 22 53 30.0000000  0  6G 3G21G23G17G28G26
   3580616.129 7   1532323.13526  21135325.958
   3110741.670 6  -5403278.21725  23682035.548
   9183905.825 8 -10604656.89428  21042531.499
  -4121967.896 8  -2416164.56029  20432196.745
  19971450.573 6  -1850919.65425  24032106.229
     -3690.405 6     -4281.11723  22919281.332
 92  8 27 22 54  0.0000000  0  6G 3G21G23G17G28G26
   3629637.978 7   1570521.97226  21144652.022
   3009815.053 6  -5481922.17525  23662827.066
   9136161.256 8 -10641860.40828  21033444.699
  -4111893.038 8  -2408314.01529  20434110.080
  19866399.406 6  -1932777.59025  24012117.207
     -3921.914 6     -4461.50325  22919242.029
 92  8 27 22 54 30.0000000  0  6G 3G21G23G17G28G26
   3679150.924 7   1609103.47926  21154074.589
   2909074.214 6  -5560421.34925  23643652.790
   9088882.279 8 -10678701.11128  21024449.906
  -4101479.475 8  -2400199.51929  20436092.787
  19761518.989 6  -2014502.49225  23992156.336
     -3589.640 7     -4202.59525  22919301.658
 92  8 27 22 55  0.0000000  0  6G 3G21G23G17G28G26
   3729155.055 7   1648067.72226  21163590.721
   2808525.799 5  -5638770.55925  23624514.759
   9042067.958 8 -10715179.75428  21015539.145
  -4090740.760 8  -2391831.68429  20438138.241
  19656808.582 6  -2096094.89825  23972228.981
     -2674.052 6     -3489.12725  22919471.070
 92  8 27 22 55 30.0000000  0  6G 3G21G23G17G28G26
   3779645.786 7   1687411.13126  21173200.718
   2708187.130 6  -5716956.33325  23605425.594
   8995728.802 8 -10751288.14028  21006723.148
  -4079682.222 8  -2383214.61429  20440241.016
  19552250.053 5  -2177568.99025  23952333.884
     -1173.047 6     -2319.43625  22919763.338
 92  8 27 22 56  0.0000000  0  6G 3G21G23G17G28G26
   3830619.425 7   1727130.84326  21182897.145
   2608052.791 6  -5794982.93225  23586366.049
   8949873.552 8 -10787019.43528  20997993.372
  -4068313.641 8  -2374355.96429  20442405.967
  19447835.249 5  -2258931.05925  23932464.510
       904.387 6      -700.63025  22920153.278
 92  8 27 22 56 30.0000000  0  6G 3G21G23G17G28G26
   3882075.784 7   1767226.70426  21192690.706
   2508128.381 6  -5872845.90325  23567353.840
   8904493.867 8 -10822380.17728  20989359.199
  -4056634.246 8  -2365255.11529  20444628.208
  19343565.584 5  -2340180.01625  23912620.407
      3551.262 6      1361.86625  22920659.837
 92  8 27 22 57  0.0000000  0  6G 3G21G23G17G28G26
   3934019.638 7   1807702.41726  21202575.283
   2408423.846 6  -5950537.55725  23548380.515
   8859580.580 8 -10857377.49428  20980812.596
  -4044628.282 8  -2355899.80929  20446912.207
  19239430.731 6  -2421323.91225  23892810.032
      6767.937 6      3868.41325  22921271.624
 92  8 27 22 57 30.0000000  0  6G 3G21G23G17G28G26
   3986450.134 7   1848557.34126  21212553.155
   2308930.800 6  -6028064.40925  23529457.436
   8815129.860 8 -10892014.36228  20972354.311
  -4032276.311 8  -2346274.88429  20449265.128
  19135436.306 6  -2502358.39925  23873020.072
     10546.178 6      6812.50625  22921991.006
 92  8 27 22 58  0.0000000  0  6G 3G21G23G17G28G26
   4039367.428 8   1889791.60326  21222624.143
   2209635.711 6  -6105437.02525  23510548.416
   8771123.283 8 -10926305.14728  20963979.099
  -4019580.760 8  -2336382.22329  20451677.948
  19031609.394 6  -2583262.39525  23853263.209
     14884.743 7     10193.25325  22922820.352
 92  8 27 22 58 30.0000000  0  6G 3G21G23G17G28G26
   4092767.256 7   1931401.84226  21232780.122
   2110545.531 6  -6182649.96225  23491701.424
   8727534.314 8 -10960270.53328  20955685.431
  -4006544.126 8  -2326223.79129  20454159.150
  18927944.527 6  -2664040.10925  23833534.228
     19783.815 7     14010.72425  22923750.698
 92  8 27 22 59  0.0000000  0  6G 3G21G23G17G28G26
   4146657.908 7   1973394.53526  21243038.031
   2011672.153 6  -6259693.95225  23472885.849
   8684375.474 8 -10993900.73228  20947471.987
  -3993155.178 8  -2315790.83629  20456708.885
  18824448.904 6  -2744685.92625  23813846.767
     25271.333 6     18286.72025  22924791.397
 92  8 27 22 59 30.0000000  0  6G 3G21G23G17G28G26
   4201040.751 8   2015770.77226  21253388.665
   1913019.599 6  -6336565.85525  23454118.572
   8641664.861 8 -11027181.67228  20939344.404
  -3979421.063 8  -2305088.90529  20459323.915
  18721138.522 6  -2825187.43625  23794183.679
     31337.657 6     23013.77525  22925949.495
 92  8 27 23  0  0.0000000  0  6G 3G21G23G17G28G26
   4255919.151 7   2058533.17926  21263832.925
   1814608.467 6  -6413249.73125  23435381.963
   8599410.539 8 -11060107.08028  20931302.801
  -3965346.869 8  -2294121.98929  20461997.524
  18618023.354 6  -2905536.79025  23774559.265
     37979.305 6     28189.14125  22927210.452
 92  8 27 23  0 30.0000000  0  6G 3G21G23G17G28G26
   4311300.025 7   2101687.07826  21274370.120
   1716443.955 6  -6489741.38325  23416701.175
   8557635.041 8 -11092659.36728  20923352.514
  -3950911.899 8  -2282873.95129  20464745.991
  18515081.139 5  -2985751.40425  23754967.708
     45201.382 6     33816.75325  22928583.682
 92  8 27 23  1  0.0000000  0  6G 3G21G23G17G28G26
   4367180.113 7   2145229.99326  21285000.461
   1618500.998 6  -6566060.40525  23398067.245
   8516356.975 8 -11124824.03928  20915499.661
  -3936123.853 8  -2271350.78629  20467560.113
  18412306.451 5  -3065835.49925  23735402.833
     53001.244 6     39894.56425  22930071.702
 92  8 27 23  1 30.0000000  0  6G 3G21G23G17G28G26
   4423552.577 7   2189156.57126  21295731.862
   1520764.915 6  -6642218.19625  23379471.179
   8475576.219 8 -11156601.20428  20907738.934
  -3920996.478 8  -2259563.20229  20470436.532
  18309697.049 6  -3145790.76225  23715880.797
     61366.780 6     46413.18025  22931663.809
 92  8 27 23  2  0.0000000  0  6G 3G21G23G17G28G26
   4480416.290 7   2233465.95126  21306551.401
   1423234.827 6  -6718215.49025  23360911.148
   8435281.777 8 -11187999.42728  20900072.731
  -3905527.056 8  -2247509.10129  20473380.314
  18207255.056 6  -3225615.60225  23696389.851
     70312.648 6     53384.00126  22933365.791
 92  8 27 23  2 30.0000000  0  6G 3G21G23G17G28G26
   4537767.838 7   2278155.43626  21317462.198
   1325893.039 6  -6794066.10025  23342379.837
   8395476.285 8 -11219016.63828  20892497.455
  -3889729.886 8  -2235199.60129  20476387.982
  18104984.684 6  -3305306.67625  23676927.774
     79837.927 6     60806.31925  22935180.195
 92  8 27 23  3  0.0000000  0  6G 3G21G23G17G28G26
   4595607.077 7   2323224.96226  21328470.367
   1228754.486 6  -6869758.30425  23323899.041
   8356146.200 8 -11249663.40528  20885014.785
  -3873615.256 8  -2222642.74129  20479453.779
  18002910.218 6  -3384845.13825  23657501.223
     89940.988 6     68678.84125  22937097.668
 92  8 27 23  3 30.0000000  0  6G 3G21G23G17G28G26
   4653942.821 7   2368681.40026  21339573.571
   1131856.628 6  -6945262.97325  23305466.481
   8317280.204 8 -11279948.53528  20877619.835
  -3857174.237 8  -2209831.52129  20482586.700
  17901044.535 5  -3464220.87525  23638118.711
    100615.930 7     76996.97725  22939130.800
 92  8 27 23  4  0.0000000  0  6G 3G21G23G17G28G26
   4712775.906 7   2414525.34626  21350767.851
   1035212.725 6  -7020569.73525  23287063.661
   8278874.361 8 -11309875.13428  20870309.785
  -3840408.105 8  -2196766.98229  20485773.734
  17799381.347 6  -3543438.82325  23618775.142
    111860.711 7     85759.19425  22941272.458
 92  8 27 23  4 30.0000000  0  6G 3G21G23G17G28G26
   4772099.308 7   2460751.34626  21362056.806
    938823.277 6  -7095678.27125  23268725.926
   8240924.372 8 -11339446.50628  20863083.468
  -3823331.900 8  -2183460.84629  20489022.735
  17697898.148 6  -3622516.54625  23599461.283
    123665.511 6     94957.72425  22943515.984
 92  8 27 23  5  0.0000000  0  6G 3G21G23G17G28G26
   4831907.425 7   2507355.06226  21373436.808
    842695.804 6  -7170582.66925  23250443.083
   8203423.135 8 -11368668.19729  20855949.427
  -3805939.743 8  -2169908.48729  20492336.251
  17596582.716 6  -3701463.53825  23580180.431
    136038.413 6    104598.95625  22945873.372
 92  8 27 23  5 30.0000000  0  6G 3G21G23G17G28G26
   4892205.134 7   2554340.26426  21384912.113
    746820.108 6  -7245290.83325  23232189.650
   8166392.669 8 -11397523.05929  20848904.274
  -3788223.414 8  -2156103.54929  20495704.539
  17495443.857 6  -3780272.88325  23560937.802
    148986.547 6    114688.43926  22948337.576
 92  8 27 23  6  0.0000000  0  6G 3G21G23G17G28G26
   4952985.879 7   2601701.88525  21396477.507
    651166.823 6  -7319825.73125  23213988.320
   8129847.496 8 -11425999.77428  20841950.078
  -3770185.232 8  -2142047.80129  20499138.991
  17394483.038 6  -3858943.57725  23541729.080
    162530.003 6    125241.81326  22950914.532
 92  8 27 23  6 30.0000000  0  6G 3G21G23G17G28G26
   5014246.363 7   2649437.30325  21408134.337
    555722.068 6  -7394198.09625  23195832.319
   8093779.502 8 -11454104.65528  20835087.709
  -3751815.175 8  -2127733.45129  20502634.631
  17293716.484 6  -3937462.87225  23522552.166
    176670.427 6    136260.32526  22953600.973
 92  8 27 23  7  0.0000000  0  6G 3G21G23G17G28G26
   5075985.376 7   2697545.60325  21419887.910
    460481.082 6  -7468411.71025  23177702.281
   8058193.462 8 -11481833.99029  20828317.526
  -3733100.004 8  -2113150.19429  20506192.239
  17193159.999 6  -4015818.52125  23503416.293
    191406.663 6    147743.10126  22956408.589
 92  8 27 23  7 30.0000000  0  6G 3G21G23G17G28G26
   5138205.792 7   2746029.05025  21431724.886
    365448.412 6  -7542462.95925  23159620.089
   8023097.461 8 -11509181.46929  20821634.792
  -3714037.440 8  -2098296.22829  20509821.586
  17092824.433 6  -4094001.99425  23484322.692
    206737.973 7    159689.58025  22959324.221
 92  8 27 23  8  0.0000000  0  6G 3G21G23G17G28G26
   5200902.572 7   2794883.67825  21443656.805
    270645.208 6  -7616335.46425  23141577.769
   7988475.794 8 -11536159.36329  20815046.613
  -3694637.152 8  -2083179.11329  20513514.160
  16992700.972 5  -4172020.15925  23465268.213
    222660.422 6    172096.75625  22962358.090
 92  8 27 23  8 30.0000000  0  6G 3G21G23G17G28G26
   5264075.251 7   2844109.12025  21455676.984
    176089.913 6  -7690014.76125  23123581.168
   7954320.514 8 -11562773.82129  20808545.644
  -3674905.307 8  -2067803.62329  20517268.041
  16892799.823 6  -4249865.10625  23446252.197
    239152.910 7    184948.00625  22965494.939
 92  8 27 23  9  0.0000000  0  6G 3G21G23G17G28G26
   5327725.435 7   2893706.64925  21467786.770
     81796.284 6  -7763490.17625  23105643.986
   7920642.346 8 -11589016.50429  20802139.049
  -3654855.101 8  -2052180.10129  20521083.709
  16793113.933 6  -4327542.35125  23427284.688
    256208.343 7    198237.98625  22968739.323
 92  8 27 23  9 30.0000000  0  6G 3G21G23G17G28G26
   5391849.478 7   2943673.41925  21479990.062
    -12244.805 6  -7836768.79825  23087743.198
   7887426.474 8 -11614898.96429  20795820.653
  -3634506.465 8  -2036323.98729  20524954.660
  16693643.096 6  -4405052.02325  23408357.591
    273812.942 6    211955.88425  22972089.803
 92  8 27 23 10  0.0000000  0  6G 3G21G23G17G28G26
   5456450.817 7   2994012.09225  21492283.472
   -106032.488 6  -7909849.99525  23069891.606
   7854666.151 8 -11640426.45029  20789581.432
  -3613857.644 8  -2020233.99929  20528884.909
  16594391.454 6  -4482390.85425  23389472.495
    291961.798 7    226097.90525  22975545.361
 92  8 27 23 10 30.0000000  0  6G 3G21G23G17G28G26
   5521532.627 7   3044725.18825  21504669.157
   -199576.989 6  -7982741.68625  23052095.446
   7822370.282 8 -11665592.03329  20783439.015
  -3592898.765 8  -2003902.38329  20532871.099
  16495364.286 6  -4559554.81125  23370626.552
    310664.289 6    240671.25825  22979103.837
 92  8 27 23 11  0.0000000  0  6G 3G21G23G17G28G26
   5587088.389 7   3095807.58925  21517145.500
   -292882.222 6  -8055446.91325  23034335.142
   7790534.952 8 -11690398.74729  20777379.759
  -3571624.117 8  -1987324.73029  20536923.514
  16396550.120 6  -4636552.79025  23351826.147
    329921.219 6    255676.70525  22982768.860
 92  8 27 23 11 30.0000000  0  6G 3G21G23G17G28G26
   5653116.306 7   3147257.90125  21529707.314
   -385943.085 6  -8127961.74525  23016626.491
   7759160.579 8 -11714846.26529  20771410.232
  -3550022.525 8  -1970492.30729  20541033.309
  16297959.508 6  -4713376.53125  23333063.636
    349746.938 6    271125.34525  22986538.570
 92  8 27 23 12  0.0000000  0  6G 3G21G23G17G28G26
   5719616.906 7   3199076.51225  21542360.564
   -478742.530 6  -8200272.87425  22998968.086
   7728251.866 8 -11738930.95829  20765525.246
  -3528076.431 8  -1953391.44129  20545207.379
  16199595.887 6  -4790023.44225  23314342.586
    370153.390 6    287026.48525  22990422.831
 92  8 27 23 12 30.0000000  0  6G 3G21G23G17G28G26
   5786588.357 7   3251262.03125  21555106.720
   -571280.195 6  -8272380.00025  22981363.073
   7697812.080 8 -11762650.21329  20759732.027
  -3505775.110 8  -1936013.76929  20549451.661
  16101458.125 6  -4866494.34425  23295665.366
    391128.554 6    303370.81125  22994414.988
 92  8 27 23 13  0.0000000  0  6G 3G21G23G17G28G26
   5854028.530 7   3303812.78825  21567941.315
   -663565.059 6  -8344290.16725  22963804.079
   7667836.332 8 -11786007.90929  20754030.963
  -3483123.180 8  -1918362.91729  20553763.006
  16003548.929 6  -4942787.14325  23277037.312
    412657.375 7    320146.51925  22998511.832
 92  8 27 23 13 30.0000000  0  6G 3G21G23G17G28G26
   5921939.945 7   3356730.73625  21580852.747
   -755603.917 6  -8416008.62825  22946283.638
   7638315.659 8 -11809010.98729  20748413.212
  -3460124.908 8  -1900442.16229  20558136.888
  15905867.250 6  -5018902.64525  23258449.281
    434745.534 7    337358.08725  23002713.843
 92  8 27 23 14  0.0000000  0  6G 3G21G23G17G28G26
   5990319.410 7   3410013.40425  21593876.450
   -847416.890 6  -8487551.08025  22928818.359
   7609245.086 8 -11831663.35429  20742880.872
  -3436790.408 8  -1882259.41829  20562578.853
  15808406.853 6  -5094845.72625  23239904.239
    457372.860 7    354989.79125  23007022.430
 92  8 27 23 14 30.0000000  0  6G 3G21G23G17G28G26
   6059171.173 7   3463664.09625  21606977.261
   -939010.508 6  -8558922.61025  22911388.876
   7580635.859 8 -11853956.22829  20737439.429
  -3413125.269 8  -1863819.05429  20567082.275
  15711174.007 6  -5170611.50925  23221398.470
    480544.160 6    373045.34625  23011422.574
 92  8 27 23 15  0.0000000  0  6G 3G21G23G17G28G26
   6128497.677 7   3517684.72725  21620170.857
  -1030388.163 6  -8630125.85025  22893995.727
   7552495.022 8 -11875884.13229  20732079.920
  -3389144.587 8  -1845132.79029  20571648.024
  15614187.098 6  -5246185.66125  23202948.463
    504286.299 7    391545.73125  23015940.776
 92  8 27 23 15 30.0000000  0  6G 3G21G23G17G28G26
   6198294.712 7   3572071.98525  21633453.582
  -1121534.535 6  -8701148.87525  22876647.726
   7524823.156 8 -11897446.58329  20726813.885
  -3364856.815 8  -1826207.23929  20576271.004
  15517446.901 6  -5321567.51225  23184532.602
    528602.993 7    410493.82825  23020571.880
 92  8 27 23 16  0.0000000  0  6G 3G21G23G17G28G26
   6268567.622 7   3626830.07225  21646823.156
  -1212432.798 6  -8771978.57925  22859352.460
   7497637.737 8 -11918629.99529  20721645.343
  -3340253.727 8  -1807035.99929  20580948.846
  15420960.763 6  -5396751.44925  23166169.085
    553495.085 7    429890.30625  23025312.948
 92  8 27 23 16 30.0000000  0  6G 3G21G23G17G28G26
   6339312.063 7   3681955.56625  21660286.176
  -1303076.475 6  -8842609.90725  22842105.699
   7470932.596 8 -11939439.17029  20716561.643
  -3315338.800 8  -1787621.75429  20585690.783
  15324721.384 6  -5471743.09825  23147863.578
    578972.664 6    449742.99425  23030157.684
 92  8 27 23 17  0.0000000  0  6G 3G21G23G17G28G26
   6410527.306 7   3737447.92725  21673839.223
  -1393451.329 6  -8913031.76825  22824909.604
   7444703.247 8 -11959877.60329  20711571.687
  -3290110.344 8  -1767963.21629  20590491.090
  15228725.642 6  -5546544.86625  23129589.698
    605026.159 6    470044.41925  23035110.135
 92  8 27 23 17 30.0000000  0  6G 3G21G23G17G28G26
   6482217.094 7   3793310.05525  21687480.799
  -1483531.806 6  -8983224.21125  22807765.283
   7418952.962 8 -11979942.72929  20706672.329
  -3264560.579 8  -1748054.29829  20595352.944
  15132963.203 6  -5621164.89425  23111367.024
    631653.816 7    490793.26725  23040186.101
 92  8 27 23 18  0.0000000  0  6G 3G21G23G17G28G26
   6554395.390 7   3849552.85425  21701216.540
  -1573307.671 6  -9053179.31525  22790681.639
   7393693.668 7 -11999625.27029  20701864.437
  -3238673.402 8  -1727882.46029  20600281.952
  15037456.937 6  -5695585.28325  23093201.070
    658866.500 7    511998.00425  23045363.127
 92  8 27 23 18 30.0000000  0  6G 3G21G23G17G28G26
   6627074.831 7   3906186.13825  21715045.367
  -1662765.208 6  -9122886.37525  22773650.580
   7368935.615 8 -12018917.22829  20697149.362
  -3212443.265 8  -1707443.37729  20605271.667
  14942238.394 6  -5769781.48425  23075077.566
    686665.817 6    533659.85025  23050650.866
 92  8 27 23 19  0.0000000  0  6G 3G21G23G17G28G26
   6700251.238 7   3963206.69425  21728976.513
  -1751894.872 6  -9192337.97025  22756692.939
   7344677.097 8 -12037819.93929  20692535.915
  -3185881.804 8  -1686746.13829  20610327.427
  14847321.948 6  -5843742.27025  23057016.719
    715037.627 7    555767.75725  23056053.666
 92  8 27 23 19 30.0000000  0  6G 3G21G23G17G28G26
   6773917.544 7   4020608.97625  21742990.791
  -1840715.777 6  -9261548.95225  22739792.409
   7320911.548 8 -12056338.51229  20688012.797
  -3158994.141 8  -1665794.70129  20615441.317
  14752714.372 6  -5917462.35325  23039010.765
    743975.608 7    578316.86925  23061560.224
 92  8 27 23 20  0.0000000  0  6G 3G21G23G17G28G26
   6848059.399 7   4078381.81825  21757096.985
  -1929266.998 6  -9330549.79125  22722940.026
   7297619.649 8 -12074488.02329  20683581.325
  -3131789.434 8  -1644596.22129  20620620.142
  14658413.358 6  -5990943.59425  23021069.295
    773462.090 7    601293.35325  23067169.791
 92  8 27 23 20 30.0000000  0  6G 3G21G23G17G28G26
   6922669.241 7   4136519.32525  21771298.694
  -2017559.147 6  -9399348.77225  22706140.976
   7274795.859 8 -12092272.76229  20679237.152
  -3104280.237 8  -1623160.47929  20625852.659
  14564409.055 6  -6064193.61225  23003178.911
    803496.010 6    624696.45425  23072889.501
 92  8 27 23 21  0.0000000  0  6G 3G21G23G17G28G26
   6997749.212 7   4195023.15525  21785582.575
  -2105596.299 6  -9467949.03525  22689386.175
   7252446.826 7 -12109687.56029  20674980.219
  -3076458.345 8  -1601481.08529  20631150.442
  14470694.816 6  -6137217.65025  22985346.086
    834100.799 6    648544.36925  23078708.622
 92  8 27 23 21 30.0000000  0  6G 3G21G23G17G28G26
   7073307.997 7   4253900.07625  21799964.639
  -2193374.635 6  -9536347.62025  22672684.887
   7230587.013 8 -12126721.15829  20670825.515
  -3048307.263 8  -1579545.15729  20636505.275
  14377268.004 6  -6210017.66125  22967565.755
    865291.852 7    672849.09125  23084640.886
 92  8 27 23 22  0.0000000  0  6G 3G21G23G17G28G26
   7149339.540 7   4313145.40125  21814433.342
  -2280877.236 6  -9604531.38025  22656038.101
   7209208.444 8 -12143379.76229  20666752.265
  -3019832.465 8  -1557356.99029  20641924.173
  14284119.471 6  -6282600.87425  22949844.183
    897059.627 6    697603.21725  23090687.730
 92  8 27 23 22 30.0000000  0  6G 3G21G23G17G28G26
   7225841.240 7   4372757.08225  21828989.525
  -2368081.374 6  -9672482.55325  22639441.621
   7188316.643 8 -12159659.04529  20662780.675
  -2991024.663 8  -1534909.37029  20647406.748
  14191252.940 6  -6354964.32125  22932172.437
    929388.424 6    722794.52325  23096837.282
 92  8 27 23 23  0.0000000  0  6G 3G21G23G17G28G26
   7302824.064 7   4432743.66325  21843640.712
  -2454969.976 6  -9740187.86425  22622903.930
   7167925.385 8 -12175548.31029  20658901.150
  -2961850.069 8  -1512175.89429  20652957.285
  14098682.523 6  -6427097.01825  22914555.403
    962275.736 6    748421.04525  23103100.336
 92  8 27 23 23 30.0000000  0  6G 3G21G23G17G28G26
   7380289.381 7   4493106.21325  21858381.178
  -2541525.388 6  -9807633.53525  22606436.450
   7148026.269 8 -12191054.09929  20655115.131
  -2932293.072 8  -1489144.46929  20658579.923
  14006421.319 6  -6498988.79825  22896996.289
    995710.623 6    774474.24125  23109464.720
 92  8 27 23 24  0.0000000  0  6G 3G21G23G17G28G26
   7458232.555 7   4553841.10925  21873209.572
  -2627763.995 6  -9874832.34925  22590023.412
   7128604.827 8 -12206187.66529  20651420.279
  -2902349.353 8  -1465811.70129  20664275.020
  13914477.259 6  -6570633.44225  22879498.393
   1029690.115 7    800951.75625  23115927.646
 92  8 27 23 24 30.0000000  0  6G 3G21G23G17G28G26
   7536652.555 7   4614947.58225  21888131.202
  -2713701.171 6  -9941796.28025  22573670.303
   7109665.103 7 -12220945.87429  20647812.997
  -2872024.209 8  -1442181.71129  20670052.440
  13822851.864 6  -6642029.80525  22862061.204
   1064235.669 7    827870.35925  23122501.225
 92  8 27 23 25  0.0000000  0  6G 3G21G23G17G28G26
   7615546.049 7   4676422.97025  21903143.969
  -2799343.615 6 -10008530.56725  22557375.894
   7091200.747 8 -12235333.64529  20644303.476
  -2841339.587 8  -1418271.61029  20675890.029
  13731542.450 6  -6713179.93325  22844687.722
   1099368.167 6    855246.37425  23129187.527
 92  8 27 23 25 30.0000000  0  6G 3G21G23G17G28G26
   7694906.823 7   4738262.51225  21918249.881
  -2884696.423 6 -10075039.16825  22541132.239
   7073198.908 8 -12249361.03529  20640873.910
  -2810320.355 8  -1394100.77929  20681795.701
  13640544.530 6  -6784087.33525  22827367.242
   1135101.614 6    883090.61325  23135984.631
 92  8 27 23 26  0.0000000  0  6G 3G21G23G17G28G26
   7774729.671 7   4800462.10425  21933436.738
  -2969773.109 6 -10141332.58225  22524935.142
   7055668.905 8 -12263020.75129  20637538.809
  -2778987.380 8  -1369685.45529  20687756.774
  13549848.886 6  -6854759.17625  22810113.707
   1171430.692 6    911398.99125  23142898.085
 92  8 27 23 26 30.0000000  0  6G 3G21G23G17G28G26
   7855018.265 7   4863024.62225  21948720.157
  -3054553.467 6 -10207395.11425  22508806.727
   7038633.361 8 -12276295.19629  20634297.753
  -2747346.825 8  -1345030.48229  20693776.487
  13459459.660 6  -6925192.27625  22792910.926
   1208349.496 6    940166.90725  23149925.640
 92  8 27 23 27  0.0000000  0  6G 3G21G23G17G28G26
   7935774.348 7   4925951.38525  21964083.082
  -3139032.714 6 -10273223.01825  22492728.288
   7022098.073 8 -12289179.80229  20631149.722
  -2715399.400 8  -1320136.37929  20699855.408
  13369382.473 6  -6995382.25125  22775769.423
   1245834.874 6    969376.32825  23157056.264
 92  8 27 23 27 30.0000000  0  6G 3G21G23G17G28G26
   8016992.662 7   4989238.34925  21979539.991
  -3223212.744 7 -10338817.76725  22476713.075
   7006057.419 8 -12301678.99629  20628096.876
  -2683142.701 8  -1295001.29329  20705994.228
  13279609.659 6  -7065335.00525  22758681.822
   1283865.877 6    999010.90625  23164291.964
 92  8 27 23 28  0.0000000  0  6G 3G21G23G17G28G26
   8098672.697 7   5052885.14225  21995081.022
  -3307093.383 7 -10404179.21325  22460751.016
   6990522.783 8 -12313783.88129  20625144.160
  -2650571.458 8  -1269621.09329  20712191.388
  13190146.680 6  -7135046.35525  22741667.341
   1322428.597 6   1029059.77925  23171636.490
 92  8 27 23 28 30.0000000  0  6G 3G21G23G17G28G26
   8180807.683 7   5116886.39025  22010713.820
  -3390674.995 7 -10469307.65725  22444846.066
   6975477.406 8 -12325507.53429  20622275.955
  -2617693.178 8  -1244001.65829  20718448.776
  13101000.726 7  -7204510.65225  22724699.358
   1361522.110 6   1059522.26625  23179070.024
 92  8 27 23 29  0.0000000  0  6G 3G21G23G17G28G26
   8263396.446 7   5181241.24125  22026429.600
  -3473954.215 7 -10534200.49125  22429000.236
   6960891.987 8 -12336872.78629  20619502.845
  -2584493.207 8  -1218131.54029  20724767.502
  13012190.324 7  -7273713.51825  22707800.897
   1401145.942 6   1090398.01925  23186607.166
 92  8 27 23 29 30.0000000  0  6G 3G21G23G17G28G26
   8346442.782 7   5245952.66525  22042234.718
  -3556927.658 7 -10598855.05125  22413208.459
   6946756.717 8 -12347887.25329  20616811.908
  -2550945.373 8  -1191990.37229  20731149.964
  12923730.876 7  -7342642.88425  22690968.509
   1441316.763 6   1121699.99125  23194256.670
 92  8 27 23 30  0.0000000  0  6G 3G21G23G17G28G26
   8429947.924 7   5311021.57325  22058122.609
  -3639594.811 6 -10663270.91725  22397473.132
   6933080.365 8 -12358544.12329  20614209.440
  -2517044.264 8  -1165573.90829  20737600.448
  12835638.388 7  -7411286.30325  22674201.267
   1482038.931 6   1153431.54725  23202008.134
 92  8 27 23 30 30.0000000  0  6G 3G21G23G17G28G26
   8513909.671 7   5376446.25725  22074101.278
  -3721947.692 6 -10727441.91625  22381804.329
   6919857.903 8 -12368847.31529  20611695.800
  -2482787.581 8  -1138880.39829  20744119.555
  12747915.841 7  -7479641.47625  22657512.451
   1523309.283 6   1185590.26125  23209860.658
 92  8 27 23 31  0.0000000  0  6G 3G21G23G17G28G26
   8598318.690 7   5442219.49325  22090161.729
  -3804003.087 7 -10791381.10225  22366195.725
   6907095.604 8 -12378791.95929  20609263.644
  -2448177.956 8  -1111911.85229  20750704.946
  12660541.843 7  -7547725.06525  22640889.528
   1565113.060 6   1218164.63425  23217813.372
 92  8 27 23 31 30.0000000  0  6G 3G21G23G17G28G26
   8683179.664 7   5508344.90725  22106312.328
  -3885754.678 7 -10855083.55625  22350636.856
   6894829.470 8 -12388349.96929  20606930.599
  -2413230.763 8  -1084680.26229  20757359.649
  12573505.768 7  -7615545.32025  22624324.286
   1607459.396 6   1251161.80225  23225877.400
 92  8 27 23 32  0.0000000  0  6G 3G21G23G17G28G26
   8768500.539 7   5574828.64425  22122547.169
  -3967180.464 7 -10918532.15625  22335135.907
   6883084.909 8 -12397501.54929  20604695.796
  -2377965.128 8  -1057200.54329  20764068.494
  12486818.665 7  -7683093.62625  22607830.545
   1650349.388 6   1284582.56225  23234038.170
 92  8 27 23 32 30.0000000  0  6G 3G21G23G17G28G26
   8854283.348 7   5641672.35325  22138870.569
  -4048276.821 7 -10981724.04525  22319711.585
   6871847.550 8 -12406257.92029  20602558.246
  -2342384.986 8  -1029475.75529  20770838.887
  12400481.994 6  -7750368.93625  22591394.663
   1693787.488 6   1318430.42925  23242302.069
 92  8 27 23 33  0.0000000  0  6G 3G21G23G17G28G26
   8940524.926 7   5708873.55625  22155276.561
  -4129046.252 7 -11044661.18525  22304340.716
   6861109.651 8 -12414625.10229  20600515.430
  -2306500.077 8  -1001513.47729  20777667.800
  12314496.284 6  -7817370.71125  22575026.534
   1737785.615 6   1352714.69125  23250673.773
 92  8 27 23 33 30.0000000  0  6G 3G21G23G17G28G26
   9027220.637 7   5776428.63325  22171780.436
  -4209475.401 7 -11107333.16925  22289030.705
   6850847.389 8 -12422621.65429  20598562.702
  -2270315.056 8   -973317.35029  20784552.474
  12228880.375 7  -7884084.34725  22558739.500
   1782345.285 6   1387436.52825  23259152.624
 92  8 27 23 34  0.0000000  0  6G 3G21G23G17G28G26
   9114360.763 7   5844329.98525  22188360.488
  -4289584.603 7 -11169755.85325  22273786.139
   6841032.200 8 -12430269.83429  20596696.494
  -2233821.329 8   -944880.67129  20791496.926
  12143632.987 7  -7950510.82025  22542515.211
   1827460.603 6   1422591.31225  23267732.954
 92  8 27 23 34 30.0000000  0  6G 3G21G23G17G28G26
   9201935.077 6   5912569.65425  22205024.901
  -4369387.364 7 -11231939.74126  22258603.150
   6831654.277 7 -12437577.30029  20594912.219
  -2197010.517 8   -916196.92829  20798502.716
  12058742.198 6  -8016659.45425  22526364.223
   1873114.971 6   1458166.13825  23276426.545
 92  8 27 23 35  0.0000000  0  6G 3G21G23G17G28G26
   9289943.599 6   5981147.69825  22221775.895
  -4448877.641 7 -11293880.14726  22243477.421
   6822738.642 8 -12444524.53729  20593215.723
  -2159868.816 8   -887255.33529  20805566.696
  11974211.998 7  -8082527.08325  22510281.916
   1919296.710 6   1494151.90325  23285215.291
 92  8 27 23 35 30.0000000  0  6G 3G21G23G17G28G26
   9378396.998 7   6050072.36525  22238605.884
  -4528052.748 7 -11355574.96126  22228411.171
   6814301.538 8 -12451098.89229  20591608.476
  -2122370.263 8   -858035.70129  20812705.864
  11890055.500 7  -8148103.52725  22494264.725
   1965993.985 6   1530539.39226  23294097.392
 92  8 27 23 36  0.0000000  0  6G 3G21G23G17G28G26
   9467291.291 6   6119340.61425  22255517.536
  -4606927.375 7 -11417035.65326  22213399.154
   6806357.160 8 -12457289.30729  20590096.323
  -2084517.762 8   -828540.24729  20819910.056
  11806253.466 7  -8213403.77425  22478318.704
   2013199.327 6   1567322.75226  23303084.210
 92  8 27 23 36 30.0000000  0  6G 3G21G23G17G28G26
   9556618.482 7   6188946.19125  22272520.685
  -4685490.871 7 -11478253.89826  22198449.163
   6798909.025 8 -12463093.04629  20588680.163
  -2046329.026 8   -798782.78829  20827176.006
  11722801.234 7  -8278431.44925  22462434.440
   2060909.539 6   1604499.53526  23312156.380
 92  8 27 23 37  0.0000000  0  6G 3G21G23G17G28G26
   9646376.360 7   6258887.29525  22289602.319
  -4763748.086 7 -11539233.47426  22183558.982
   6791937.684 8 -12468525.24129  20587351.753
  -2007816.627 8   -768773.12029  20834504.283
  11639697.122 7  -8343187.86125  22446620.478
   2109142.513 6   1642083.67126  23321343.220
 92  8 27 23 37 30.0000000  0  6G 3G21G23G17G28G26
   9736560.524 6   6329160.61525  22306764.598
  -4841700.191 7 -11599975.28626  22168724.292
   6785420.565 8 -12473603.49929  20586114.659
  -1969003.924 8   -738529.45529  20841887.871
  11556944.564 7  -8407670.31126  22430879.006
   2157909.067 6   1680083.59226  23330622.186
 92  8 27 23 38  0.0000000  0  6G 3G21G23G17G28G26
   9827167.211 6   6399763.20425  22324006.562
  -4919333.992 7 -11660469.09626  22153949.950
   6779346.663 8 -12478336.39729  20584958.390
  -1929911.282 8   -708067.66429  20849328.900
  11474552.629 7  -8471871.76426  22415196.802
   2207215.525 6   1718504.18826  23340004.041
 92  8 27 23 38 30.0000000  0  6G 3G21G23G17G28G26
   9918191.684 6   6470691.29625  22341329.679
  -4996641.473 7 -11720708.62026  22139238.024
   6773691.954 7 -12482742.64329  20583881.655
  -1890542.228 8   -677390.47329  20856824.791
  11392536.159 7  -8535780.65126  22399593.414
   2257049.021 6   1757335.48326  23349486.837
 92  8 27 23 39  0.0000000  0  6G 3G21G23G17G28G26
  10009640.900 7   6541950.36425  22358731.402
  -5073624.809 7 -11780695.57726  22124591.514
   6768453.214 7 -12486824.77729  20582881.668
  -1850879.803 8   -646484.69929  20864366.520
  11310910.324 7  -8599385.14126  22384058.019
   2307397.883 6   1796568.36926  23359067.904
 92  8 27 23 39 30.0000000  0  6G 3G21G23G17G28G26
  10101531.746 6   6613553.61625  22376215.808
  -5150256.884 7 -11840408.80326  22110008.410
   6763660.082 8 -12490559.67529  20581969.789
  -1810892.418 8   -615325.68928  20871978.040
  11229699.494 7  -8662666.25526  22368602.459
   2358256.587 6   1836198.54626  23368746.823
 92  8 27 23 40  0.0000000  0  6G 3G21G23G17G28G26
  10193868.287 6   6685504.07125  22393782.717
  -5226536.050 7 -11899847.05726  22095494.587
   6759326.840 8 -12493936.21929  20581147.698
  -1770561.018 8   -583898.63228  20879651.228
  11148903.724 7  -8725623.94526  22353227.063
   2409625.569 6   1876226.30826  23378519.937
 92  8 27 23 40 30.0000000  0  6G 3G21G23G17G28G26
  10286638.293 6   6757792.32125  22411442.052
  -5302483.705 7 -11959026.98226  22081040.454
   6755447.986 8 -12496958.68829  20580411.228
  -1729881.664 8   -552200.42128  20887393.129
  11068502.981 7  -8788273.84726  22337926.975
   2461501.829 6   1916649.34426  23388395.401
 92  8 27 23 41  0.0000000  0  6G 3G21G23G17G28G26
  10379844.640 6   6830420.62225  22429176.724
  -5378095.105 7 -12017944.91226  22066652.694
   6752055.799 8 -12499601.94229  20579764.066
  -1688849.489 8   -520227.30728  20895204.521
  10988499.666 7  -8850614.06426  22322700.786
   2513899.505 6   1957478.75226  23398360.142
 92  8 27 23 41 30.0000000  0  6G 3G21G23G17G28G26
  10473483.931 6   6903386.21725  22446996.418
  -5453361.338 7 -12076593.87526  22052327.861
   6749155.927 8 -12501861.56329  20579210.199
  -1647476.043 8   -487988.27029  20903073.983
  10908897.691 7  -8912641.53226  22307554.971
   2566840.923 6   1998731.78126  23408438.145
 92  8 27 23 42  0.0000000  0  6G 3G21G23G17G28G26
  10567560.568 7   6976692.62525  22464899.034
  -5528288.217 7 -12134978.37826  22038069.912
   6746751.619 7 -12503735.04829  20578754.245
  -1605758.095 8   -455480.77629  20911012.277
  10829710.623 6  -8974345.67526  22292483.205
   2620343.850 6   2040422.37526  23418619.487
 92  8 27 23 42 30.0000000  0  6G 3G21G23G17G28G26
  10662074.033 7   7050339.43425  22482881.785
  -5602874.259 7 -12193097.32126  22023877.647
   6744840.542 8 -12505224.19529  20578390.237
  -1563698.012 8   -422706.71128  20919020.184
  10750946.535 7  -9035720.22326  22277498.349
   2674406.517 6   2082549.13326  23428905.366
 92  8 27 23 43  0.0000000  0  6G 3G21G23G17G28G26
  10757018.524 7   7124322.13225  22500950.156
  -5677121.820 7 -12250952.52226  22009747.079
   6743411.775 7 -12506337.49629  20578119.974
  -1521311.683 8   -389678.38928  20927081.693
  10672604.650 7  -9096765.81526  22262591.708
   2729008.706 6   2125096.31626  23439294.404
 92  8 27 23 43 30.0000000  0  6G 3G21G23G17G28G26
  10852390.968 6   7198638.23425  22519099.382
  -5751043.329 7 -12308553.61626  21995683.125
   6742434.702 7 -12507098.85429  20577930.865
  -1478598.666 8   -356395.53128  20935211.375
  10594674.561 7  -9157490.52826  22247761.155
   2784131.598 6   2168049.20326  23449788.189
 92  8 27 23 44  0.0000000  0  6G 3G21G23G17G28G26
  10948185.610 6   7273283.37625  22537327.543
  -5824647.974 7 -12365907.81726  21981675.802
   6741903.208 7 -12507512.98729  20577832.413
  -1435561.486 8   -322860.08328  20943402.664
  10517148.930 7  -9217900.06726  22233007.559
   2839743.615 6   2211383.23526  23460366.396
 92  8 27 23 44 30.0000000  0  6G 3G21G23G17G28G26
  11044396.655 6   7348253.00525  22555634.069
  -5897922.478 7 -12423004.78626  21967733.295
   6741818.345 8 -12507579.10629  20577816.524
  -1392210.316 8   -289079.96228  20951646.927
  10440024.106 7  -9277997.28826  22218329.331
   2895829.817 7   2255086.75626  23471045.513
 92  8 27 23 45  0.0000000  0  6G 3G21G23G17G28G26
  11141026.816 6   7423549.13625  22574027.806
  -5970856.293 7 -12479836.27026  21953855.482
   6742191.590 8 -12507288.23829  20577889.074
  -1348529.489 8   -255042.94328  20959961.341
  10363311.586 7  -9337773.22126  22203733.155
   2952387.392 7   2299157.58426  23481807.853
 92  8 27 23 45 30.0000000  0  6G 3G21G23G17G28G26
  11238075.794 6   7499171.67225  22592494.122
  -6043445.208 7 -12536399.00126  21940039.397
   6743033.992 8 -12506631.83029  20578047.964
  -1304509.385 8   -220741.58628  20968335.743
  10287033.632 7  -9397210.53226  22189221.402
   3009428.065 6   2343604.86526  23492658.841
 92  8 27 23 46  0.0000000  0  6G 3G21G23G17G28G26
  11335537.299 6   7575115.68225  22611038.294
  -6115687.428 7 -12592691.60126  21926292.384
   6744356.242 7 -12505601.49529  20578300.929
  -1260156.844 8   -186181.16328  20976778.049
  10211206.087 7  -9456296.90326  22174792.031
   3066963.711 6   2388437.83926  23503606.722
 92  8 27 23 46 30.0000000  0  6G 3G21G23G17G28G26
  11433412.033 6   7651381.63225  22629666.348
  -6187581.078 7 -12648712.56126  21912612.554
   6746161.368 8 -12504194.88229  20578642.093
  -1215472.620 8   -151362.30228  20985282.711
  10135837.081 7  -9515025.96226  22160448.491
   3125014.307 6   2433672.05526  23514656.592
 92  8 27 23 47  0.0000000  0  6G 3G21G23G17G28G26
  11531705.582 6   7727973.96125  22648371.719
  -6259124.846 7 -12704460.89226  21898995.891
   6748450.101 8 -12502411.43229  20579076.941
  -1170451.373 8   -116280.81328  20993848.981
  10060931.774 7  -9573393.68626  22146191.051
   3183599.096 6   2479322.55126  23525800.207
 92  8 27 23 47 30.0000000  0  6G 3G21G23G17G28G26
  11630418.080 6   7804892.76025  22667155.425
  -6330314.431 7 -12759933.22826  21885449.139
   6751214.944 8 -12500256.99429  20579602.807
  -1125105.617 8    -80946.47428  21002478.057
   9986483.950 7  -9631404.94026  22132027.746
   3242715.908 6   2525387.59226  23537048.390
 92  8 27 23 48  0.0000000  0  6G 3G21G23G17G28G26
  11729545.980 6   7882135.20025  22686018.396
  -6401145.969 7 -12815126.58726  21871968.851
   6754453.134 7 -12497733.72429  20580216.063
  -1079441.688 8    -45364.20228  21011166.852
   9912471.078 7  -9689077.24826  22117940.948
   3302348.132 6   2571854.25126  23548398.143
 92  8 27 23 48 30.0000000  0  6G 3G21G23G17G28G26
  11829084.276 6   7959697.45225  22704956.766
  -6471612.456 7 -12870035.48026  21858562.042
   6758158.574 8 -12494846.35629  20580925.252
  -1033462.076 8     -9535.92228  21019914.166
   9838878.450 7  -9746422.15026  22103938.991
   3362479.578 6   2618709.91026  23559843.260
 92  8 27 23 49  0.0000000  0  6G 3G21G23G17G28G26
  11929025.579 6   8037573.74425  22723979.167
  -6541715.464 7 -12924661.14026  21845220.648
   6762323.014 8 -12491601.32829  20581718.233
   -987167.782 8     26537.53528  21028729.653
   9765696.711 7  -9803446.84026  22090011.473
   3423078.112 6   2665929.56325  23571376.636
 92  8 27 23 49 30.0000000  0  6G 3G21G23G17G28G26
  12029368.842 6   8115763.20325  22743069.261
  -6611461.869 7 -12979008.90526  21831946.678
   6766949.053 7 -12487996.61429  20582598.274
   -940552.632 7     62861.01228  21037595.356
   9692935.675 7  -9860143.71626  22076165.319
   3484127.146 6   2713500.23125  23582991.435
 92  8 27 23 50  0.0000000  0  6G 3G21G23G17G28G26
  12130115.828 6   8194267.30725  22762243.807
  -6680854.666 7 -13033081.15526  21818741.600
   6772040.331 7 -12484029.38029  20583562.466
   -893614.866 8     99435.88228  21046529.081
   9620608.116 7  -9916502.79826  22062402.327
   3545650.408 7   2761440.41925  23594702.018
 92  8 27 23 50 30.0000000  0  6G 3G21G23G17G28G26
  12231265.955 6   8273085.52925  22781489.643
  -6749895.036 7 -13086878.80126  21805609.071
   6777578.952 8 -12479713.54029  20584617.706
   -846355.517 8    136261.36028  21055521.296
   9548729.568 7  -9972512.01826  22048719.739
   3607655.183 6   2809755.81225  23606495.673
 92  8 27 23 51  0.0000000  0  6G 3G21G23G17G28G26
  12332817.545 6   8352216.58325  22800815.434
  -6818591.118 7 -13140408.16826  21792536.771
   6783554.008 7 -12475057.65029  20585756.228
   -798767.924 8    173342.58428  21064576.827
   9477307.943 7 -10028165.21426  22035132.215
   3670149.141 6   2858452.41625  23618388.140
 92  8 27 23 51 30.0000000  0  6G 3G21G23G17G28G26
  12434763.850 6   8431655.21225  22820216.773
  -6886937.312 7 -13193664.89626  21779529.136
   6789960.623 8 -12470065.46829  20586975.154
   -750854.745 8    210677.54328  21073695.524
   9406348.886 7 -10083457.93226  22021630.073
   3733159.474 6   2907551.34325  23630382.686
 92  8 27 23 52  0.0000000  0  6G 3G21G23G17G28G26
  12537095.572 6   8511394.13025  22839688.802
  -6954927.577 7 -13246644.26226  21766589.224
   6796785.802 8 -12464747.13629  20588274.574
   -702633.365 8    248252.62228  21082871.452
   9335843.576 7 -10138397.10326  22008213.821
   3796688.734 6   2957054.68425  23642473.526
 92  8 27 23 52 30.0000000  0  6G 3G21G23G17G28G26
  12639819.122 6   8591438.36425  22859236.770
  -7022553.964 7 -13299340.08826  21753717.215
   6804042.963 8 -12459092.19329  20589654.369
   -654083.880 8    286083.40728  21092112.045
   9265811.511 7 -10192967.51226  21994885.917
   3860717.833 6   3006947.47625  23654656.042
 92  8 27 23 53  0.0000000  0  6G 3G21G23G17G28G26
  12742937.200 6   8671790.03425  22878862.143
  -7089812.826 7 -13351749.52726  21740920.274
   6811764.972 7 -12453075.03129  20591120.684
   -605200.689 8    324174.19528  21101413.645
   9196270.641 7 -10247155.16226  21981652.599
   3925242.118 6   3057226.17025  23666935.332
 92  8 27 23 53 30.0000000  0  6G 3G21G23G17G28G26
  12846446.969 6   8752446.93425  22898555.630
  -7156710.611 7 -13403877.60526  21728192.226
   6819961.696 7 -12446687.96129  20592684.881
   -556006.500 8    362507.32028  21110773.346
   9127227.423 7 -10300955.01926  21968515.243
   3990245.339 6   3107878.03525  23679301.111
 92  8 27 23 54  0.0000000  0  6G 3G21G23G17G28G26
  12950342.081 6   8833404.09825  22918320.467
  -7223267.062 7 -13455739.71726  21715523.596
   6828621.789 7 -12439939.84029  20594332.900
   -506508.253 8    401077.37928  21120193.125
   9058677.152 7 -10354370.77126  21955466.687
   4055695.393 6   3158878.09025  23691757.488
 92  8 27 23 54 30.0000000  0  6G 3G21G23G17G28G26
  13054619.259 6   8914658.95525  22938166.638
  -7289488.367 7 -13507340.69126  21702924.608
   6837750.565 7 -12432826.50029  20596069.268
   -456706.800 8    439883.71127  21129670.074
   8990622.758 7 -10407400.13826  21942518.051
   4121577.818 6   3210215.04225  23704298.256
 92  8 27 23 55  0.0000000  0  6G 3G21G23G17G28G26
  13159270.513 6   8996205.28925  22958085.958
  -7355372.288 7 -13558678.77326  21690388.546
   6847333.910 7 -12425358.93829  20597891.257
   -406618.938 8    478913.20127  21139202.155
   8923033.186 7 -10460067.30026  21929656.655
   4187901.799 6   3261896.07725  23716915.801
 92  8 27 23 55 30.0000000  0  6G 3G21G23G17G28G26
  13264294.209 6   9078041.85425  22978071.172
  -7420910.681 7 -13609747.59226  21677915.381
   6857347.827 8 -12417555.89129  20599797.367
   -356234.496 8    518173.80727  21148791.047
   8855889.109 7 -10512387.31626  21916878.241
   4254679.366 6   3313930.56225  23729620.496
 92  8 27 23 56  0.0000000  0  6G 3G21G23G17G28G26
  13369687.808 6   9160166.64925  22998128.517
  -7486089.735 7 -13660536.42526  21665509.250
   6867786.069 8 -12409422.17429  20601785.381
   -305538.959 7    557676.81127  21158435.730
   8789185.833 7 -10564363.85626  21904185.178
   4321911.630 6   3366319.36325  23742417.137
 92  8 27 23 56 30.0000000  0  6G 3G21G23G17G28G26
  13475459.464 6   9242586.04525  23018256.013
  -7550886.681 7 -13711027.52426  21653181.904
   6878657.117 7 -12400951.21729  20603854.518
   -254512.859 7    597437.39627  21168146.517
   8722932.455 7 -10615989.84426  21891580.734
   4389618.686 6   3419078.05525  23755300.807
 92  8 27 23 57  0.0000000  0  6G 3G21G23G17G28G26
  13581608.420 6   9325299.45425  23038449.194
  -7615300.236 7 -13761219.87526  21640926.268
   6889955.177 8 -12392147.53229  20606002.291
   -203140.388 7    637467.89227  21177922.509
   8657139.103 7 -10667257.32926  21879058.103
   4457813.824 6   3472217.14025  23768281.341
 92  8 27 23 57 30.0000000  0  6G 3G21G23G17G28G26
  13688155.440 6   9408323.05025  23058726.076
  -7679313.974 7 -13811100.66626  21628742.103
   6901700.605 8 -12382995.23929  20608238.323
   -151398.351 7    677786.35027  21187765.505
   8591854.422 7 -10718128.46626  21866633.625
   4526506.300 6   3525743.75425  23781348.695
 92  8 27 23 58  0.0000000  0  6G 3G21G23G17G28G26
  13795094.582 6   9491652.14025  23079076.468
  -7742935.781 7 -13860676.05226  21616634.715
   6913890.498 7 -12373496.60729  20610557.938
    -99296.899 8    718384.88527  21197683.689
   8527086.701 7 -10768596.79926  21854312.035
   4595681.064 6   3579646.17625  23794512.941
 92  8 27 23 58 30.0000000  0  6G 3G21G23G17G28G26
 -12277123.12216     20828.15731  23099502.887
  -7806188.660 7 -13909963.99026  21604600.476
   6926513.413 7 -12363660.55729  20612960.894
    -46852.878 8    759250.35427  21207664.919
   8462829.596 7 -10818667.25426  21842083.710
  -4632205.56316     12545.54431  23807764.218
 92  8 27 23 59  0.0000000  0  6G 3G21G23G17G28G26
 -12169447.362 6    104729.82121  23119988.995
  -7869088.427 8 -13958976.74126  21592632.342
   6939567.199 7 -12353488.77329  20615443.715
      5909.615 7    800363.96727  21217704.459
   8399075.085 7 -10868346.04826  21829952.279
  -4562106.002 6     67169.14823  23821102.734
 92  8 27 23 59 30.0000000  0  6G 3G21G23G17G28G26
 -12061414.543 6    188911.28022  23140548.162
  -7931633.253 7 -14007712.89726  21580726.144
   6953050.479 7 -12342982.30529  20618010.179
     58970.141 8    841709.82327  21227800.989
   8335813.167 7 -10917641.01826  21817913.693
  -4491579.314 6    122125.02625  23834530.198
 92  8 28  0  0  0.0000000  0  6G 3G21G23G17G28G26
 -11953021.358 6    273373.36723  23161177.331
  -7993819.812 7 -14056169.90926  21568895.674
   6966972.930 7 -12332133.63329  20620660.374
    112331.017 7    883289.71127  21237956.818
   8273051.766 8 -10966545.98526  21805970.171
  -4420620.526 6    177417.62325  23848032.850
 92  8 28  0  0 30.0000000  0  6G 3G21G23G17G28G26
 -11844264.044 6    358119.22124  23181866.458
  -8055645.170 8 -14104345.46326  21557133.137
   6981349.079 7 -12320931.45229  20623397.239
    165987.209 8    925099.72327  21248167.989
   8210801.366 7 -11015052.75326  21794121.743
  -4349237.730 6    233040.54825  23861611.710
 92  8 28  0  1  0.0000000  0  6G 3G21G23G17G28G26
 -11735136.469 6    443153.64725  23202634.430
  -8117095.583 7 -14152228.85926  21545434.756
   6996184.279 7 -12309371.54029  20626217.956
    219943.561 8    967143.63927  21258433.483
   8149062.029 8 -11063161.30526  21782377.584
  -4277433.438 6    288991.89525  23875275.471
 92  8 28  0  1 30.0000000  0  6G 3G21G23G17G28G26
 -11625633.666 6    528480.44225  23223476.452
  -8178158.761 8 -14199810.51426  21533814.980
   7011475.109 7 -12297456.58029  20629126.543
    274213.304 7   1009431.74027  21268760.374
   8087849.135 7 -11110859.65926  21770722.612
  -4205179.396 6    345293.79025  23889027.311
 92  8 28  0  2  0.0000000  0  6G 3G21G23G17G28G26
 -11515766.693 6    614090.95125  23244383.948
  -8238843.774 8 -14247097.49126  21522267.274
   7027209.961 7 -12285195.66229  20632123.028
    328791.661 8   1051960.30527  21279144.944
   8027162.296 7 -11158148.06326  21759178.684
  -4132471.973 6    401948.94225  23902860.574
 92  8 28  0  2 30.0000000  0  6G 3G21G23G17G28G26
 -11405539.536 6    699982.18425  23265355.030
  -8299145.282 7 -14294085.64926  21510793.498
   7043386.327 7 -12272590.68929  20635202.706
    383691.198 8   1094739.16227  21289591.213
   7966992.273 8 -11205033.77226  21747727.212
  -4059306.146 6    458961.21525  23916784.764
 92  8 28  0  3  0.0000000  0  7G 3G11G21G23G17G28G26
 -11294964.502 6    786144.47825  23286402.829
  -2241402.15216  -1749295.84033  25292463.762
  -8359074.166 8 -14340783.42927  21499391.161
   7059980.099 8 -12259660.48029  20638358.082
    438913.774 7   1137769.72927  21300100.947
   7907330.122 7 -11251523.73626  21736374.821
  -3985675.396 6    516335.82325  23930794.486
 92  8 28  0  3 30.0000000  0  7G 3G11G21G23G17G28G26
 -11184044.459 6    872575.54725  23307509.537
  -2347335.991 6  -1831841.43223  25272302.149
  -8418644.662 8 -14387201.94627  21488054.869
   7076980.268 8 -12246413.56529  20641590.624
    494455.834 8   1181049.26327  21310673.068
   7848187.953 7 -11297608.52026  21725121.481
  -3911587.956 6    574066.30625  23944897.353
 92  8 28  0  4  0.0000000  0  7G 3G11G21G23G17G28G26
 -11072772.442 6    959280.94525  23328683.758
  -2453257.075 5  -1914376.98323  25252139.937
  -8477861.898 7 -14433345.21227  21476781.983
   7094399.974 7 -12232839.78329  20644906.958
    550325.745 7   1224584.25127  21321300.321
   7789578.913 8 -11343277.86026  21713967.223
  -3837058.601 6    632141.14725  23959083.741
 92  8 28  0  4 30.0000000  0  7G 3G11G21G23G17G28G26
 -10961137.948 6   1046268.71825  23349923.544
  -2559150.928 5  -1996891.54123  25231994.514
  -8536715.699 7 -14479205.28227  21465583.895
   7112246.025 8 -12218933.76029  20648303.427
    606537.271 7   1268385.44527  21332000.184
   7731515.759 7 -11388521.85027  21702918.972
  -3762086.880 6    690560.60625  23973343.999
 92  8 28  0  5  0.0000000  0  7G 3G11G21G23G17G28G26
 -10849149.841 6   1133532.12025  23371236.929
  -2665022.473 5  -2079388.75223  25211851.129
  -8595219.105 7 -14524792.31327  21454450.653
   7130503.459 8 -12204707.17729  20651779.820
    663064.084 7   1312432.28927  21342755.388
   7673994.552 8 -11433343.54126  21691973.219
  -3686691.596 5    749310.15925  23987701.450
 92  8 28  0  5 30.0000000  0  7G 3G11G21G23G17G28G26
 -10736810.097 6   1221069.46625  23392614.800
  -2770869.183 5  -2161866.54923  25191712.061
  -8653365.296 8 -14570101.00627  21443385.163
   7149179.889 8 -12190154.11229  20655333.860
    719908.466 7   1356726.63327  21353572.290
   7617016.100 7 -11477742.31526  21681129.127
  -3610878.118 5    808385.58125  24002119.309
 92  8 28  0  6  0.0000000  0  7G 3G11G21G23G17G28G26
 -10624117.089 6   1308882.10725  23414059.314
  -2876685.595 6  -2244320.84523  25171577.040
  -8711131.794 8 -14615113.84027  21432394.382
   7168280.771 8 -12175270.31229  20658968.484
    777071.515 8   1401269.25527  21364451.158
   7560581.295 7 -11521717.46626  21670390.141
  -3534643.258 5    867789.42125  24016628.424
 92  8 28  0  6 30.0000000  0  7G 3G11G21G23G17G28G26
 -10511070.123 6   1396970.58725  23435569.843
  -2982466.834 5  -2326747.74823  25151438.152
  -8768493.035 8 -14659810.87227  21421479.958
   7187810.211 8 -12160052.55329  20662686.180
    834555.258 7   1446061.76527  21375389.356
   7504681.493 7 -11565275.72127  21659754.584
  -3457971.974 5    927533.20325  24031212.698
 92  8 28  0  7  0.0000000  0  7G 3G11G21G23G17G28G26
 -10397661.579 6   1485340.76225  23457150.373
  -3088200.894 5  -2409137.80123  25131317.431
  -8825428.089 7 -14704175.82827  21410643.660
   7207784.364 8 -12144488.26829  20666486.529
    892376.870 7   1491117.55827  21386390.390
   7449330.842 8 -11608406.08027  21649219.457
  -3380857.049 5    987622.72625  24045891.616
 92  8 28  0  7 30.0000000  0  7G 3G11G21G23G17G28G26
 -10283884.338 6   1573998.22725  23478802.763
  -3193876.587 6  -2491482.32224  25111214.668
  -8881911.902 8 -14748189.17727  21399893.132
   7228216.963 8 -12128566.75829  20670373.608
    950554.750 7   1536450.95427  21397464.603
   7394546.045 8 -11651095.51927  21638795.404
  -3303294.200 5   1048061.33425  24060643.773
 92  8 28  0  8  0.0000000  0  7G 3G11G21G23G17G28G26
 -10169740.364 6   1662941.48125  23500521.767
  -3299491.668 6  -2573779.69925  25091113.823
  -8937936.626 8 -14791844.75027  21389235.390
   7249115.720 8 -12112282.00129  20674347.267
   1009083.615 7   1582057.85727  21408601.833
   7340333.809 8 -11693338.79527  21628476.967
  -3225282.368 5   1108849.75624  24075495.281
 92  8 28  0  8 30.0000000  0  7G 3G11G21G23G17G28G26
 -10055225.997 6   1752173.32125  23522315.480
  -3405038.316 6  -2656023.71125  25071029.707
  -8993505.108 8 -14835144.82727  21378663.030
   7270498.213 8 -12095620.31029  20678418.179
   1067981.852 7   1627952.58127  21419809.874
   7286706.980 7 -11735125.91027  21618271.252
  -3146813.047 5   1169994.63324  24090424.826
 92  8 28  0  9  0.0000000  0  7G 3G11G21G23G17G28G26
  -9940347.423 6   1841689.00925  23544167.742
  -3510518.254 5  -2738215.85024  25050961.420
  -9048642.395 8 -14878108.92327  21368168.165
   7292350.368 8 -12078592.63629  20682577.350
   1127238.493 7   1674126.57727  21431084.949
   7233683.526 8 -11776442.86927  21608183.956
  -3067894.922 5   1231489.20923  24105437.863
 92  8 28  0  9 30.0000000  0  7G 3G11G21G23G17G28G26
  -9825108.930 6   1931485.12125  23566096.961
  -3615931.516 5  -2820355.94725  25030896.761
  -9103370.125 8 -14920753.87627  21357751.816
   7314669.018 8 -12061201.49329  20686823.550
   1186836.225 7   1720566.36527  21442428.316
   7181254.289 7 -11817296.78627  21598206.952
  -2988521.308 5   1293338.86623  24120550.610
 92  8 28  0 10  0.0000000  0  7G 3G11G21G23G17G28G26
  -9709518.288 6   2021555.71125  23588098.129
  -3721281.521 5  -2902446.73725  25010855.695
  -9157713.344 8 -14963099.21727  21347414.283
   7337449.409 8 -12043450.53529  20691159.239
   1246758.961 7   1767259.37527  21453828.763
   7129404.785 7 -11857698.98927  21588341.142
  -2908696.996 5   1355539.67723  24135740.854
 92  8 28  0 10 30.0000000  0  7G 3G11G21G23G17G28G26
  -9593578.547 6   2111898.24525  23610161.026
  -3826566.828 5  -2984487.09625  24990814.599
  -9211682.250 8 -15005152.87027  21337145.132
   7360680.835 8 -12025348.09829  20695579.289
   1306997.510 7   1814198.48827  21465294.026
   7078129.463 7 -11897653.73527  21578579.031
  -2828435.064 5   1418081.29223  24151015.130
 92  8 28  0 11  0.0000000  0  7G 3G11G21G23G17G28G26
  -9477287.291 6   2202514.69525  23632303.157
  -3931781.081 5  -3066472.15225  24970795.568
  -9265266.136 8 -15046906.50127  21326947.751
   7384354.719 7 -12006900.91429  20700083.550
   1367554.291 7   1861385.59527  21476816.639
   7027422.834 7 -11937165.38927  21568930.360
  -2747743.562 5   1480957.73324  24166368.761
 92  8 28  0 11 30.0000000  0  7G 3G11G21G23G17G28G26
  -9360636.853 6   2293411.09825  23654491.816
  -4036911.825 5  -3148392.08725  24950785.710
  -9318436.907 7 -15088338.23227  21316824.090
   7408495.002 8 -11988090.32129  20704680.238
   1428453.630 7   1908839.59627  21488405.656
   6977289.490 7 -11976230.31727  21559389.825
  -2666623.694 5   1544168.08724  24181803.336
 92  8 28  0 12  0.0000000  0  7G 3G11G21G23G17G28G26
  -9243638.957 6   2384578.11825  23676741.843
  -4141966.839 6  -3230253.06825  24930793.061
  -9371191.015 7 -15129445.29927  21306786.499
   7433085.616 8 -11968928.78629  20709359.219
   1489688.626 7   1956555.18127  21500058.409
   6927736.945 7 -12014842.66927  21549962.611
  -2585089.235 5   1607701.45523  24197320.174
 92  8 28  0 12 30.0000000  0  7G 3G11G21G23G17G28G26
  -9126320.138 6   2475995.30625  23699079.139
  -4246968.048 6  -3312072.09725  24910818.639
  -9423541.297 7 -15170237.67327  21296826.314
   7458089.232 7 -11949445.42129  20714116.685
   1551250.309 7   2004525.30227  21511775.348
   6878762.391 8 -12053004.62527  21540645.631
  -2503173.013 5   1671532.22323  24212912.679
 92  8 28  0 13  0.0000000  0  7G 3G11G21G23G17G28G26
  -9008695.797 6   2567650.55825  23721463.233
  -4351926.424 6  -3393857.77125  24890839.420
  -9475501.332 8 -15210725.98727  21286941.647
   7483484.654 7 -11929656.79229  20718948.590
   1613138.618 7   2052749.95927  21523545.559
   6830363.314 8 -12090718.17527  21531436.367
  -2420881.103 5   1735655.69224  24228572.578
 92  8 28  0 13 30.0000000  0  7G 3G11G21G23G17G28G26
  -8890776.080 6   2659535.89324  23743900.510
  -4456847.691 5  -3475614.53125  24870872.853
  -9527088.526 8 -15250923.76127  21277124.493
   7509268.810 8 -11909565.23629  20723854.694
   1675328.055 7   2101209.23226  21535385.293
   6782542.775 8 -12127980.92127  21522331.040
  -2338212.882 5   1800072.48424  24244306.046
 92  8 28  0 14  0.0000000  0  7G 3G11G21G23G17G28G26
  -8772568.517 6   2751645.64225  23766393.608
  -4561734.740 5  -3557344.62225  24850910.213
  -9578316.533 8 -15290841.65427  21267373.204
   7535420.115 7 -11889187.57529  20728829.300
   1737806.681 7   2149893.85926  21547270.565
   6735293.501 8 -12164798.48727  21513344.791
  -2255165.334 5   1864784.88024  24260100.222
 92  8 28  0 14 30.0000000  0  6G 3G11G21G23G17G28
  -8654071.405 6   2843980.91024  23788950.742
  -4666581.536 5  -3639043.32825  24830968.378
  -9629182.635 7 -15330477.55727  21257694.045
   7561935.290 8 -11868526.41029  20733875.946
   1800586.249 7   2198813.00527  21559222.961
   6688604.850 8 -12201179.25527  21504460.892
 92  8 28  0 15  0.0000000  0  6G 3G11G21G23G17G28
  -8535281.978 6   2936544.04124  23811550.627
  -4771380.621 5  -3720704.85725  24811021.147
  -9679685.529 7 -15369830.41427  21248080.780
   7588824.316 8 -11847573.90129  20738995.652
   1863657.941 7   2247959.76727  21571220.924
   6642463.751 8 -12237133.33327  21495674.514
 92  8 28  0 15 30.0000000  0  6G 3G11G21G23G17G28
  -8416197.264 6   3029337.26224  23834215.536
  -4876124.738 5  -3802323.51825  24791089.956
  -9729818.765 7 -15408895.25527  21238544.052
   7616095.997 8 -11826323.23729  20744183.321
   1927019.336 7   2297332.26427  21583280.076
   6596856.148 8 -12272671.71027  21486998.670
 92  8 28  0 16  0.0000000  0  6G 3G11G21G23G17G28
  -8296813.054 5   3122363.72024  23856930.870
  -4980804.945 5  -3883892.45625  24771164.819
  -9779567.360 7 -15447660.34327  21229076.546
   7643743.206 8 -11804779.96629  20749445.997
   1990683.458 7   2346940.66826  21595392.141
   6551782.778 8 -12307793.79727  21478425.625
 92  8 28  0 16 30.0000000  0  6G 3G11G21G23G17G28
  -8177125.520 5   3215626.70224  23879706.163
  -5085412.700 5  -3965404.90525  24751264.266
  -9828915.499 8 -15486113.40827  21219686.896
   7671786.851 8 -11782927.76029  20754781.824
   2054652.702 7   2396786.81026  21607568.032
   6507266.084 8 -12342482.11827  21469950.313
 92  8 28  0 17  0.0000000  0  6G 3G11G21G23G17G28
  -8057162.031 5   3309104.59324  23902532.781
  -5189971.295 6  -4046879.03725  24731364.882
  -9877878.780 8 -15524266.58227  21210370.036
   7700216.587 8 -11760774.72829  20760192.568
   2118900.774 7   2446850.26226  21619794.558
   6463294.084 8 -12376745.98827  21461582.116
 92  8 28  0 17 30.0000000  0  6G 3G11G21G23G17G28
  -7936921.825 5   3402798.16325  23925408.564
  -5294475.044 5  -4128310.41625  24711474.792
  -9926452.234 8 -15562115.98427  21201127.105
   7729036.190 8 -11738317.87729  20765671.635
   2183437.277 7   2497138.41726  21632074.746
   6419894.457 8 -12410563.86427  21453320.825
 92  8 28  0 18  0.0000000  0  6G 3G11G21G23G17G28
  -7816406.010 5   3496706.47625  23948343.797
  -5398920.309 5  -4209696.24525  24691594.984
  -9974626.523 8 -15599654.34527  21191956.424
   7758248.828 8 -11715554.79329  20771236.472
   2248262.515 7   2547651.59226  21644411.206
   6377096.703 8 -12443912.73527  21445181.520
 92  8 28  0 18 30.0000000  0  6G 3G11G21G23G17G28
  -7695614.076 5   3590829.96825  23971336.259
  -5503302.158 6  -4291032.66025  24671738.021
 -10022395.355 8 -15636876.78627  21182870.284
   7787866.918 7 -11692475.73229  20776870.472
   2313388.173 7   2598398.84626  21656800.609
   6334910.317 8 -12476785.24727  21437157.185
 92  8 28  0 19  0.0000000  0  6G 3G11G21G23G17G28
  -7574549.481 5   3685165.91825  23994368.894
  -5607619.211 6  -4372318.65625  24651890.921
 -10069773.874 8 -15673795.07427  21173854.506
   7817867.853 8 -11669098.41329  20782581.998
   2378807.322 7   2649374.80526  21669251.919
   6293311.567 8 -12509199.82827  21429239.216
 92  8 28  0 19 30.0000000  0  6G 3G11G21G23G17G28
  -7453217.704 5   3779709.96125  24017463.586
  -5711872.768 5  -4453555.08725  24632050.506
 -10116779.139 8 -15710422.52227  21164908.609
   7848243.315 8 -11645429.21828  20788358.069
   2444507.803 7   2700569.93926  21681753.265
   6252296.677 8 -12541159.47327  21421438.647
 92  8 28  0 20  0.0000000  0  6G 3G11G21G23G17G28
  -7331631.537 5   3874452.31325  24040603.756
  -5816070.402 5  -4534747.96525  24612217.406
 -10163424.323 8 -15746769.36827  21156028.936
   7878989.128 8 -11621471.42028  20794210.198
   2510488.378 7   2751983.36626  21694310.341
   6211849.296 8 -12572676.89927  21413737.938
 92  8 28  0 20 30.0000000  0  6G 3G11G21G23G17G28
  -7209801.652 5   3969384.53825  24063776.124
  -5920218.088 6  -4615901.88825  24592406.551
 -10209729.953 8 -15782851.66327  21147219.894
   7910093.226 8 -11597234.46728  20800127.112
   2576744.146 7   2803611.25426  21706919.582
   6171956.727 8 -12603762.00827  21406146.023
 92  8 28  0 21  0.0000000  0  6G 3G11G21G23G17G28
  -7087734.146 5   4064501.98725  24087016.665
  -6024317.684 6  -4697018.42025  24572591.889
 -10255720.518 8 -15818688.43527  21138467.184
   7941553.348 8 -11572720.08028  20806115.406
   2643270.765 7   2855450.14626  21719579.368
   6132632.478 8 -12634404.26427  21398659.606
 92  8 28  0 21 30.0000000  0  6G 3G11G21G23G17G28
  -6965423.934 5   4159808.47825  24110290.034
  -6128358.867 6  -4778089.35525  24552791.136
 -10301376.782 8 -15854264.70827  21129777.100
   7973387.406 8 -11547914.31928  20812171.843
   2710091.928 7   2907518.58326  21732292.487
   6093908.122 8 -12664579.07727  21391294.005
 92  8 28  0 22  0.0000000  0  6G 3G11G21G23G17G28
  -6842862.240 5   4255311.00925  24133606.332
  -6232328.255 6  -4859104.36125  24533009.571
 -10346684.627 8 -15889569.48527  21121160.645
   8005593.453 8 -11522818.69328  20818302.119
   2777222.879 7   2959828.39326  21745068.173
   6055783.886 8 -12694286.23027  21384035.280
 92  8 28  0 22 30.0000000  0  6G 3G11G21G23G17G28
  -6720049.212 5   4351009.35125  24156983.788
  -6336221.264 6  -4940059.81225  24513244.524
 -10391632.871 8 -15924594.06827  21112603.519
   8038158.724 8 -11497443.15628  20824496.461
   2844651.718 7   3012370.32926  21757901.029
   6018255.488 8 -12723529.12427  21376892.995
 92  8 28  0 23  0.0000000  0  6G 3G11G21G23G17G28
  -6596989.249 5   4446900.05825  24180401.416
  -6440037.203 6  -5020955.25625  24493485.713
 -10436208.627 7 -15959328.38827  21104120.951
   8071086.906 8 -11471784.83228  20830767.670
   2912366.694 7   3065135.22926  21770784.849
   5981308.094 8 -12752319.28427  21369866.909
 92  8 28  0 23 30.0000000  0  6G 3G11G21G23G17G28
  -6473689.029 5   4542978.09524  24203864.973
  -6543778.215 6  -5101792.32825  24473740.932
 -10480394.341 8 -15993758.78527  21095714.351
   8104352.925 8 -11445863.25628  20837092.871
   2980352.754 7   3118111.37026  21783725.001
   5944913.879 8 -12780678.39127  21362935.408
 92  8 28  0 24  0.0000000  0  6G 3G11G21G23G17G28
  -6350153.218 5   4639239.57724  24227371.160
  -6647444.162 6  -5182570.98825  24454016.327
 -10524193.072 8 -16027887.63227  21087376.583
   8137950.218 8 -11419683.54928  20843489.842
   3048593.882 7   3171286.25926  21796707.573
   5909062.060 8 -12808614.84827  21356120.076
 92  8 28  0 24 30.0000000  0  6G 3G11G21G23G17G28
  -6226385.759 5   4735681.78024  24250917.069
  -6751034.140 6  -5263290.34525  24434303.803
 -10567596.490 8 -16061708.44627  21079116.881
   8171879.962 8 -11393244.77328  20849944.644
   3117077.445 7   3224650.07026  21809741.860
   5873770.590 8 -12836114.67827  21349400.498
 92  8 28  0 25  0.0000000  0  6G 3G11G21G23G17G28
  -6102382.230 5   4832307.77123  24274518.471
  -6854538.849 6  -5343943.26425  24414604.711
 -10610608.743 8 -16095224.46727  21070933.236
   8206160.632 8 -11366532.57928  20856465.999
   3185818.444 7   3278214.45926  21822820.216
   5839053.701 8 -12863166.78327  21342794.990
 92  8 28  0 25 30.0000000  0  6G 3G11G21G23G17G28
  -5978147.615 5   4929113.77423  24298162.532
  -6957958.136 6  -5424529.68925  24394923.876
 -10653236.877 8 -16128441.16527  21062822.801
   8240781.790 8 -11339555.03528  20863058.855
   3254827.709 7   3331987.90226  21835951.455
   5804931.189 8 -12889755.72627  21336301.246
 92  8 28  0 26  0.0000000  0  6G 3G11G21G23G17G28
  -5853685.259 5   5026097.33823  24321841.460
  -7061290.895 6  -5505048.64825  24375255.092
 -10695491.727 8 -16161367.00827  21054782.697
   8275764.584 7 -11312295.70128  20869715.357
   3324107.843 7   3385972.42126  21849137.227
   5771417.595 8 -12915870.20027  21329922.682
 92  8 28  0 26 30.0000000  0  6G 3G11G21G23G17G28
  -5728991.676 5   5123261.01023  24345569.253
  -7164528.464 6  -5585493.42125  24355616.887
 -10737385.084 8 -16194011.14327  21046813.464
   8311128.820 8 -11284739.16428  20876444.918
   3393673.268 7   3440179.21026  21862375.013
   5738521.278 8 -12941503.68427  21323660.287
 92  8 28  0 27  0.0000000  0  6G 3G11G21G23G17G28
  -5604064.979 5   5220606.40823  24369344.264
  -7267664.072 6  -5665858.70825  24335989.145
 -10778925.030 8 -16226379.90427  21038903.620
   8346884.791 8 -11256877.36028  20883249.937
   3463539.570 7   3494620.46426  21875670.419
   5706241.944 8 -12966656.39027  21317519.878
 92  8 28  0 27 30.0000000  0  6G 3G11G21G23G17G28
  -5478911.317 5   5318128.53723  24393171.289
  -7370699.090 6  -5746145.70325  24316385.597
 -10820106.022 8 -16258468.97327  21031069.713
   8383015.747 8 -11228723.37228  20890124.178
   3533688.385 7   3549281.87526  21889018.798
   5674571.149 8 -12991334.89727  21311492.221
 92  8 28  0 28  0.0000000  0  6G 3G11G21G23G17G28
  -5353537.341 5   5415822.45523  24417010.545
  -7473634.736 6  -5826355.24125  24296797.037
 -10860939.909 8 -16290287.54727  21023294.986
   8419526.156 8 -11200273.69428  20897072.558
   3604107.917 7   3604154.22626  21902417.992
   5643482.871 8 -13015559.52427  21305577.046
 92  8 28  0 28 30.0000000  0  5G11G21G23G17G28
  -7576467.884 6  -5906484.87825  24277226.436
 -10901419.249 8 -16321829.85927  21015595.836
   8456401.926 7 -11171539.31428  20904088.451
   3674793.067 7   3659233.55126  21915869.229
   5612979.916 8 -13039328.04427  21299773.783
 92  8 28  0 29  0.0000000  0  5G11G21G23G17G28
  -7679199.096 6  -5986535.06725  24257681.407
 -10941516.677 8 -16353074.58327  21007963.839
   8493610.172 8 -11142545.87728  20911168.949
   3745731.962 7   3714510.60626  21929371.642
   5583063.156 8 -13062639.76227  21294079.166
 92  8 28  0 29 30.0000000  0  5G11G21G23G17G28
  -7781821.482 6  -6066500.52925  24238156.433
 -10981222.918 8 -16384014.48228  21000409.189
   8531143.095 8 -11113299.45428  20918311.115
   3816923.160 7   3769984.22626  21942917.974
   5553735.440 8 -13085492.52727  21288498.139
 92  8 28  0 30  0.0000000  0  5G11G21G23G17G28
  -7884330.240 6  -6146377.42625  24218639.225
 -11020537.605 8 -16414649.27828  20992927.629
   8569007.864 7 -11083794.42128  20925515.157
   3888381.305 7   3825665.89926  21956518.029
   5525018.342 8 -13107869.46527  21283035.171
 92  8 28  0 30 30.0000000  0  5G11G21G23G17G28
  -7986715.950 6  -6226158.39025  24199167.345
 -11059443.021 8 -16444965.94028  20985524.044
   8607186.639 8 -11054044.74328  20932781.437
   3960103.837 7   3881553.56826  21970163.023
   5496942.987 8 -13129746.35627  21277693.349
 92  8 28  0 31  0.0000000  0  5G11G21G23G17G28
  -8088976.706 6  -6305842.05925  24179695.255
 -11097947.172 8 -16474968.37528  20978195.617
   8645675.226 7 -11024053.62628  20940105.397
   4032104.928 7   3937658.30726  21983860.510
   5469508.224 8 -13151124.06727  21272474.203
 92  8 28  0 31 30.0010000  0  5G11G21G23G17G28
  -8191117.575 6  -6385432.27425  24160266.875
 -11136074.930 8 -16504678.28728  20970942.169
   8684492.490 8 -10993806.41028  20947493.932
   4104395.985 7   3993988.98526  21997619.785
   5442710.262 8 -13172005.58627  21267371.465
 92  8 28  0 32  0.0010000  0  5G11G21G23G17G28
  -8293134.078 6  -6464925.60725  24140854.384
 -11173836.210 8 -16534102.62728  20963755.184
   8723634.432 8 -10963306.17228  20954942.425
   4176975.537 7   4050544.47126  22011429.454
   5416558.535 8 -13192383.55227  21262397.339
 92  8 28  0 32 30.0010000  0  4G11G23G17G28
  -8395029.945 6  -6544324.89525  24121459.911
   8763099.830 7 -10932553.92128  20962450.787
   4249845.561 7   4107326.27426  22025299.053
   5391025.409 8 -13212279.46227  21257536.684
 92  8 28  0 33  0.0010000  0  5G11G21G23G17G28
  -8496808.100 6  -6623632.48625  24102091.729
  21199965.66718    -29826.25131  20949587.592
   8802906.273 7 -10901535.91828  20970027.652
   4323014.372 7   4164340.92926  22039224.173
   5366093.140 8 -13231707.19027  21252791.569
 92  8 28  0 33 30.0010000  0  6G 3G11G21G23G17G28
    123407.17715    112245.81631  24682136.742
  -8598465.072 6  -6702845.67625  24082755.685
  21163276.278 8    -58413.50321  20942611.392
   8843069.740 8 -10870239.72928  20977667.833
   4396470.102 7   4221579.13826  22053196.630
   5341761.599 8 -13250666.82827  21248160.495
 92  8 28  0 34  0.0010000  0  6G 3G11G21G23G17G28
    251252.018 5    211864.88421  24706462.112
  -8699993.396 6  -6781958.59725  24063430.224
  21126968.605 8    -86704.97725  20935700.846
   8883587.452 7 -10838667.45728  20985377.176
   4470205.120 7   4279034.98426  22067227.936
   5318027.469 8 -13269160.93827  21243645.740
 92  8 28  0 34 30.0010000  0  6G 3G11G21G23G17G28
    379282.592 5    311629.17321  24730820.309
  -8801391.239 6  -6860969.84125  24044134.202
  21091053.398 8   -114690.84326  20928864.109
   8924460.408 7 -10806818.41028  20993156.430
   4544207.651 7   4336699.25926  22081314.884
   5294884.902 8 -13287194.09927  21239240.590
 92  8 28  0 35  0.0010000  0  6G 3G11G21G23G17G28
    507503.035 5    411541.30121  24755220.807
  -8902649.437 6  -6939872.26225  24024864.832
    138285.33718    -13793.50931  20922104.478
   8965690.139 8 -10774691.35328  21001003.048
   4618474.945 7   4394569.83926  22095448.599
   5272366.791 8 -13304740.66727  21234958.834
 92  8 28  0 35 30.0010000  0  6G 3G11G21G23G17G28
    635906.974 5    511596.07322  24779653.443
  -9003769.446 6  -7018667.04225  24005620.045
    103165.016 8    -41158.69825  20915417.608
   9007255.548 8 -10742302.70428  21008912.652
   4692995.324 7   4452637.68826  22109624.286
   5250473.656 8 -13321800.24127  21230791.449
 92  8 28  0 36  0.0010000  0  6G 3G11G21G23G17G28
    764491.141 5    611791.44822  24804121.274
  -9104749.133 6  -7097352.44425  23986405.927
     68424.156 8    -68229.48426  20908814.469
   9049127.522 8 -10709675.18928  21016878.947
   4767767.965 7   4510902.06326  22123859.061
   5229213.177 8 -13338366.83527  21226743.621
 92  8 28  0 36 30.0010000  0  6G 3G11G21G23G17G28
    893248.136 5    712121.36022  24828622.113
  -9205590.678 6  -7175930.17125  23967218.730
     34043.120 8    -95019.86826  20902270.959
   9091295.835 8 -10676816.76828  21024903.013
   4842792.576 7   4569362.75225  22138129.062
   5208591.728 8 -13354435.48727  21222818.289
 92  8 28  0 37  0.0010000  0  5G 3G11G23G17G28
   1022180.200 5    812587.75722  24853166.841
  -9306286.660 6  -7254394.52425  23948054.797
   9133750.825 8 -10643734.96328  21032985.687
   4918073.812 7   4628023.45225  22152458.992
   5188605.879 8 -13370008.85427  21219017.520
 92  8 28  0 37 30.0010000  0  6G 3G11G21G23G17G28
   1151293.508 5    913195.23022  24877728.087
  -9406826.123 6  -7332736.91825  23928924.021
    118120.37218    -23558.13831  20889383.900
   9176496.547 8 -10610426.58628  21041118.787
   4993621.804 7   4686891.98926  22166834.820
   5169250.280 7 -13385091.13027  21215333.550
 92  8 28  0 38  0.0010000  0  6G 3G11G21G23G17G28
   1280581.701 5   1013939.27722  24902334.423
  -9507209.489 6  -7410957.65225  23909811.832
     84817.876 8    -49508.71721  20883047.157
   9219546.330 8 -10576881.30728  21049312.264
   5069432.708 7   4745965.39925  22181258.045
   5150514.752 8 -13399690.23727  21211769.498
 92  8 28  0 38 30.0010000  0  6G 3G11G21G23G17G28
   1410038.230 5   1114814.20922  24926964.861
  -9607438.285 6  -7489057.94725  23890742.453
     51891.813 8    -75162.81821  20876783.534
   9262911.400 8 -10543090.34528  21057564.262
   5145497.691 7   4805236.79425  22195738.500
   5132390.050 8 -13413813.37427  21208322.604
 92  8 28  0 39  0.0010000  0  6G 3G11G21G23G17G28
   1539661.006 5   1215818.88622  24951636.072
  -9707509.580 6  -7567035.53125  23871703.953
     19351.056 8   -100518.67521  20870588.712
   9306599.630 8 -10509047.57328  21065876.487
   5221811.263 6   4864701.90526  22210256.549
   5114868.160 8 -13427466.78727  21204986.184
 92  8 28  0 39 30.0010000  0  6G 3G11G21G23G17G28
   1669442.758 5   1316947.24222  24976327.099
  -9807425.307 6  -7644891.87525  23852689.707
    -12790.825 8   -125564.55625  20864473.426
   9350623.972 8 -10474742.88928  21074253.828
   5298367.092 7   4924355.77026  22224826.823
   5097952.817 8 -13440647.55627  21201763.924
 92  8 28  0 40  0.0010000  0  6G 3G11G21G23G17G28
   1799383.417 5   1418199.56522  25001051.492
  -9907179.956 6  -7722622.70725  23833703.880
    -44528.031 8   -150294.82326  20858434.676
   9394977.872 8 -10440181.38928  21082696.403
   5375163.599 7   4984197.18026  22239436.608
   5081655.276 8 -13453346.92027  21198668.028
 92  8 28  0 40 30.0010000  0  5G11G21G23G17G28
 -10006764.425 6  -7800220.94425  23814756.157
    -75879.209 8   -174724.30226  20852468.417
   9439650.767 8 -10405371.35228  21091192.821
   5452209.338 7   5044232.78326  22254103.115
   5065993.079 8 -13465551.22827  21195684.283
 92  8 28  0 41  0.0010000  0  5G11G21G23G17G28
 -10106175.529 6  -7877684.10025  23795840.273
   -106844.924 8   -198853.39927  20846575.876
   9484640.515 8 -10370314.41128  21099757.592
   5529514.422 7   5104470.52226  22268808.834
   5050962.660 8 -13477263.23727  21192826.062
 92  8 28  0 41 30.0010000  0  5G11G21G23G17G28
 -10205414.178 6  -7955012.84325  23776951.579
   -137438.859 8   -222692.81627  20840756.844
   9529930.998 8 -10335023.12228  21108376.505
   5607088.723 7   5164918.00626  22283574.512
   5036580.219 8 -13488470.31627  21190086.618
 92  8 28  0 42  0.0010000  0  5G11G21G23G17G28
 -10304478.345 6  -8032205.65425  23758098.591
   -167682.098 8   -246258.95227  20834997.531
   9575520.424 7 -10299498.88828  21117047.672
   5684939.509 6   5225580.91225  22298391.875
   5022847.195 8 -13499171.37527  21187476.415
 92  8 28  0 42 30.0010000  0  5G11G21G23G17G28
 -10403366.826 6  -8109261.54925  23739285.055
   -197579.645 8   -269555.74028  20829308.250
   9621429.860 8 -10263725.31928  21125787.132
   5763080.696 6   5286470.10426  22313257.473
   5009760.544 8 -13509368.74727  21184984.750
 92  8 28  0 43  0.0010000  0  5G11G21G23G17G28
 -10502079.581 6  -8186180.53825  23720501.199
   -227115.546 8   -292570.68828  20823688.400
   9667657.470 8 -10227703.79628  21134584.062
   5841514.546 6   5347587.37926  22328182.071
   4997327.478 8 -13519056.83927  21182617.859
 92  8 28  0 43 30.0010000  0  5G11G21G23G17G28
 -10600611.407 6  -8262958.51725  23701755.326
   -256287.195 8   -315301.82328  20818137.563
   9714200.296 8 -10191436.65428  21143439.332
   5920237.736 7   5408930.10125  22343165.219
   4985554.946 8 -13528230.22927  21180379.189
 92  8 28  0 44  0.0010000  0  5G11G21G23G17G28
 -10698954.974 6  -8339589.79925  23683040.512
   -285076.188 7   -337734.79028  20812656.997
   9761056.236 8 -10154925.53327  21152357.378
   5999246.761 6   5470495.56525  22358201.279
   4974437.759 8 -13536892.99727  21178261.964
 92  8 28  0 44 30.0010000  0  5G11G21G23G17G28
 -10797105.983 6  -8416071.07025  23664362.693
   -313461.787 8   -359853.41728  20807256.776
   9808209.851 8 -10118182.46527  21161331.275
   6078534.508 7   5532278.20725  22373288.185
   4963974.964 8 -13545045.78927  21176269.813
 92  8 28  0 45  0.0010000  0  5G11G21G23G17G28
 -10895062.015 6  -8492400.40225  23645716.681
   -341442.435 8   -381656.50428  20801930.933
   9855637.408 8 -10081225.91827  21170355.388
   6158078.129 7   5594260.22225  22388426.235
   4954157.985 8 -13552695.37127  21174402.646
 92  8 28  0 45 30.0010000  0  5G11G21G23G17G28
 -10992808.196 6  -8568566.19625  23627120.405
   -369011.453 8   -403138.83528  20796686.304
   9903360.087 7 -10044039.41027  21179436.761
   6237874.391 6   5656439.08725  22403609.254
   4944986.090 8 -13559842.29627  21172659.713
 92  8 28  0 46  0.0010000  0  5G11G21G23G17G28
 -11090348.348 6  -8644571.45525  23608555.967
   -396173.986 8   -424304.44028  20791517.162
   9951382.283 7 -10006619.53827  21188570.838
   6317906.650 6   5718801.84625  22418836.792
   4936445.121 8 -13566497.58127  21171033.279
 92  8 28  0 46 30.0010000  0  5G11G21G23G17G28
 -11187688.296 6  -8720420.74625  23590033.530
   -422950.632 8   -445169.33228  20786420.630
   9999708.806 8  -9968962.50127  21197773.867
   6398154.896 6   5781332.95125  22434105.642
   4928518.819 8 -13572673.90127  21169523.224
 92  8 28  0 47  0.0010000  0  5G11G21G23G17G28
 -11284822.717 6  -8796109.82525  23571549.556
   -449358.972 8   -465747.25128  20781403.394
  10048348.706 7  -9931061.28027  21207029.809
   6478629.326 7   5844040.23725  22449422.368
   4921217.488 8 -13578363.23827  21168135.635
 92  8 28  0 47 30.0010000  0  5G11G21G23G17G28
 -11381747.811 6  -8871635.82125  23553105.904
   -475395.731 8   -486035.62228  20776439.130
  10097309.639 7  -9892909.91127  21216342.772
   6559341.842 6   5906933.09625  22464782.535
   4914556.022 8 -13583553.99527  21166866.913
 92  8 28  0 48  0.0010000  0  5G11G21G23G17G28
 -11478465.873 6  -8947000.46325  23534697.508
   -501073.233 8   -506044.04228  20771556.531
  10146569.875 8  -9854525.32127  21225718.271
   6640302.753 6   5970019.52525  22480188.629
   4908532.171 8 -13588247.88227  21165720.597
 92  8 28  0 48 30.0010000  0  5G11G21G23G17G28
 -11574980.600 6  -9022206.70725  23516335.700
   -526401.891 8   -525780.64028  20766736.288
  10196105.036 7  -9815926.48127  21235141.857
   6721519.336 6   6033305.17025  22495644.609
   4903161.363 8 -13592432.92327  21164696.416
 92  8 28  0 49  0.0010000  0  5G11G21G23G17G28
 -11671286.652 6  -9097250.34125  23498008.847
   -551378.221 8   -545242.70828  20761983.438
  10245915.930 7  -9777112.81227  21244623.243
   6803003.415 6   6096799.20225  22511145.288
   4898453.952 8 -13596101.03627  21163805.762
 92  8 28  0 49 30.0010000  0  5G11G21G23G17G28
 -11767379.091 6  -9172127.50225  23479724.925
   -575989.758 8   -564420.52128  20757301.429
  10296010.016 7  -9738078.45927  21254154.845
   6884747.914 6   6160496.19725  22526704.727
   4894401.467 8 -13599258.80327  21163034.036
 92  8 28  0 50  0.0010000  0  5G11G21G23G17G28
 -11863251.816 6  -9246833.48325  23461481.055
   -600233.959 8   -583312.08628  20752685.615
  10346391.190 8  -9698820.40827  21263740.918
   6966743.708 6   6224389.00925  22542305.267
   4891001.098 8 -13601908.43127  21162387.354
 92  8 28  0 50 30.0010000  0  5G11G21G23G17G28
 -11958904.470 6  -9321367.97525  23443274.419
   -624105.885 8   -601913.57428  20748143.969
  10397068.105 8  -9659331.91427  21273386.351
   7048981.877 6   6288470.67025  22557954.703
   4888250.854 8 -13604051.47827  21161861.578
 92  8 28  0 51  0.0010000  0  5G11G21G23G17G28
 -12054333.380 6  -9395728.10425  23425119.317
   -647591.823 8   -620214.30828  20743674.483
  10448036.320 8  -9619616.40927  21283087.755
   7131454.070 6   6352734.66625  22573653.065
   4886136.264 8 -13605699.21127  21161457.878
 92  8 28  0 51 30.0010000  0  5G11G21G23G17G28
 -12149529.402 6  -9469906.76425  23407003.549
   -670674.950 8   -638201.13128  20739284.622
  10499285.968 8  -9579681.61427  21292837.455
   7214168.878 7   6417187.75025  22589386.533
   4884673.037 8 -13606839.38427  21161182.548
 92  8 28  0 52  0.0010000  0  5G11G21G23G17G28
 -12244484.428 6  -9543897.69325  23388933.858
   -693351.564 8   -655871.21428  20734965.512
  10550802.406 8  -9539538.93827  21302642.078
   7297132.692 7   6481834.89125  22605180.889
   4883869.219 8 -13607465.73827  21161022.909
 92  8 28  0 52 30.0010000  0  5G11G21G23G17G28
 -12339194.229 6  -9617697.46825  23370907.697
   -715630.100 8   -673231.10128  20730727.556
  10602579.184 8  -9499193.40927  21312493.168
   7380365.434 6   6546691.56525  22621018.415
   4883736.334 8 -13607569.29627  21161004.501
 92  8 28  0 53  0.0010000  0  5G11G21G23G17G28
 -12433657.433 6  -9691305.13425  23352935.079
   -737522.958 8   -690290.46428  20726560.831
  10654612.516 8  -9458647.95127  21322395.703
   7463860.293 6   6611752.42725  22636904.867
   4884275.586 8 -13607149.09227  21161106.221
 92  8 28  0 53 30.0010000  0  5G11G21G23G17G28
 -12527871.577 6  -9764718.72225  23335008.510
   -759050.869 8   -707065.44628  20722464.436
  10706914.847 8  -9417892.90327  21332346.234
   7547628.173 6   6677026.06825  22652847.050
   4885488.041 8 -13606204.31827  21161336.012
 92  8 28  0 54  0.0010000  0  5G11G21G23G17G28
 -12621841.454 6  -9837941.92925  23317126.099
   -780234.098 8   -723571.84329  20718434.117
  10759491.693 8  -9376923.93127  21342353.846
   7631656.606 6   6742502.75825  22668837.920
   4887359.012 8 -13604746.41727  21161689.767
 92  8 28  0 54 30.0010000  0  5G11G21G23G17G28
 -12715560.826 6  -9910969.99125  23299291.386
   -801063.606 8   -739802.62628  20714471.640
  10812365.759 8  -9335723.35927  21352415.091
   7715950.586 6   6808186.33625  22684879.215
   4889897.568 8 -13602768.32027  21162174.382
 92  8 28  0 55  0.0010000  0  5G11G21G23G17G28
 -12809028.184 6  -9983801.70025  23281498.314
   -821527.938 8   -755748.85129  20710573.918
  10865541.974 8  -9294287.34427  21362530.778
   7800495.109 6   6874065.15825  22700966.798
   4893079.936 8 -13600288.54727  21162780.712
 92  8 28  0 55 30.0010000  0  5G11G21G23G17G28
 -12902239.427 6 -10056433.77125  23263765.920
   -841608.821 8   -771396.27429  20706757.410
  10919018.334 7  -9252617.46227  21372706.363
   7885290.736 6   6940139.64725  22717101.928
   4896911.244 8 -13597303.12327  21163510.467
 92  8 28  0 56  0.0010000  0  5G11G21G23G17G28
 -12995193.329 6 -10128865.30925  23246079.514
   -861290.269 8   -786732.46629  20703008.386
  10972789.511 8  -9210717.85127  21382940.888
   7970314.763 6   7006392.10025  22733280.527
   4901398.752 8 -13593806.35327  21164365.415
 92  8 28  0 56 30.0010000  0  5G11G21G23G17G28
 -13087881.859 6 -10201090.08525  23228440.955
   -880558.643 8   -801746.77229  20699340.035
  11026845.590 7  -9168596.22627  21393226.288
   8055567.832 6   7072823.02725  22749503.646
   4906540.401 8 -13589799.87127  21165346.545
 92  8 28  0 57  0.0010000  0  5G11G21G23G17G28
 -13180292.969 7 -10273098.73425  23210853.900
   -899415.562 8   -816440.46129  20695752.599
  11081168.505 8  -9126266.69227  21403567.958
   8141051.685 6   7139433.77125  22765772.604
   4912347.815 8 -13585274.62327  21166448.882
 92  8 28  0 57 30.0010000  0  5G11G21G23G17G28
 -13272421.171 6 -10344886.92425  23193323.296
   -917865.737 8   -830817.21429  20692244.097
  11135748.349 8  -9083736.96627  21413952.229
   8226767.785 6   7206225.50325  22782084.761
   4918841.306 8 -13580214.75127  21167684.207
 92  8 28  0 58  0.0010000  0  5G11G21G23G17G28
 -13364265.087 7 -10416453.56625  23175844.317
   -935925.704 8   -844889.90329  20688808.146
  11190576.230 8  -9041013.94727  21424385.606
   8312720.958 6   7273201.95625  22798442.637
   4926001.732 8 -13574635.21427  21169045.745
 92  8 28  0 58 30.0010000  0  5G11G21G23G17G28
 -13455813.307 7 -10487789.80825  23158425.206
   -953603.853 8   -858665.06529  20685442.226
  11245661.469 7  -8998090.39827  21434867.340
   8398929.135 6   7340377.12925  22814838.766
   4933816.100 8 -13568546.08827  21170530.767
 92  8 28  0 59  0.0010000  0  5G11G21G23G17G28
 -13547069.848 7 -10558898.74225  23141057.329
   -970910.806 8   -872151.00529  20682147.717
  11301009.781 7  -8954961.85227  21445399.439
   8485379.414 6   7407740.92225  22831292.725
   4942281.633 8 -13561949.56227  21172143.560
 92  8 28  0 59 30.0010000  0  5G11G21G23G17G28
 -13638033.622 6 -10629779.55925  23123745.754
   -987848.629 8   -885349.30228  20678923.779
  11356656.294 8  -8911600.94827  21455989.937
   8572078.124 6   7475298.33825  22847792.912
   4951384.890 8 -13554856.11927  21173876.630
 92  8 28  1  0  0.0010000  0  5G11G21G23G17G28
 -13728700.687 7 -10700429.19525  23106490.390
  -1004411.683 8   -898255.55728  20675776.108
  11412609.024 8  -8868001.41627  21466631.940
   8659028.708 6   7543051.99425  22864341.366
   4961117.510 8 -13547272.24227  21175730.097
 92  8 28  1  0 30.0010000  0  5G11G21G23G17G28
 -13819076.214 7 -10770851.65825  23089296.663
  -1020597.806 8   -910868.11728  20672691.154
  11468867.689 7  -8824163.50027  21477340.317
   8746215.977 6   7610990.04725  22880926.844
   4971497.573 8 -13539183.89627  21177704.800
 92  8 28  1  1  0.0010000  0  5G11G21G23G17G28
 -13909162.100 7 -10841048.40225  23072153.750
  -1036406.383 8   -923186.48228  20669688.283
  11525426.182 8  -8780091.95227  21488107.393
   8833648.370 6   7679119.17325  22897571.621
   4982542.859 8 -13530577.19527  21179805.146
 92  8 28  1  1 30.0010000  0  5G11G21G23G17G28
 -13998959.170 7 -10911020.13125  23055068.878
  -1051834.175 8   -935208.12529  20666748.788
  11582267.389 8  -8735800.13627  21498921.596
   8921340.273 6   7747450.48525  22914247.816
   4994251.982 8 -13521453.19927  21182033.473
 92  8 28  1  2  0.0010000  0  5G11G21G23G17G28
 -14088452.639 7 -10980755.26525  23038033.651
  -1066861.826 8   -946917.99029  20663890.746
  11639364.378 8  -8691308.96027  21509789.762
   9009292.885 6   7815984.97825  22930997.161
   5006650.702 8 -13511791.85427  21184393.799
 92  8 28  1  2 30.0010000  0  5G11G21G23G17G28
 -14177638.462 7 -11050250.65925  23021063.329
  -1081495.627 8   -958320.92429  20661103.216
  11696710.959 8  -8646623.30827  21520702.118
   9097512.852 6   7884727.78325  22947774.866
   5019750.747 7 -13501584.01527  21186885.344
 92  8 28  1  3  0.0010000  0  5G11G21G23G17G28
 -14266520.661 7 -11119509.46425  23004152.457
  -1095747.297 8   -969426.13029  20658392.373
  11754288.804 8  -8601757.46927  21531659.382
   9185990.922 6   7953671.68325  22964620.924
   5033523.952 8 -13490851.66027  21189509.967
 92  8 28  1  3 30.0010000  0  5G11G21G23G17G28
 -14355097.504 6 -11188530.35425  22987298.454
  -1109621.489 8   -980237.18129  20655755.008
  11812086.615 8  -8556720.22727  21542653.671
   9274709.823 6   8022803.25325  22981497.890
   5047960.677 8 -13479602.27027  21192252.319
 92  8 28  1  4  0.0010000  0  5G11G21G23G17G28
 -14443365.832 7 -11257310.83325  22970497.186
  -1123127.506 8   -990761.33829  20653183.029
  11870105.953 8  -8511510.35427  21553695.567
   9363655.555 6   8092111.61025  22998428.849
   5063058.258 8 -13467837.91227  21195130.297
 92  8 28  1  4 30.0010000  0  5G11G21G23G17G28
 -14531325.298 7 -11325850.62925  22953756.805
  -1136268.088 8  -1001000.74929  20650681.261
  11928366.416 8  -8466112.58527  21564781.532
   9452829.344 6   8161597.62325  23015394.884
   5078801.581 8 -13455570.38727  21198122.885
 92  8 28  1  5  0.0010000  0  5G11G21G23G17G28
 -14618975.838 7 -11394149.74925  22937085.166
  -1149042.842 8  -1010955.09329  20648253.242
  11986871.764 7  -8420524.00527  21575915.465
   9542217.076 6   8231250.31625  23032406.337
   5095175.900 8 -13442811.18227  21201238.568
 92  8 28  1  5 30.0010000  0  5G11G21G23G17G28
 -14706313.526 7 -11462205.03025  22920461.765
  -1161446.856 8  -1020620.54729  20645888.299
  12045625.845 8  -8374741.61327  21587094.006
   9631827.132 6   8301076.33925  23049459.671
   5112190.532 8 -13429553.02327  21204479.384
 92  8 28  1  6  0.0010000  0  5G11G21G23G17G28
 -14793328.416 7 -11530008.80825  22903900.180
  -1173470.187 8  -1029989.37029  20643601.362
  12104649.639 8  -8328749.06227  21598328.189
   9721669.378 6   8371083.28025  23066558.064
   5129852.641 8 -13415790.33927  21207839.368
 92  8 28  1  6 30.0010000  0  5G11G21G23G17G28
 -14880015.805 7 -11597557.41125  22887405.899
  -1185115.173 8  -1039063.38229  20641390.483
  12163951.576 8  -8282539.76027  21609613.906
   9811755.374 6   8441280.12425  23083697.319
   5148165.071 8 -13401520.92727  21211320.229
 92  8 28  1  7  0.0010000  0  5G11G21G23G17G28
 -14966372.681 7 -11664848.45425  22870973.045
  -1196387.244 8  -1047846.80429  20639242.830
  12223523.127 7  -8236120.40227  21620948.009
   9902084.409 6   8511666.33425  23100886.969
   5167136.526 7 -13386737.97327  21214933.447
 92  8 28  1  7 30.0010000  0  5G11G21G23G17G28
 -15052391.469 7 -11731876.02425  22854603.777
  -1207287.012 8  -1056340.11629  20637166.827
  12283363.773 8  -8189491.32327  21632336.975
   9992660.004 6   8582244.68625  23118120.328
   5186780.745 8 -13371430.81527  21218673.268
 92  8 28  1  8  0.0010000  0  5G11G21G23G17G28
 -15138073.760 7 -11798641.44725  22838300.554
  -1217828.009 8  -1064553.86729  20635163.673
  12343457.418 7  -8142665.10126  21643771.928
  10083465.204 6   8653001.93225  23135400.186
   5207087.239 7 -13355607.56827  21222537.953
 92  8 28  1  8 30.0010000  0  5G11G21G23G17G28
 -15223417.276 7 -11865142.84625  22822061.126
  -1228000.076 8  -1072480.14229  20633224.616
  12403780.740 7  -8095659.92126  21655250.952
  10174492.514 6   8723932.27025  23152723.153
   5228057.167 7 -13339267.35727  21226524.623
 92  8 28  1  9  0.0010000  0  5G11G21G23G17G28
 -15308414.221 7 -11931374.18725  22805885.314
  -1237784.329 8  -1080104.22329  20631364.434
  12464325.926 7  -8048481.86326  21666770.447
  10265733.537 6   8795029.15525  23170084.794
   5249692.530 8 -13322408.63727  21230641.463
 92  8 28  1  9 30.0010000  0  5G11G21G23G17G28
 -15393065.226 7 -11997335.99425  22789777.046
  -1247178.235 8  -1087424.15529  20629574.253
  12525079.172 7  -8001141.69226  21678332.003
  10357187.222 6   8866291.72925  23187490.205
   5271982.552 7 -13305039.79927  21234881.218
 92  8 28  1 10  0.0010000  0  5G11G21G23G17G28
 -15477367.784 7 -12063026.28425  22773735.451
  -1256169.663 8  -1094430.44929  20627864.027
  12586036.124 8  -7953642.76926  21689931.183
  10448855.071 6   8937721.13925  23204930.961
   5294917.972 8 -13287168.06527  21239252.761
 92  8 28  1 10 30.0010000  0  5G11G21G23G17G28
 -15561310.562 7 -12128436.19725  22757761.100
  -1264740.648 8  -1101109.12529  20626234.355
  12647221.719 8  -7905965.67826  21701578.450
  10540741.781 6   9009321.13425  23222415.486
   5318505.946 8 -13268787.83327  21243740.474
 92  8 28  1 11  0.0010000  0  5G11G21G23G17G28
 -15644888.501 7 -12193561.83325  22741858.009
  -1272905.745 8  -1107471.53329  20624678.792
  12708657.998 8  -7858093.24626  21713266.848
  10632848.259 6   9081092.38125  23239946.270
   5342739.427 8 -13249904.61627  21248347.115
 92  8 28  1 11 30.0010000  0  5G11G21G23G17G28
 -15728107.316 7 -12258407.64625  22726022.162
  -1280690.273 8  -1113537.40029  20623198.867
  12770341.100 8  -7810028.50526  21725005.012
  10725174.122 6   9153034.54525  23257513.029
   5367610.916 8 -13230524.23927  21253080.688
 92  8 28  1 12  0.0010000  0  5G11G21G23G17G28
 -15810965.348 7 -12322972.30925  22710253.828
  -1288099.317 8  -1119310.66429  20621789.063
  12832273.047 7  -7761769.86126  21736787.605
  10817711.800 6   9225141.78725  23275114.743
   5393119.877 8 -13210647.12027  21257935.977
 92  8 28  1 12 30.0010000  0  5G11G21G23G17G28
 -15893461.917 7 -12387255.31425  22694552.948
  -1295153.706 8  -1124807.58329  20620446.052
  12894451.955 7  -7713318.75526  21748620.503
  10910466.490 6   9297418.16725  23292776.836
   5419270.048 8 -13190270.38927  21262911.393
 92  8 28  1 13  0.0010000  0  5G11G21G23G17G28
 -15975589.929 7 -12451251.15925  22678927.195
  -1301853.915 8  -1130028.52129  20619171.874
  12956864.279 8  -7664685.80226  21760499.809
  11003465.945 6   9369885.23225  23310468.189
   5446072.860 8 -13169385.09127  21268012.122
 92  8 28  1 13 30.0010000  0  5G11G21G23G17G28
 -16057340.865 7 -12514953.16926  22663369.496
  -1308198.727 8  -1134972.52629  20617963.711
  13019491.318 8  -7615885.51426  21772417.519
  11096722.465 6   9442552.60125  23328218.750
   5473541.812 8 -13147980.72727  21273237.474
 92  8 28  1 14  0.0010000  0  5G11G21G23G17G28
 -16138717.986 7 -12578363.86826  22647884.466
  -1314190.852 8  -1139641.71029  20616822.551
  13082327.486 8  -7566922.26726  21784372.942
  11190225.904 6   9515412.36525  23346008.495
   5501663.219 8 -13126067.94227  21278594.825
 92  8 28  1 14 30.0010000  0  5G11G21G23G17G28
 -16219713.879 7 -12641477.54826  22632466.709
  -1319824.542 8  -1144031.60129  20615756.309
  13145381.907 7  -7517788.96927  21796373.005
  11283985.375 6   9588471.64725  23363849.773
   5530447.029 8 -13103639.00227  21284068.196
 92  8 28  1 15  0.0010000  0  5G11G21G23G17G28
 -16300326.002 7 -12704292.14826  22617130.257
  -1325094.603 8  -1148138.13729  20614747.207
  13208654.096 8  -7468485.97426  21808413.839
  11377994.246 6   9661725.24425  23381740.878
   5559886.212 8 -13080699.39727  21289670.838
 92  8 28  1 15 30.0010000  0  5G11G21G23G17G28
 -16380547.696 7 -12766802.52726  22601868.542
  -1329996.950 8  -1151958.15329  20613818.031
  13272162.962 8  -7418998.56126  21820497.214
  11472226.730 6   9735153.11525  23399677.251
   5589974.981 8 -13057253.59527  21295397.413
 92  8 28  1 16  0.0010000  0  5G11G21G23G17G28
 -16460378.091 7 -12829008.00226  22586673.921
  -1334518.035 8  -1155481.07129  20612960.534
  13335929.000 7  -7369310.73527  21832633.083
  11566680.311 6   9808753.28825  23417644.052
   5620701.234 7 -13033311.07527  21301240.218
 92  8 28  1 16 30.0010000  0  5G11G21G23G17G28
 -16539808.815 7 -12890902.03826  22571562.403
  -1338654.580 8  -1158704.35729  20612164.795
  13399951.115 7  -7319423.39727  21844815.269
  11661352.780 6   9882523.98525  23435660.530
   5652071.574 8 -13008866.67627  21307211.544
 92  8 28  1 17  0.0010000  0  5G11G21G23G17G28
 -16618829.468 7 -12952476.53226  22556521.905
  -1342396.822 8  -1161620.37929  20611455.306
  13464231.058 8  -7269335.15127  21857049.290
  11756238.220 6   9956460.64825  23453716.880
   5684082.791 8 -12983922.87627  21313304.706
 92  8 28  1 17 30.0010000  0  5G11G21G23G17G28
 -16697440.815 7 -13013732.09926  22541561.991
  -1345742.424 8  -1164227.34629  20610819.387
  13528766.180 7  -7219048.04626  21869327.500
  11851325.219 6  10030554.39325  23471814.241
   5716733.876 7 -12958480.47327  21319516.556
 92  8 28  1 18  0.0010000  0  5G11G21G23G17G28
 -16775639.650 7 -13074666.25426  22526681.673
  -1348690.324 8  -1166524.40029  20610263.901
  13593546.229 7  -7168570.07726  21881655.595
  11946629.575 6  10104817.43925  23489952.284
   5750043.263 8 -12932525.11127  21325857.616
 92  8 28  1 18 30.0010000  0  5G11G21G23G17G28
 -16853420.370 7 -13135274.56426  22511875.223
  -1351241.670 8  -1168512.47529  20609776.798
  13658556.060 7  -7117913.07426  21894024.882
  12042148.182 6  10179247.43525  23508132.449
   5784036.819 8 -12906036.66327  21332326.058
 92  8 28  1 19  0.0010000  0  5G11G21G23G17G28
 -16930792.361 7 -13195564.40226  22497155.413
  -1353397.560 8  -1170192.38029  20609363.535
  13723787.808 8  -7067083.15826  21906442.795
  12137875.495 6  10253840.12625  23526341.003
   5818704.715 8 -12879022.73227  21338921.642
 92  8 28  1 19 30.0010000  0  5G11G21G23G17G28
 -17007763.306 7 -13255541.73026  22482513.610
  -1355178.438 8  -1171580.07229  20609027.467
  13789231.193 7  -7016088.33526  21918894.585
  12233803.685 6  10328589.31125  23544594.586
   5854044.732 8 -12851485.05327  21345646.706
 92  8 28  1 20  0.0010000  0  5G11G21G23G17G28
 -17084332.295 7 -13315205.85326  22467939.259
  -1356596.417 8  -1172684.98529  20608755.645
  13854874.701 7  -6964937.52926  21931385.468
  12329942.779 6  10403502.81825  23562891.909
   5890043.282 8 -12823434.25027  21352497.713
 92  8 28  1 20 30.0010000  0  5G11G21G23G17G28
 -17160488.940 7 -13374548.64926  22453447.262
  -1357640.331 8  -1173498.42029  20608555.474
  13920724.945 7  -6913625.65526  21943917.812
  12426289.167 6  10478577.89325  23581228.085
   5926668.765 8 -12794894.92127  21359468.997
 92  8 28  1 21  0.0010000  0  5G11G21G23G17G28
 -17236236.590 7 -13433572.79026  22439032.641
  -1358327.474 8  -1174033.84529  20608428.332
  13986777.078 7  -6862156.50126  21956485.591
  12522834.432 6  10553807.89125  23599592.262
   5963886.670 8 -12765893.96927  21366550.035
 92  8 28  1 21 30.0010000  0  5G11G21G23G17G28
 -17311570.453 7 -13492274.45226  22424697.525
  -1358674.573 8  -1174304.31429  20608359.260
  14053030.549 7  -6810530.41626  21969095.012
  12619587.420 6  10629199.75325  23618008.393
   6001692.872 8 -12736434.60927  21373742.596
 92  8 28  1 22  0.0010000  0  5G11G21G23G17G28
 -17386482.834 7 -13550647.70926  22410441.764
  -1358676.610 8  -1174305.89329  20608360.219
  14119481.174 7  -6758750.71126  21981735.371
  12716559.750 6  10704762.59025  23636461.548
   6040086.115 8 -12706517.80827  21381050.067
 92  8 28  1 22 30.0010000  0  5G11G21G23G17G28
 -17460966.536 7 -13608686.94626  22396268.716
  -1358323.809 8  -1174030.98129  20608428.092
  14186139.329 7  -6706809.32626  21994423.188
  12813742.697 5  10780489.50025  23654958.263
   6079079.598 8 -12676133.30427  21388472.359
 92  8 28  1 23  0.0010000  0  5G11G21G23G17G28
 -17535015.376 7 -13666387.29226  22382178.740
  -1357626.920 8  -1173487.94729  20608559.011
  14253008.704 7  -6654703.34726  22007148.028
  12911152.178 6  10856392.94025  23673496.649
   6118697.609 8 -12645262.12827  21396010.610
 92  8 28  1 23 30.0010000  0  5G11G21G23G17G28
 -17608631.179 7 -13723750.25026  22368168.689
  -1356581.336 8  -1172673.20329  20608758.643
  14320095.455 7  -6602427.95526  22019911.632
  13008779.124 6  10932465.85125  23692073.379
   6158939.742 8 -12613904.63427  21403664.641
 92  8 28  1 24  0.0010000  0  5G11G21G23G17G28
 -17681805.823 7 -13780769.43226  22354241.860
  -1355159.891 8  -1171565.57129  20609026.958
  14387406.321 7  -6549977.93526  22032721.165
  13106613.174 6  11008700.08225  23710689.141
   6199813.446 7 -12582055.01327  21411446.684
 92  8 28  1 24 30.0010000  0  5G11G21G23G17G28
 -17754537.853 7 -13837443.70726  22340400.862
  -1353361.609 8  -1170164.30329  20609371.239
  14454945.213 7  -6497350.24726  22045572.218
  13204650.386 6  11085092.66125  23729343.817
   6241315.527 8 -12549715.74227  21419343.877
 92  8 28  1 25  0.0010000  0  5G11G21G23G17G28
 -17826827.023 7 -13893772.90726  22326641.798
  -1351188.694 8  -1168471.13629  20609784.623
  14522706.309 7  -6444549.41926  22058467.401
  13302891.848 5  11161644.45525  23748041.093
   6283447.778 8 -12516885.44727  21427359.698
 92  8 28  1 25 30.0010000  0  5G11G21G23G17G28
 -17898672.625 7 -13949756.46626  22312971.861
  -1348631.775 8  -1166478.71629  20610271.516
  14590682.338 7  -6391581.06926  22071404.135
  13401325.809 5  11238346.20925  23766760.704
   6326212.135 8 -12483562.57527  21435496.305
 92  8 28  1 26  0.0010000  0  5G11G21G23G17G28
 -17970067.655 7 -14005388.95526  22299389.344
  -1345692.342 8  -1164188.24529  20610831.618
  14658857.484 7  -6338457.56726  22084380.831
  13499967.839 5  11315210.04925  23785542.611
   6369616.831 8 -12449740.75427  21443757.925
 92  8 28  1 26 30.0010000  0  5G11G21G23G17G28
 -18041012.846 8 -14060670.89126  22285889.780
  -1342389.825 8  -1161614.85129  20611459.354
  14727219.205 7  -6285188.72226  22097388.256
  13598813.113 5  11392232.25425  23804349.222
   6413647.935 8 -12415430.81627  21452136.915
 92  8 28  1 27  0.0010000  0  5G11G21G23G17G28
 -18111506.346 7 -14115600.87826  22272473.887
  -1338726.279 8  -1158760.13429  20612155.202
  14795764.280 7  -6231777.01026  22110427.999
  13697863.349 6  11469414.24525  23823204.549
   6458299.445 7 -12380637.44027  21460634.292
 92  8 28  1 27 30.0010000  0  5G11G21G23G17G28
 -18181543.737 7 -14170175.45826  22259146.434
  -1334713.010 8  -1155632.90129  20612919.283
  14864490.685 7  -6178223.95826  22123506.715
  13797111.906 6  11546750.71425  23842088.775
   6503557.427 8 -12345371.48827  21469247.209
 92  8 28  1 28  0.0010000  0  5G11G21G23G17G28
 -18251116.674 8 -14224388.10826  22245906.519
  -1330354.440 8  -1152236.61429  20613751.717
  14933406.152 7  -6124523.60126  22136624.434
  13896551.841 6  11624236.33825  23861010.116
   6549415.906 7 -12309637.62727  21477972.429
 92  8 28  1 28 30.0010000  0  5G11G21G23G17G28
 -18320222.307 8 -14278236.63626  22232755.674
  -1325650.159 8  -1148570.93229  20614642.550
  15002518.275 7  -6070670.01426  22149775.040
  13996167.890 6  11701859.16525  23879968.872
   6595875.190 8 -12273435.60427  21486816.516
 92  8 28  1 29  0.0010000  0  5G11G21G23G17G28
 -18388857.091 7 -14331718.26326  22219695.215
  -1320597.027 8  -1144633.42329  20615606.503
  15071825.752 7  -6016664.19826  22162963.090
  14095964.794 5  11779622.90625  23898955.987
   6642946.692 7 -12236756.52327  21495774.075
 92  8 28  1 29 30.0010000  0  5G11G21G23G17G28
 -18456997.948 7 -14384815.00526  22206730.151
  -1315170.050 8  -1140404.60129  20616640.337
  15141350.511 7  -5962489.05926  22176193.531
  14195953.310 5  11857536.01025  23917986.153
   6690657.974 7 -12199578.93227  21504850.262
 92  8 28  1 30  0.0010000  0  5G11G21G23G17G28
 -18524637.019 7 -14437520.73526  22193858.621
  -1309347.097 8  -1135867.22929  20617747.051
  15211097.873 7  -5908140.48626  22189467.831
  14296145.858 5  11935608.04725  23937051.034
   6739025.926 7 -12161889.62527  21514053.711
 92  8 28  1 30 30.0010000  0  5G11G21G23G17G28
 -18591773.100 7 -14489834.58626  22181080.777
  -1303121.474 8  -1131016.09329  20618931.950
  15281065.881 7  -5853619.97326  22202780.385
  14396565.989 5  12013857.43225  23956154.110
   6788048.445 8 -12123690.30627  21523385.500
 92  8 28  1 31  0.0010000  0  5G11G21G23G17G28
 -18658410.959 7 -14541760.15826  22168401.985
  -1296496.466 8  -1125853.74729  20620195.006
  15351247.803 7  -5798932.76026  22216136.139
  14497218.066 5  12092287.56525  23975305.272
   6837704.678 7 -12084997.14427  21532831.811
 92  8 28  1 31 30.0010000  0  5G11G21G23G17G28
 -18724547.244 8 -14593294.89226  22155816.158
  -1289469.425 8  -1120378.13129  20621527.434
  15421647.513 7  -5744075.86626  22229528.378
  14598097.047 5  12170894.54825  23994512.794
   6887981.735 7 -12045820.23527  21542400.856
 92  8 28  1 32  0.0010000  0  5G11G21G23G17G28
 -18790182.771 8 -14644439.46426  22143326.954
  -1282045.610 8  -1114593.33229  20622942.574
  15492244.923 7  -5689064.89226  22242968.613
  14699207.379 5  12249681.71225  24013744.151
   6938860.815 8 -12006174.21527  21552083.643
 92  8 28  1 32 30.0010000  0  5G11G21G23G17G28
 -18855311.052 8 -14695188.73526  22130934.373
  -1274233.364 8  -1108505.86929  20624430.924
  15563036.828 7  -5633902.39726  22256439.068
  14800549.125 5  12328649.25425  24033036.515
   6990336.204 8 -11966063.56127  21561877.982
 92  8 28  1 33  0.0010000  0  5G11G21G23G17G28
 -18919933.859 8 -14745544.15726  22118636.017
  -1266048.038 8  -1102127.69029  20625986.786
  15634010.403 7  -5578598.32026  22269941.420
  14902091.092 5  12407772.84025  24052360.118
   7042404.974 7 -11925490.50927  21571784.444
 92  8 28  1 33 30.0010000  0  5G11G21G23G17G28
 -18984051.497 8 -14795505.94126  22106435.573
  -1257502.765 8  -1095469.02229  20627612.081
  15705162.613 7  -5523155.04226  22283483.106
  15003819.029 5  12487041.26125  24071718.496
   7095079.206 7 -11884445.69527  21581805.307
 92  8 28  1 34  0.0010000  0  5G11G21G23G17G28
 -19047664.885 8 -14845074.79626  22094328.245
  -1248611.575 8  -1088540.82329  20629305.339
  15776486.571 7  -5467577.93026  22297053.421
  15105730.944 5  12566453.06825  24091102.057
   7148364.720 7 -11842924.51927  21591948.875
 92  8 28  1 34 30.0010000  0  5G11G21G23G17G28
 -19110774.470 8 -14894251.07826  22082318.589
  -1239382.918 8  -1081349.65729  20631057.896
  15847999.654 7  -5411853.46726  22310663.549
  15207808.535 5  12645994.06225  24110532.955
   7202263.486 7 -11800925.49927  21602204.805
 92  8 28  1 35  0.0010000  0  5G11G21G23G17G28
 -19173370.016 8 -14943026.81826  22070407.805
  -1229805.830 8  -1073886.98129  20632883.512
  15919720.995 7  -5355966.74626  22324313.100
  15310061.066 5  12725671.22625  24129984.809
   7256779.253 7 -11758445.67927  21612583.500
 92  8 28  1 35 30.0010000  0  5G11G21G23G17G28
 -19235428.968 8 -14991384.42326  22058599.579
  -1219849.182 8  -1066128.54529  20634775.832
  15991677.082 7  -5299897.07126  22338007.739
  15412520.890 6  12805509.95925  24149485.439
   7311919.878 7 -11715478.98527  21623074.707
 92  8 28  1 36  0.0010000  0  5G11G21G23G17G28
 -19296954.277 8 -15039326.18026  22046889.956
  -1209509.475 8  -1058071.63629  20636742.590
  16063863.998 7  -5243647.52726  22351740.062
  15515185.936 5  12885508.68625  24169023.123
   7367665.005 7 -11672041.23527  21633677.886
 92  8 28  1 36 30.0010000  0  5G11G21G23G17G28
 -19357941.515 8 -15086848.70526  22035285.559
  -1198774.766 8  -1049706.92429  20638785.976
  16136287.806 7  -5187213.41726  22365526.318
  15618055.212 5  12965666.44125  24188590.247
   7424003.930 7 -11628140.80527  21644403.981
 92  8 28  1 37  0.0010000  0  5G11G21G23G17G28
 -19418384.606 8 -15133947.19026  22023784.561
  -1187641.746 8  -1041031.83129  20640906.318
  16208937.476 7  -5130603.28926  22379347.590
  15721143.757 5  13045995.20725  24208212.743
   7480934.502 7 -11583779.34527  21655235.962
 92  8 28  1 37 30.0010000  0  5G11G21G23G17G28
 -19478284.613 8 -15180622.50026  22012383.064
  -1176108.653 8  -1032045.01329  20643099.180
  16281800.205 7  -5073827.12326  22393212.542
  15824445.671 5  13126490.12625  24227879.668
   7538456.053 7 -11538957.40927  21666179.076
 92  8 28  1 38  0.0010000  0  5G11G21G23G17G28
 -19537644.694 8 -15226877.09526  22001087.874
  -1164194.841 8  -1022761.50829  20645367.470
  16354865.063 7  -5016893.51726  22407113.288
  15927948.681 5  13207141.70425  24247570.456
   7596569.271 7 -11493674.39227  21677242.917
 92  8 28  1 38 30.0010000  0  5G11G21G23G17G28
 -19596465.837 8 -15272711.73126  21989895.752
  -1151913.886 8  -1013191.94929  20647701.114
  16428114.536 7  -4959816.02726  22421058.914
  16031648.715 5  13287946.84925  24267309.361
   7655276.792 7 -11447928.31227  21688410.006
 92  8 28  1 39  0.0010000  0  5G11G21G23G17G28
 -19654745.661 8 -15318124.56726  21978800.733
  -1139266.182 8  -1003336.59029  20650112.405
  16501541.190 7  -4902600.45226  22435027.743
  16135544.148 5  13368904.35425  24287078.665
   7714578.321 7 -11401719.34627  21699692.306
 92  8 28  1 39 30.0010000  0  5G11G21G23G17G28
 -19712476.043 8 -15363109.26026  21967816.997
  -1126248.314 8   -993192.78629  20652589.110
  16575152.773 7  -4845240.77326  22449040.343
  16239637.331 5  13450015.83225  24306883.824
   7774485.171 7 -11355038.70627  21711094.072
 92  8 28  1 40  0.0010000  0  5G11G21G23G17G28
 -19769652.577 8 -15407662.38926  21956941.336
  -1112870.738 8   -982768.70129  20655134.888
  16648947.996 7  -4787738.06626  22463079.893
  16343931.068 5  13531283.58625  24326731.015
   7834994.037 7 -11307888.95327  21722610.060
 92  8 28  1 40 30.0010000  0  5G11G21G23G17G28
 -19826278.635 8 -15451786.57126  21946163.647
  -1099135.311 8   -972065.76429  20657747.969
  16722925.995 7  -4730092.87526  22477159.196
  16448415.691 5  13612700.08125  24346608.274
   7896087.228 7 -11260283.88927  21734239.189
 92  8 28  1 41  0.0010000  0  5G11G21G23G17G28
 -19882362.260 8 -15495488.06626  21935489.806
  -1085046.779 8   -961087.69929  20660430.452
  16797087.183 7  -4672304.93526  22491268.209
  16553080.133 5  13694256.67625  24366528.793
   7957742.704 7 -11212240.72427  21745967.610
 92  8 28  1 41 30.0010000  0  5G11G21G23G17G28
 -19937901.777 8 -15538765.60326  21924924.431
  -1070616.525 8   -949843.34529  20663175.291
  16871428.151 7  -4614376.91826  22505415.115
  16657922.655 5  13775952.10925  24386478.482
   8019962.236 7 -11163757.99227  21757806.174
 92  8 28  1 42  0.0010000  0  5G11G21G23G17G28
 -19992896.049 8 -15581618.26526  21914460.415
  -1055843.307 8   -938331.75229  20665987.824
  16945952.124 7  -4556306.33226  22519597.037
  16762928.899 5  13857775.09425  24406469.813
   8082736.007 7 -11114843.39227  21769753.743
 92  8 28  1 42 30.0010000  0  5G11G21G23G17G28
 -20047344.369 8 -15624045.50127  21904096.050
  -1040718.777 8   -926546.38729  20668863.434
  17020653.512 7  -4498097.48126  22533815.144
  16868087.407 5  13939716.74924  24426472.385
   8146060.616 7 -11065499.58027  21781804.201
 92  8 28  1 43  0.0010000  0  5G11G21G23G17G28
 -20101243.824 8 -15666045.07326  21893839.221
  -1025244.373 8   -914488.42529  20671808.355
  17095519.515 7  -4439760.34226  22548060.562
  16973405.761 5  14021782.89424  24446509.494
   8209944.611 7 -11015719.87227  21793960.005
 92  8 28  1 43 30.0010000  0  5G11G21G23G17G28
 -20154577.745 8 -15707603.96227  21883689.177
  -1009407.618 8   -902148.09429  20674824.777
  17170556.472 7  -4381289.98925  22562337.908
  17078894.678 5  14103982.04924  24466590.012
   8274397.919 7 -10965496.54527  21806224.335
 92  8 28  1 44  0.0010000  0  5G11G21G23G17G28
 -20207344.760 8 -15748721.08727  21873652.306
   -993205.943 8   -889523.41529  20677904.515
  17245757.865 7  -4322691.52825  22576649.611
  17184559.248 5  14186317.96524  24486693.165
   8339410.624 7 -10914837.31927  21818600.817
 92  8 28  1 44 30.0010000  0  5G11G21G23G17G28
 -20259542.562 8 -15789394.68027  21863714.485
   -976642.520 8   -876616.85229  20681058.421
  17321111.212 7  -4263974.64725  22590987.515
  17290411.372 5  14268800.06024  24506839.308
   8404985.757 7 -10863739.83427  21831074.731
 92  8 28  1 45  0.0010000  0  5G11G21G23G17G28
 -20311166.571 8 -15829621.16227  21853891.606
   -959714.896 8   -863426.50229  20684277.982
  17396621.244 7  -4205135.65525  22605355.818
  17396458.876 5  14351434.41125  24527020.347
   8471127.779 7 -10812200.61927  21843663.616
 92  8 28  1 45 30.0010000  0  5G11G21G23G17G28
 -20362213.252 8 -15869397.79327  21844178.750
   -942416.108 8   -849946.91729  20687569.913
  17472300.125 7  -4146165.13925  22619757.038
  17502698.333 5  14434218.28725  24547236.852
   8537835.772 7 -10760220.40127  21856354.700
 92  8 28  1 46  0.0010000  0  5G11G21G23G17G28
 -20412673.405 8 -15908717.38727  21834574.239
   -924738.055 8   -836171.81129  20690935.413
  17548155.928 7  -4087056.75425  22634192.794
  17609125.016 5  14517148.15925  24567482.226
   8605119.155 7 -10707791.83027  21869160.395
 92  8 28  1 46 30.0010000  0  5G11G21G23G17G28
 -20462544.545 8 -15947577.99227  21825084.249
   -906672.335 8   -822094.62729  20694373.433
  17624196.541 7  -4027804.32625  22648662.847
  17715721.688 5  14600210.42825  24587774.638
   8672975.489 7 -10654916.76326  21882073.086
 92  8 28  1 47  0.0010000  0  5G11G21G23G17G28
 -20511826.907 8 -15985979.81027  21815707.820
   -888224.331 8   -807719.55029  20697881.755
  17700430.234 7  -3968401.44925  22663169.085
  17822481.825 5  14683400.04125  24608099.277
   8741386.372 7 -10601609.63626  21895094.062
 92  8 28  1 47 30.0010000  0  5G11G21G23G17G28
 -20560514.966 8 -16023918.52127  21806442.914
   -869405.324 8   -793055.37929  20701466.073
  17776850.815 7  -3908852.97325  22677713.905
  17929404.690 5  14766716.46025  24628440.525
   8810337.400 7 -10547881.60726  21908212.710
 92  8 28  1 48  0.0010000  0  5G11G21G23G17G28
 -20608609.036 8 -16061394.40727  21797288.811
   -850233.938 8   -778116.63129  20705113.558
  17853448.650 7  -3849166.37225  22692289.995
  18036482.608 5  14850153.72325  24648810.404
   8879818.570 7 -10493740.44926  21921434.727
 92  8 28  1 48 30.0010000  0  5G11G21G23G17G28
 -20656104.680 8 -16098403.96827  21788253.636
   -830722.814 8   -762913.16529  20708824.869
  17930218.828 7  -3789345.45425  22706896.723
  18143731.846 5  14933724.45925  24669219.555
   8949836.504 7 -10439181.06826  21934760.231
 92  8 28  1 49  0.0010000  0  5G11G21G23G17G28
 -20703005.132 8 -16134949.75927  21779326.656
   -810883.823 8   -747454.20729  20712601.894
  18007150.102 7  -3729398.98825  22721537.867
  18251155.170 5  15017430.92125  24689665.880
   9020389.200 7 -10384204.97926  21948183.139
 92  8 28  1 49 30.0010000  0  5G11G21G23G17G28
 -20749302.278 8 -16171025.44227  21770516.415
   -790712.046 8   -731735.93129  20716438.638
  18084241.857 7  -3669327.51825  22736208.780
  18358744.800 5  15101266.91825  24710137.088
   9091497.477 7 -10328795.95226  21961715.381
 92  8 28  1 50  0.0010000  0  5G11G21G23G17G28
 -20794989.190 8 -16206625.61627  21761821.924
   -770188.824 8   -715743.83629  20720346.103
  18161521.419 7  -3609109.71125  22750910.872
  18466502.038 5  15185233.51825  24730633.719
   9163173.478 7 -10272944.55026  21975351.381
 92  8 28  1 50 30.0010000  0  5G11G21G23G17G28
 -20840069.404 8 -16241753.04227  21753244.322
   -749293.639 8   -699461.83429  20724323.180
  18238987.322 7  -3548746.66925  22765652.147
  18574418.326 5  15269324.06824  24751177.297
   9235401.988 7 -10216662.62626  21989098.484
 92  8 28  1 51  0.0010000  0  5G11G21G23G17G28
 -20884540.117 8 -16276405.52227  21744781.151
   -728008.612 8   -682876.09929  20728372.027
  18316650.172 7  -3488230.15325  22780434.943
  18682489.820 5  15353535.45324  24771740.781
   9308164.239 7 -10159964.79626  22002941.940
 92  8 28  1 51 30.0010000  0  5G11G21G23G17G28
 -20928403.649 8 -16310584.87727  21736435.079
   -706338.916 8   -665990.62329  20732498.400
  18394508.828 7  -3427561.09825  22795249.637
  18790716.435 5  15437867.90524  24792343.867
   9381439.221 7 -10102867.44226  22016888.285
 92  8 28  1 52  0.0010000  0  5G11G21G23G17G28
 -20971658.913 8 -16344290.27327  21728202.808
   -684285.029 8   -648805.78229  20736691.297
  18472561.898 7  -3366740.55125  22810104.084
  18899115.705 5  15522334.86124  24812962.484
   9455210.334 7 -10045383.48926  22030927.087
 92  8 28  1 52 30.0010000  0  5G11G21G23G17G28
 -21014297.433 8 -16377515.07427  21720091.893
   -661851.059 8   -631324.75029  20740960.042
  18550787.205 6  -3305785.76325  22824988.539
  19007696.732 5  15606943.34024  24833635.122
   9529482.646 7  -9987509.00226  22045063.050
 92  8 28  1 53  0.0010000  0  5G11G21G23G17G28
 -21056318.753 8 -16410258.95327  21712092.291
   -639067.458 8   -613571.29629  20745296.630
  18629178.369 6  -3244701.76325  22839904.203
  19116463.159 5  15691696.31024  24854328.686
   9604267.441 7  -9929235.15926  22059292.580
 92  8 28  1 53 30.0010000  0  5G11G21G23G17G28
 -21097723.793 8 -16442522.62027  21704216.414
   -615950.186 8   -595557.84029  20749698.153
  18707727.539 6  -3183494.64025  22854848.048
  19225408.240 5  15776588.49223  24875060.774
   9679582.620 7  -9870548.02526  22073622.989
 92  8 28  1 54  0.0010000  0  5G11G21G23G17G28
 -21138505.058 8 -16474300.20427  21696454.997
   -592494.547 8   -577280.71529  20754160.384
  18786424.186 6  -3122172.60925  22869830.176
  19334527.255 5  15861616.18323  24895817.444
   9755447.795 7  -9811432.34626  22088063.452
 92  8 28  1 54 30.0010000  0  5G11G21G23G17G28
 -21178655.839 8 -16505586.53227  21688814.066
   -568694.277 8   -558735.05429  20758688.149
  18865266.617 6  -3060736.94925  22884830.651
  19443811.745 5  15946772.90323  24916623.850
   9831871.093 7  -9751881.74626  22102607.793
 92  8 28  1 55  0.0010000  0  5G11G21G23G17G28
 -21218171.116 8 -16536377.64027  21681292.603
   -544548.074 8   -539919.81929  20763283.758
  18944271.977 7  -2999174.34825  22899866.982
  19553259.924 5  16032057.09223  24937446.565
   9908847.600 7  -9691900.06926  22117255.053
 92  8 28  1 55 30.0010000  0  5G11G21G23G17G28
 -21257047.263 8 -16566670.72527  21673898.103
   -520041.900 8   -520824.11429  20767946.310
  19023435.723 6  -2937488.33925  22914935.330
  19662865.806 5  16117464.17923  24958307.293
   9986359.380 7  -9631501.32826  22131997.407
 92  8 28  1 56  0.0010000  0  5G11G21G23G17G28
 -21295279.966 8 -16596462.44427  21666621.450
   -495169.389 8   -501442.91729  20772678.684
  19102755.571 6  -2875680.68925  22930023.495
  19772619.257 5  16202986.34523  24979190.326
  10064374.669 7  -9570710.22526  22146849.905
 92  8 28  1 56 30.0010000  0  5G11G21G23G17G28
 -21332865.347 8 -16625749.72827  21659468.282
   -469935.389 8   -481780.07029  20777483.188
  19182251.161 6  -2813736.06525  22945145.326
  19882521.101 5  16288623.99723  25000110.324
  10142885.351 7  -9509533.08026  22161788.143
 92  8 28  1 57  0.0010000  0  5G11G21G23G17G28
 -21369803.773 8 -16654532.89827  21652442.556
   -444338.666 8   -461834.56729  20782352.237
  19261919.150 6  -2751657.12525  22960309.968
  19992571.385 5  16374377.45223  25021044.411
  10221880.185 7  -9447978.68626  22176822.046
 92  8 28  1 57 30.0010000  0  6G12G11G21G23G17G28
    -86151.07315    -69152.17531  24440935.243
 -21406090.245 8 -16682808.06727  21645535.967
   -418373.727 8   -441602.14629  20787295.845
  19341746.302 6  -2689454.17725  22975502.131
  20102777.348 5  16460252.20523  25042023.138
  10301361.782 7  -9386045.00926  22191947.834
 92  8 28  1 58  0.0010000  0  6G12G11G21G23G17G28
   -122913.375 5    -97796.11721  24433941.564
 -21441719.016 8 -16710570.72127  21638754.002
   -392042.699 8   -421084.46329  20792304.687
  19421741.017 6  -2627120.65125  22990725.112
  20213158.924 5  16546263.71823  25063023.510
  10381346.284 7  -9323719.44326  22207166.588
 92  8 28  1 58 30.0010000  0  6G12G11G21G23G17G28
   -159072.283 5   -125969.98921  24427058.180
 -21476690.144 8 -16737820.93027  21632100.289
   -365350.731 8   -400285.52929  20797385.390
  19501907.617 6  -2564653.19725  23005982.929
  20323732.687 5  16632425.02023  25084068.221
  10461846.841 7  -9260991.75726  22222480.647
 92  8 28  1 59  0.0010000  0  5G12G11G21G23G28
   -194613.482 5   -153664.27821  24420292.014
 -21510989.613 8 -16764547.77327  21625573.657
   -338282.371 8   -379193.30329  20802534.835
  19582248.758 6  -2502049.72825  23021269.767
  10542868.201 7  -9197858.24226  22237902.480
 92  8 28  1 59 30.0010000  0  5G12G11G21G23G28
   -229519.877 5   -180863.85421  24413652.240
 -21544600.363 8 -16790737.94927  21619177.285
   -310826.364 8   -357799.01229  20807759.468
  19662792.536 6  -2439288.37325  23036596.026
  10624430.499 7  -9134303.24826  22253423.755
 92  8 28  2  0  0.0010000  0  5G12G11G21G23G28
   -263806.374 5   -207580.42322  24407128.337
 -21577537.639 8 -16816403.34127  21612910.453
   -282996.442 8   -336113.35629  20813055.362
  19743544.236 6  -2376364.96225  23051960.840
  10706510.297 7  -9070344.98926  22269043.782
 92  8 28  2  0 30.0010000  0  5G12G11G21G23G28
   -297484.548 5   -233823.01722  24400712.238
 -21609813.290 8 -16841553.18827  21606766.747
   -254802.683 8   -314144.19329  20818417.300
  19824497.788 6  -2313284.29425  23067369.153
  10789084.400 7  -9006001.56326  22284757.134
 92  8 28  2  1  0.0010000  0  5G12G11G21G23G28
   -330560.189 5   -259596.13022  24394429.008
 -21641433.235 8 -16866192.08527  21600750.212
   -226253.555 8   -291898.12129  20823851.338
  19905634.762 6  -2250060.71025  23082809.993
  10872149.071 7  -8941275.88126  22300564.111
 92  8 28  2  1 30.0010000  0  5G12G11G21G23G28
   -363029.089 5   -284896.31922  24388258.320
 -21672393.602 8 -16890317.03927  21594858.960
   -197355.826 8   -269380.40229  20829350.311
  19986952.127 7  -2186696.55825  23098283.061
  10955710.450 7  -8876163.13626  22316466.602
 92  8 28  2  2  0.0010000  0  4G11G21G23G28
 -21702692.416 8 -16913926.49127  21589092.182
   -168114.212 8   -246594.72229  20834916.617
  20068434.767 7  -2123203.58225  23113789.556
  11039756.591 7  -8810672.65726  22332458.551
 92  8 28  2  2 30.0010000  0  4G11G21G23G28
 -21732330.383 8 -16937020.98627  21583452.427
   -138537.502 8   -223547.93829  20840545.191
  20150054.667 6  -2059603.66125  23129320.215
  11124284.128 7  -8744807.07226  22348544.215
 92  8 28  2  3  0.0010000  0  4G11G21G23G28
 -21761306.003 8 -16959599.39027  21577938.974
   -108616.965 8   -200233.23529  20846241.038
  20231795.587 6  -1995909.47525  23144873.148
  11209281.002 7  -8678575.79026  22364715.949
 92  8 28  2  3 30.0010000  0  5G15G11G21G23G28
   -381333.83015   -308682.58431  25089058.236
 -21789610.348 8 -16981654.71027  21572552.723
    -78343.133 8   -176643.22329  20851998.552
  20313676.547 6  -1932106.12725  23160457.799
  11294732.689 7  -8611990.08026  22380979.151
 92  8 28  2  4  0.0010000  0  5G15G11G21G23G28
   -479830.602 5   -385433.18822  25070322.107
 -21817241.610 8 -17003185.55627  21567293.074
    -47707.800 8   -152771.54129  20857829.275
  20395705.521 6  -1868187.45025  23176065.804
  11380632.061 7  -8545055.52926  22397325.394
 92  8 28  2  4 30.0010000  0  5G15G11G21G23G28
   -578270.803 5   -462139.69823  25051580.312
 -21844197.260 8 -17024189.96327  21562165.034
    -16705.605 8   -128613.98129  20863727.512
  20477890.516 6  -1804147.22425  23191702.738
  11466980.654 7  -8477770.94226  22413759.237
 92  8 28  2  5  0.0010000  0  5G15G11G21G23G28
   -676655.727 5   -538803.18923  25032857.763
 -21870478.572 8 -17044668.87227  21557165.425
     14659.638 8   -104173.53329  20869700.157
  20560236.942 6  -1739981.18625  23207374.029
  11553777.888 7  -8410136.78026  22430270.847
 92  8 28  2  5 30.0010000  0  5G15G11G21G23G28
   -774984.849 5   -615423.23423  25014152.782
 -21896084.960 8 -17064621.89527  21552290.590
     46366.935 8    -79466.54829  20875728.414
  20642740.377 6  -1675692.85525  23223074.640
  11641029.629 6  -8342148.43226  22446878.030
 92  8 28  2  6  0.0010000  0  5G15G11G21G23G28
   -873256.120 5   -691998.22123  24995459.793
 -21921014.199 8 -17084047.26927  21547544.815
     78422.015 8    -54488.54929  20881831.199
  20725388.317 6  -1611291.86925  23238797.825
  11728754.467 6  -8273791.44126  22463566.786
 92  8 28  2  6 30.0010000  0  5G15G11G21G23G28
   -971474.471 6   -768531.90824  24976765.515
 -21945270.845 8 -17102948.53827  21542932.148
    110818.078 8    -29244.86629  20887998.020
  20808161.514 6  -1546793.27525  23254549.370
  11816948.730 7  -8205068.67626  22480353.095
 92  8 28  2  7  0.0010000  0  5G15G11G21G23G28
  -1069643.883 5   -845027.41924  24958085.417
 -21968858.843 8 -17121328.77827  21538440.688
    143540.283 8     -3747.06429  20894223.210
  20891048.445 6  -1482206.07025  23270329.066
  11905599.744 7  -8135989.98726  22497218.520
 92  8 28  2  7 30.0010000  0  5G15G11G21G23G28
  -1167763.536 5   -921484.22024  24939408.467
 -21991777.270 8 -17139187.27627  21534080.416
    176587.712 8     22004.18829  20900510.428
  20974051.234 6  -1417528.58825  23286122.763
  11994697.564 6  -8066563.12726  22514175.621
 92  8 28  2  8  0.0010000  0  5G15G11G21G23G28
  -1265833.492 5   -997902.38424  24920739.791
 -22014026.267 8 -17156524.15427  21529846.687
    209967.152 8     48014.16229  20906865.488
  21057181.628 6  -1352751.67725  23301936.485
  12084231.363 6  -7996796.57926  22531212.346
 92  8 28  2  8 30.0010000  0  5G15G11G21G23G28
  -1363839.523 5  -1074270.63124  24902103.972
 -22035591.751 8 -17173328.40927  21525746.846
    243676.073 8     74280.83929  20913276.310
  21140463.864 7  -1287856.40425  23317790.050
  12174186.212 6  -7926701.90826  22548335.772
 92  8 28  2  9  0.0010000  0  5G15G11G21G23G28
  -1461776.955 5  -1150585.38525  24883465.545
 -22056469.043 8 -17189596.41527  21521774.416
    277715.608 8    100805.14829  20919754.435
  21223921.364 6  -1222824.59325  23333666.459
  12264551.054 7  -7856287.76926  22565531.268
 92  8 28  2  9 30.0010000  0  5G15G11G21G23G28
  -1559647.907 5  -1226848.33725  24864838.870
 -22076660.161 8 -17205329.74227  21517932.545
    312094.523 8    127593.92729  20926296.686
  21307558.054 6  -1157653.18025  23349582.620
  12355324.123 6  -7785555.54626  22582800.872
 92  8 28  2 10  0.0010000  0  5G15G11G21G23G28
  -1657455.555 5  -1303062.01024  24846226.735
 -22096168.752 8 -17220531.23027  21514217.067
    346807.155 8    154642.74029  20932903.572
  21391372.234 6  -1092343.42525  23365527.262
  12446488.533 6  -7714518.36826  22600152.860
 92  8 28  2 10 30.0010000  0  5G15G11G21G23G28
  -1755197.519 5  -1379224.59023  24827627.401
 -22114992.311 8 -17235198.92727  21510635.177
    381861.037 8    181957.44229  20939574.674
  21475349.769 6  -1026906.40525  23381511.566
  12538053.482 6  -7643169.10326  22617574.849
 92  8 28  2 11  0.0010000  0  5G15G11G21G23G28
  -1852875.377 5  -1455337.09424  24809037.301
 -22133132.523 8 -17249334.14827  21507184.296
    417258.316 8    209539.74829  20946309.542
  21559467.326 6   -961360.29425  23397519.434
  12630033.320 6  -7571496.51026  22635078.471
 92  8 28  2 11 30.0010000  0  5G15G11G21G23G28
  -1950488.756 6  -1531399.32524  24790464.708
 -22150589.541 8 -17262937.01327  21503861.786
    452990.459 8    237382.98429  20953107.456
  21643705.804 6   -895719.98025  23413550.356
  12722429.661 7  -7499499.40026  22652665.346
 92  8 28  2 12  0.0010000  0  5G15G11G21G23G28
  -2048035.785 6  -1607409.85324  24771904.587
 -22167361.606 8 -17276006.15027  21500667.737
    489050.727 8    265481.89929  20959969.255
  21728056.203 6   -829992.39125  23429605.412
  12815248.737 6  -7427172.87226  22670325.280
 92  8 28  2 12 30.0010000  0  5G15G11G21G23G28
  -2145512.963 6  -1683366.12323  24753353.430
 -22183445.733 8 -17288539.21027  21497608.445
    525443.072 8    293839.57429  20966893.652
  21812515.102 6   -764180.23325  23445674.947
  12908506.640 6  -7354504.42526  22688066.878
 92  8 28  2 13  0.0010000  0  5G15G11G21G23G28
  -2242906.380 5  -1759257.07323  24734811.926
 -22198828.246 8 -17300525.58827  21494679.023
    562171.693 8    322459.29629  20973882.863
  21897106.240 6   -698265.09625  23461775.391
  13002197.034 6  -7281498.95626  22705899.853
 92  8 28  2 13 30.0010000  0  5G15G11G21G23G28
  -2340202.445 5  -1835072.04424  24716295.934
 -22213495.900 8 -17311954.91927  21491891.553
    599251.302 8    351352.50229  20980942.496
  21981854.680 6   -632227.38725  23477899.578
  13096328.307 6  -7208149.94026  22723812.662
 92  8 28  2 14  0.0010000  0  5G15G11G21G23G28
  -2437392.730 5  -1910804.64724  24697797.301
 -22227440.713 8 -17322820.99827  21489236.891
    636697.856 8    380531.63929  20988067.363
  22066764.089 6   -566064.20125  23494055.754
  13190909.100 6  -7134450.68626  22741808.424
 92  8 28  2 14 30.0010000  0  5G15G11G21G23G28
  -2534477.936 5  -1986455.32224  24679336.351
 -22240663.780 8 -17333124.68827  21486717.855
    674500.921 8    409988.57629  20995260.104
  22151823.319 6   -499784.25325  23510243.617
  13285922.075 6  -7060414.60726  22759882.101
 92  8 28  2 15  0.0010000  0  5G15G11G21G23G28
  -2631458.666 5  -2062024.74923  24660879.658
 -22253166.256 8 -17342866.86327  21484343.708
    712647.103 8    439712.88229  21002518.169
  22237027.396 6   -433391.52725  23526455.134
  13381339.743 6  -6986063.18626  22778048.685
 92  8 28  2 15 30.0010000  0  5G15G11G21G23G28
  -2728330.203 5  -2137508.95324  24642438.075
 -22264944.071 8 -17352044.36927  21482097.423
    751140.846 8    469708.02229  21009845.157
  22322370.089 6   -366890.76425  23542698.699
  13477160.109 6  -6911398.02026  22796281.763
 92  8 28  2 16  0.0010000  0  5G15G11G21G23G28
  -2825090.391 5  -2212906.40024  24624030.758
 -22275995.582 8 -17360655.92227  21479996.898
    789972.908 8    499966.78129  21017234.471
  22407850.383 6   -300282.73825  23558957.553
  13573361.987 6  -6836435.56926  22814586.850
 92  8 28  2 16 30.0010000  0  5G15G11G21G23G28
  -2921732.744 5  -2288212.01724  24605624.910
 -22286314.795 8 -17368696.85227  21478033.797
    829142.064 8    530488.20129  21024683.445
  22493489.821 6   -233550.68825  23575259.727
  13669925.599 6  -6761191.24026  22832964.608
 92  8 28  2 17  0.0010000  0  5G15G11G21G23G28
  -3018256.507 5  -2363425.28824  24587262.562
 -22295901.904 8 -17376167.31927  21476207.851
    868661.579 8    561282.64729  21032210.334
  22579295.803 6   -166688.95325  23591589.782
  13766856.468 6  -6685660.71126  22851411.137
 92  8 28  2 17 30.0010000  0  5G15G11G21G23G28
  -3114666.399 5  -2438549.81424  24568911.696
 -22304762.245 8 -17383071.46627  21474522.777
    908525.888 8    592345.72729  21039795.173
  22665255.639 6    -99707.29525  23607947.628
  13864171.024 7  -6609831.23125  22869928.358
 92  8 28  2 18  0.0010000  0  5G15G11G21G23G28
  -3210967.257 5  -2513589.32724  24550600.373
 -22312901.457 8 -17389413.69827  21472972.880
    948724.218 8    623669.10229  21047444.797
  22751362.550 6    -32610.98825  23624329.637
  13961884.013 6  -6533691.26726  22888521.996
 92  8 28  2 18 30.0010000  0  5G15G11G21G23G28
  -3307157.507 5  -2588542.70024  24532291.688
 -22320318.576 8 -17395193.26627  21471564.515
    989273.851 8    655266.22429  21055160.436
  22837604.106 6     34590.25725  23640746.092
  14060016.988 6  -6457224.01926  22907197.177
 92  8 28  2 19  0.0010000  0  5G15G11G21G23G28
  -3403233.598 5  -2663407.16024  24514005.067
 -22327010.846 8 -17400408.01027  21470289.678
   1030175.693 8    687137.80228  21062941.099
  22923965.383 6    101884.73625  23657178.826
  14158588.617 6  -6380415.03426  22925953.603
 92  8 28  2 19 30.0010000  0  5G15G11G21G23G28
  -3499193.027 5  -2738180.66024  24495751.034
 -22332976.783 8 -17405056.76327  21469155.893
   1071421.319 8    719277.24228  21070794.043
  23010454.063 6    169278.49225  23673638.271
  14257578.576 6  -6303280.04326  22944794.329
 92  8 28  2 20  0.0010000  0  5G15G11G21G23G28
  -3595030.513 6  -2812859.14624  24477503.957
 -22338211.880 8 -17409136.06827  21468156.654
   1113029.173 8    751698.94628  21078709.043
  23097093.298 5    236789.56625  23690123.079
  14356961.348 6  -6225838.92426  22963706.257
 92  8 28  2 20 30.0010000  0  5G15G11G21G23G28
  -3690744.387 5  -2887441.29624  24459301.788
 -22342715.311 8 -17412645.21827  21467297.659
   1155001.493 8    784404.65528  21086698.183
  23183889.997 6    304423.39625  23706637.027
  14456695.049 6  -6148124.38526  22982680.691
 92  8 28  2 21  0.0010000  0  5G15G11G21G23G28
  -3786340.515 5  -2961931.75424  24441105.465
 -22346493.787 8 -17415589.46427  21466581.335
   1197310.059 8    817372.35828  21094748.480
  23270853.465 6    372187.07525  23723186.200
  14556747.323 6  -6070161.62725  23001718.292
 92  8 28  2 21 30.0010000  0  5G15G11G21G23G28
  -3881820.692 6  -3036331.84224  24422941.399
 -22349550.501 8 -17417971.31327  21466000.007
   1239948.376 8    850597.02728  21102861.373
  23357983.328 6    440080.47325  23739768.320
  14657100.871 6  -5991964.08825  23020816.450
 92  8 28  2 22  0.0010000  0  5G15G11G21G23G28
  -3977186.718 6  -3110642.91725  24404788.037
 -22351888.272 8 -17419792.96027  21465552.717
   1282906.276 8    884070.70028  21111037.943
  23445267.992 6    508094.48725  23756380.630
  14757766.630 6  -5913523.27625  23039971.270
 92  8 28  2 22 30.0010000  0  5G15G11G21G23G28
  -4072437.790 6  -3184864.45925  24386668.341
 -22353507.210 8 -17421054.45727  21465245.370
   1326168.870 8    917781.81728  21119269.044
  23532684.291 6    576211.10025  23773014.315
  14858761.135 6  -5834826.32725  23059190.545
 92  8 28  2 23  0.0010000  0  5G15G11G21G23G28
  -4167570.981 6  -3258994.19125  24368565.193
 -22354405.216 8 -17421754.18727  21465073.859
   1369735.259 8    951729.66128  21127559.595
  23620220.845 6    644421.37125  23789672.702
  14960112.616 6  -5755851.19125  23078481.260
 92  8 28  2 23 30.0010000  0  5G15G11G21G23G28
  -4262578.130 5  -3333025.72025  24350485.879
 -22354575.487 8 -17421886.87327  21465042.800
   1413622.482 8    985927.49528  21135909.025
  23707871.023 6    712720.19525  23806352.825
  15061832.425 6  -5676589.04225  23097839.518
 92  8 28  2 24  0.0010000  0  5G15G11G21G23G28
  -4357451.338 6  -3406952.77125  24332432.318
 -22354011.848 8 -17421447.65327  21465149.916
   1457841.040 8   1020383.50528  21144326.717
  23795634.983 6    781107.68125  23823053.004
  15163922.410 6  -5597038.44025  23117261.303
 92  8 28  2 24 30.0010000  0  5G15G11G21G23G28
  -4452187.142 6  -3480772.82425  24314404.778
 -22352711.738 8 -17420434.57327  21465398.474
   1502396.512 8   1055102.05828  21152805.268
  23883507.335 6    849579.67025  23839772.639
  15266379.388 6  -5517201.89225  23136756.777
 92  8 28  2 25  0.0010000  0  5G15G11G21G23G28
  -4546782.858 6  -3554483.76825  24296395.915
 -22350673.389 8 -17418846.26427  21465786.135
   1547296.299 8   1090088.91028  21161348.154
  23971495.812 6    918142.08125  23856513.889
  15369188.005 6  -5437091.28025  23156321.442
 92  8 28  2 25 30.0010000  0  5G15G11G21G23G28
  -4641238.056 6  -3628085.14125  24278428.664
 -22347898.198 8 -17416683.76927  21466314.640
   1592543.157 8   1125346.20428  21169956.934
  24059606.626 6    986799.84725  23873278.673
  15472330.716 6  -5356720.33325  23175949.544
 92  8 28  2 26  0.0010000  0  6G15G11G21G23G12G28
  -4735553.075 6  -3701577.27925  24260481.018
 -22344388.109 8 -17413948.63127  21466981.888
   1638137.543 8   1160874.29128  21178636.255
  24147849.024 6   1055560.12625  23890076.464
  11636910.98515       -29.04031  24234801.576
  15575804.624 6  -5276091.38025  23195641.681
 92  8 28  2 26 30.0010000  0  6G15G11G21G23G12G28
  -4829734.312 6  -3774965.23025  24242553.370
 -22340150.503 8 -17410646.58427  21467786.351
   1684074.304 8   1196669.17728  21187379.672
  24236225.679 6   1124425.07325  23906894.521
  11637262.042 5       245.02121  24234876.194
  15679599.596 6  -5195212.21925  23215391.439
 92  8 28  2 27  0.0010000  0  6G15G11G21G23G12G28
  -4923777.184 6  -3848245.37125  24224650.843
 -22335182.216 8 -17406775.19527  21468733.695
   1730356.121 8   1232732.91428  21196183.887
  24324751.146 5   1193405.92425  23923736.862
  11638301.544 5      1055.10522  24235072.379
  15783703.354 6  -5114092.47425  23235204.962
 92  8 28  2 27 30.0010000  0  6G15G11G21G23G12G28
  -5017682.196 6  -3921418.01725  24206793.586
 -22329485.725 8 -17402336.36727  21469816.305
   1776963.451 8   1269050.32428  21205055.645
  24413425.170 6   1262502.57425  23940610.710
  11640027.447 5      2399.96322  24235397.294
  15888122.262 6  -5032727.10725  23255072.238
 92  8 28  2 28  0.0010000  0  6G15G11G21G23G12G28
  -5111440.718 6  -3994476.51825  24188946.011
 -22323053.644 8 -17397324.34027  21471045.514
   1823899.950 8   1305624.21828  21213984.664
  24502250.464 6   1331717.07325  23957515.077
  11642447.065 5      4285.37122  24235854.597
  15992869.649 6  -4951105.84625  23275007.208
 92  8 28  2 28 30.0010000  0  6G15G11G21G23G12G28
  -5205051.148 6  -4067419.68025  24171138.729
 -22315885.586 8 -17391738.83727  21472407.112
   1871155.150 8   1342446.43828  21222974.960
  24591205.045 5   1401032.36725  23974442.559
  11645561.144 5      6711.93123  24236449.655
  16097946.044 6  -4869228.16025  23294999.258
 92  8 28  2 29  0.0010000  0  7G25G15G11G21G23G12G28
  -3631357.97415  -2837859.19135  25490560.952
  -5298519.054 6  -4140251.79425  24153351.563
 -22307989.142 8 -17385585.77327  21473908.922
   1918705.931 8   1379498.98828  21232022.607
  24680265.115 5   1470429.84525  23991390.336
  11649362.178 6      9673.84424  24237177.101
  16203358.535 6  -4787088.59225  23315066.525
 92  8 28  2 29 30.0020000  0  7G25G15G11G21G23G12G28
  -3724741.984 5  -2910625.80825  25472790.154
  -5391850.985 6  -4212977.88725  24135590.448
 -22299369.570 8 -17378869.20827  21475547.318
   1966556.491 8   1416785.16228  21241130.901
  24769418.682 6   1539900.13225  24008355.861
  11653845.295 5     13167.20024  24238028.932
  16309115.139 6  -4704680.90125  23335187.936
 92  8 28  2 30  0.0020000  0  7G25G15G11G21G23G12G28
  -3818152.130 5  -2983412.73725  25455013.091
  -5485034.668 6  -4285588.49225  24117854.607
 -22290022.622 8 -17371585.85727  21477327.635
   2014716.967 8   1454312.79528  21250293.008
  24858659.632 5   1609438.48525  24025327.682
  11659015.026 5     17195.58123  24239006.885
  16415188.701 6  -4622026.21725  23355370.833
 92  8 28  2 30 30.0020000  0  7G25G15G11G21G23G12G28
  -3911586.819 5  -3056218.88025  25437237.527
  -5578065.848 6  -4358080.22725  24100150.633
 -22279942.244 8 -17363731.02127  21479244.688
   2063183.951 8   1492079.28128  21259519.061
  24947999.468 5   1679053.97225  24042337.246
  11664877.385 6     21763.67824  24240123.851
  16521573.177 6  -4539129.26325  23375614.049
 92  8 28  2 31  0.0020000  0  7G25G15G11G21G23G12G28
  -4005039.925 6  -3129039.30725  25419453.089
  -5670932.678 6  -4430443.97525  24082478.707
 -22269118.795 8 -17355297.15227  21481307.650
   2111975.405 8   1530098.60028  21268802.704
  25037465.613 6   1748767.84725  24059366.297
  11671442.502 5     26879.39024  24241372.187
  16628256.714 6  -4455999.25825  23395923.249
 92  8 28  2 31 30.0020000  0  7G25G15G11G21G23G12G28
  -4098501.202 6  -3201866.09725  25401665.203
  -5763630.762 6  -4502676.13225  24064842.846
 -22257549.423 8 -17346282.04627  21483506.448
   2161105.987 8   1568382.18128  21278153.501
  25127073.525 6   1818592.12625  24076414.355
  11678713.345 6     32545.06824  24242759.927
  16735204.068 6  -4372663.72125  23416269.954
 92  8 28  2 32  0.0020000  0  7G25G15G11G21G23G12G28
  -4191975.083 6  -3274702.73425  25383882.654
  -5856165.720 6  -4574781.26625  24047232.827
 -22245242.165 8 -17336691.98627  21485849.896
   2210565.218 8   1606921.83228  21287567.224
  25216819.207 6   1888523.85525  24093493.891
  11686682.005 6     38754.43224  24244275.467
  16842393.313 6  -4289139.65225  23436665.074
 92  8 28  2 32 30.0020000  0  7G25G15G11G21G23G12G28
  -4285470.650 5  -3347556.28125  25366088.113
  -5948542.692 6  -4646763.25825  24029650.779
 -22232203.508 8 -17326531.99427  21488330.019
   2260350.621 8   1645715.65028  21297039.616
  25306688.427 6   1958551.79825  24110593.813
  11695342.288 6     45502.65624  24245923.456
  16949838.878 6  -4205415.87825  23457112.959
 92  8 28  2 33  0.0020000  0  7G25G15G11G21G23G12G28
  -4378977.804 6  -3420418.82525  25348290.244
  -6040760.444 6  -4718621.23525  24012102.068
 -22218434.363 8 -17315802.77727  21490950.205
   2310466.868 8   1684767.27728  21306578.143
  25396689.127 6   2028682.22425  24127715.020
  11704693.546 6     52789.37824  24247703.294
  17057545.304 6  -4121488.90225  23477608.810
 92  8 28  2 33 30.0020000  0  7G25G15G11G21G23G12G28
  -4472491.226 6  -3493286.30225  25330501.099
  -6132814.266 6  -4790351.41625  23994586.004
 -22203932.115 8 -17304502.31227  21493711.713
   2360905.388 8   1724070.02828  21316175.549
  25486822.142 6   2098915.67925  24144873.762
  11714738.742 6     60616.84024  24249609.735
  17165528.358 6  -4037346.28625  23498155.595
 92  8 28  2 34  0.0020000  0  7G25G15G11G21G23G12G28
  -4566016.475 6  -3566162.99625  25312707.757
  -6224705.572 6  -4861954.97525  23977105.345
 -22188699.887 8 -17292633.05027  21496608.218
   2411649.945 8   1763611.23628  21325830.755
  25577078.970 6   2169245.66525  24162051.900
  11725474.897 5     68982.65324  24251655.488
  17273813.572 6  -3952968.23925  23518767.076
 92  8 28  2 34 30.0020000  0  7G25G15G11G21G23G12G28
  -4659545.348 5  -3639042.54624  25294892.141
  -6316431.008 6  -4933429.31225  23959646.632
 -22172736.399 8 -17280193.98227  21499646.434
   2462690.706 8   1803383.25128  21335539.563
  25667467.084 5   2239677.92925  24179247.875
  11736903.352 6     77887.92324  24253835.309
  17382401.398 6  -3868354.35425  23539424.036
 92  8 28  2 35  0.0020000  0  7G25G15G11G21G23G12G28
  -4753077.106 6  -3711924.28124  25277100.477
  -6407983.238 6  -5004768.59825  23942225.302
 -22156036.758 8 -17267181.26827  21502821.147
   2514028.398 8   1843386.65328  21345310.459
  25758001.876 6   2310224.51225  24196477.697
  11749029.642 5     87337.08024  24256142.872
  17491271.263 6  -3783520.77725  23560142.663
 92  8 28  2 35 30.0020000  0  7G25G15G11G21G23G12G28
  -4846608.383 6  -3784805.64324  25259300.930
  -6499357.717 6  -5075969.43425  23924834.462
 -22138598.593 8 -17253593.08327  21506145.515
   2565677.395 8   1883632.63528  21355138.285
  25848670.341 6   2380875.20325  24213729.404
  11761856.103 5     97331.74925  24258583.092
  17600417.367 6  -3698471.93025  23580908.417
 92  8 28  2 36  0.0020000  0  7G25G15G11G21G23G12G28
  -4940123.012 5  -3857674.04425  25241507.048
  -6590556.152 6  -5147033.07925  23907484.963
 -22120425.588 8 -17239432.31227  21509603.172
   2617638.028 8   1924121.42428  21365025.920
  25939455.687 6   2451617.03125  24231003.685
  11775379.181 5    107869.25725  24261153.453
  17709821.276 6  -3613222.13025  23601730.742
 92  8 28  2 36 30.0020000  0  7G25G15G11G21G23G12G28
  -5033621.446 5  -3930529.81125  25223709.599
  -6681574.862 6  -5217956.70425  23890161.156
 -22101516.522 8 -17224697.97527  21513199.392
   2669924.367 8   1964864.01528  21374978.280
  26030349.863 5   2522443.71525  24248298.322
  11789600.665 5    118950.95425  24263855.692
  17819459.233 6  -3527790.04925  23622597.736
 92  8 28  2 37  0.0020000  0  7G25G15G11G21G23G12G28
  -5127102.974 5  -4003372.42625  25205931.337
  -6772409.116 6  -5288736.57425  23872877.041
 -22081869.073 8 -17209388.26927  21516937.294
   2722550.066 8   2005871.05728  21384991.019
  26121345.265 5   2593349.20925  24265613.735
  11804522.785 5    130578.57725  24266697.275
  17929327.335 6  -3442178.58725  23643507.091
 92  8 28  2 37 30.0020000  0  7G25G15G11G21G23G12G28
  -5220547.508 6  -4076186.13325  25188148.278
  -6863053.845 6  -5359368.77025  23855631.540
 -22061480.562 8 -17193501.12927  21520819.187
   2775519.522 8   2047145.94927  21395069.622
  26212433.595 5   2664327.09625  24282957.239
  11820148.782 6    142754.71225  24269674.394
  18039432.432 6  -3356382.43525  23664447.534
 92  8 28  2 38  0.0020000  0  7G25G15G11G21G23G12G28
  -5313964.219 6  -4148978.33425  25170365.968
  -6953504.162 6  -5429849.45425  23838416.887
 -22040348.089 8 -17177034.27727  21524836.616
   2828817.742 8   2088677.02927  21405213.279
  26303613.972 5   2735376.69125  24300298.673
  11836481.487 6    155481.54925  24272781.263
  18149774.824 6  -3270401.39925  23685449.165
 92  8 28  2 38 30.0020000  0  7G25G15G11G21G23G12G28
  -5407367.387 6  -4221759.94324  25152595.830
  -7043758.698 6  -5500177.61025  23821241.418
 -22018472.523 8 -17159988.38327  21528999.024
   2882448.373 8   2130467.12427  21415418.484
  26394898.233 5   2806507.30225  24317672.725
  11853520.457 6    168758.62324  24276025.167
  18260354.682 6  -3184235.32125  23706497.413
 92  8 28  2 39  0.0020000  0  7G25G15G11G21G23G12G28
  -5500761.476 6  -4294534.43724  25134820.566
  -7133825.606 7  -5570359.58425  23804104.112
 -21995864.905 8 -17142372.05927  21533304.703
   2936384.130 8   2172494.98527  21425681.759
  26486288.422 5   2877720.48325  24335056.671
  11871255.033 5    182577.78824  24279389.289
  18371168.738 6  -3097886.75425  23727582.896
 92  8 28  2 39 30.0020000  0  7G25G15G11G21G23G12G28
  -5594126.698 6  -4367286.46324  25117059.542
  -7223691.667 6  -5640385.03925  23787003.470
 -21972514.615 8 -17124177.02827  21537745.499
   2990622.293 8   2214758.49727  21436002.085
  26577794.259 5   2949023.78625  24352479.589
  11889695.984 5    196947.37324  24282909.332
  18482238.511 6  -3011338.92125  23748715.207
 92  8 28  2 40  0.0020000  0  7G25G15G11G21G23G12G28
  -5687460.729 6  -4440014.12925  25099291.382
  -7313356.519 6  -5710253.71225  23769935.416
 -21948423.424 8 -17105404.66527  21542332.084
   3045165.630 8   2257259.80227  21446383.688
  26669429.797 5   3020428.10525  24369909.223
  11908841.700 6    211866.12724  24286547.733
  18593567.197 6  -2924589.35225  23769905.527
 92  8 28  2 40 30.0020000  0  7G25G15G11G21G23G12G28
  -5780758.632 6  -4512713.69225  25081535.244
  -7402827.064 6  -5779970.95525  23752914.969
 -21923601.380 8 -17086062.82627  21547054.445
   3100016.315 8   2300000.58727  21456821.532
  26761202.687 5   3091939.40025  24387377.920
  11928682.555 5    227326.48524  24290324.818
  18705143.278 6  -2837646.99325  23791126.336
 92  8 28  2 41  0.0020000  0  7G25G15G11G21G23G12G28
  -5874009.134 6  -4585376.26825  25063793.527
  -7492098.188 6  -5849532.79425  23735928.129
 -21898045.600 8 -17066149.23427  21551919.836
   3155177.459 8   2342983.29027  21467317.206
  26853106.791 5   3163553.02725  24404861.876
  11949221.514 5    243330.93924  24294231.444
  18816967.938 6  -2750510.94825  23812415.588
 92  8 28  2 41 30.0020000  0  7G25G15G11G21G23G12G28
  -5967204.400 6  -4657995.85625  25046058.524
  -7581169.743 6  -5918939.15325  23718975.915
 -21871758.884 8 -17045666.07627  21556920.135
   3210656.868 8   2386214.00827  21477878.864
  26945130.519 5   3235259.81925  24422376.620
  11970456.182 6    259877.52424  24298274.415
  18929028.394 6  -2663191.16925  23833733.050
 92  8 28  2 42  0.0020000  0  7G25G15G11G21G23G12G28
  -6060364.838 6  -4730588.28425  25028335.454
  -7670044.616 6  -5988192.23625  23702064.322
 -21844746.650 8 -17024617.59427  21562058.547
   3266459.016 8   2429696.21127  21488494.695
  27037270.942 5   3307057.60125  24439908.933
  11992381.311 5    276962.07424  24302450.823
  19041304.859 6  -2575703.06225  23855099.678
 92  8 28  2 42 30.0020000  0  7G25G15G11G21G23G12G28
  -6153494.405 5  -4803156.73925  25010605.218
  -7758719.848 6  -6057289.79125  23685187.956
 -21817008.758 8 -17003003.65027  21567339.512
   3322564.114 8   2473414.45127  21499172.792
  27129514.918 5   3378936.04925  24457464.120
  12014997.477 6    294584.96524  24306755.423
  19153788.109 5  -2488053.80425  23876509.267
 92  8 28  2 43  0.0020000  0  7G25G15G11G21G23G12G28
  -6246563.599 6  -4875678.04125  24992898.546
  -7847169.668 6  -6126211.67625  23668358.506
 -21788521.983 8 -16980806.17927  21572757.751
   3378984.228 8   2517378.17727  21509908.360
  27221869.650 5   3450900.73225  24475047.097
  12038327.939 5    312764.55724  24311196.969
  19266497.251 5  -2400228.59925  23897958.847
 92  8 28  2 43 30.0020000  0  7G25G15G11G21G23G12G28
  -6339556.833 6  -4948140.15225  24975205.035
  -7935377.511 6  -6194945.01025  23651571.987
 -21759272.985 8 -16958014.76227  21578322.828
   3435723.121 8   2561590.31127  21520704.576
  27314348.905 5   3522962.51825  24492642.157
  12062386.512 5    331511.61624  24315772.581
  19379445.870 6  -2312216.73625  23919447.581
 92  8 28  2 44  0.0020000  0  6G25G15G11G21G12G28
  -6432474.558 5  -5020543.45525  24957529.002
  -8023338.424 7  -6263485.96325  23634834.245
 -21729259.796 8 -16934627.84927  21584036.542
   3492774.926 8   2606046.28227  21531562.969
  12087175.344 5    350827.60724  24320470.748
  19492632.159 6  -2224019.64325  23940988.299
 92  8 28  2 44 30.0020000  0  6G25G15G11G21G12G28
  -6525302.764 6  -5092877.03325  24939859.624
  -8111054.051 6  -6331835.72525  23618137.694
 -21698486.907 8 -16910648.97227  21589891.189
   3550130.698 8   2650739.08927  21542475.205
  12112690.238 5    370709.30124  24325336.440
  19606047.677 6  -2135643.96425  23962571.197
 92  8 28  2 45  0.0020000  0  6G25G15G11G21G12G28
  -6618031.887 5  -5165133.40225  24922202.478
  -8198519.221 6  -6399990.37225  23601490.818
 -21666951.843 8 -16886076.22027  21595892.075
   3607815.001 8   2695687.88627  21553452.285
  12138933.768 5    391158.80424  24330330.772
  19719694.597 6  -2047087.98825  23984200.384
 92  8 28  2 45 30.0020000  0  6G25G15G11G21G12G28
  -6710654.236 6  -5237306.54225  24904579.778
  -8285720.590 6  -6467939.43625  23584900.123
 -21634644.474 8 -16860901.65227  21602044.955
   3665850.660 8   2740910.47927  21564496.100
  12165916.657 5    412184.42724  24335471.134
  19833580.679 6  -1958345.61225  24005876.398
 92  8 28  2 46  0.0020000  0  6G25G15G11G21G12G28
  -6803169.473 6  -5309396.22025  24886979.563
  -8372660.459 6  -6535684.73625  23568357.126
 -21601570.078 8 -16835129.39327  21608334.271
   3724246.544 8   2786413.75827  21575610.186
  12193633.770 5    433782.18624  24340743.164
  19947697.337 5  -1869423.56825  24027583.020
 92  8 28  2 46 30.0020000  0  6G25G15G11G21G12G28
  -6895578.251 6  -5381402.93325  24869391.968
  -8459341.546 6  -6603228.38825  23551865.962
 -21567734.312 8 -16808763.88927  21614772.884
   3783006.475 8   2832200.74627  21586789.327
  12222079.709 5    455947.83824  24346156.367
  20062043.054 6  -1780323.10325  24049347.353
 92  8 28  2 47  0.0020000  0  7G25G15G11G21G23G12G28
  -6987887.807 6  -5453332.35625  24851831.145
  -8545768.579 6  -6670574.05625  23535415.421
 -21533144.966 8 -16781811.15426  21621357.646
   3842124.848 8   2878267.00227  21598040.238
     17154.81515     35207.30831  24616551.116
  12251247.045 5    478675.65225  24351708.523
  20176611.305 6  -1691049.19725  24071151.768
 92  8 28  2 47 30.0020000  0  7G25G15G11G21G23G12G28
  -7080107.959 6  -5525192.10125  24834284.832
  -8631943.631 6  -6737723.41325  23519016.594
 -21497807.539 8 -16754275.49527  21628079.652
   3901588.999 8   2924602.70127  21609355.155
    110741.957 5    108126.66021  24634356.330
  12281130.515 5    501961.49624  24357393.128
  20291386.813 6  -1601613.77125  24092991.349
 92  8 28  2 48  0.0020000  0  7G25G15G11G21G23G12G28
  -7172232.091 6  -5596977.04425  24816752.370
  -8717864.900 6  -6804674.99825  23502668.191
 -21461723.381 8 -16726157.97227  21634949.576
   3961381.626 8   2971194.35027  21620735.996
    204458.277 5    181126.79421  24652184.987
  12311728.798 5    525804.37224  24363214.408
  20406364.727 6  -1512020.66125  24114874.640
 92  8 28  2 48 30.0020000  0  7G25G15G11G21G23G12G28
  -7264270.062 6  -5668694.88825  24799233.248
  -8803534.617 6  -6871430.56225  23486362.210
 -21424898.031 8 -16697462.92226  21641956.205
   4021486.155 8   3018029.06227  21632169.121
    298298.541 5    254247.01421  24670047.402
  12343037.244 5    550200.47123  24369178.179
  20521532.192 6  -1422279.85625  24136782.573
 92  8 28  2 49  0.0020000  0  7G25G15G11G21G23G12G28
  -7356222.510 6  -5740346.06525  24781735.891
  -8888947.988 6  -6937986.38925  23470108.722
 -21387329.719 8 -16668188.90726  21649106.735
   4081899.150 8   3065104.13827  21643668.080
    392266.472 5    327468.91922  24687933.110
  12375057.349 5    575151.27724  24375274.339
  20636888.028 6  -1332392.21325  24158733.976
 92  8 28  2 49 30.0020000  0  7G25G15G11G21G23G12G28
  -7448086.243 6  -5811928.08525  24764252.745
  -8974097.157 7  -7004336.37625  23453908.627
 -21349013.780 8 -16638332.32627  21656395.709
   4142617.854 8   3112417.41127  21655222.621
    486363.175 5    400791.08122  24705831.139
  12407794.431 5    600660.70924  24381496.801
  20752428.281 6  -1242360.90325  24180731.098
 92  8 28  2 50  0.0020000  0  6G25G15G11G21G12G28
  -7539846.924 6  -5883429.82325  24746792.352
  -9058974.006 7  -7070474.10525  23437758.927
 -21309945.832 8 -16607889.79326  21663830.682
   4203644.138 8   3159970.33527  21666835.202
  12441253.109 5    626732.41024  24387859.176
  20868168.951 6  -1152173.43725  24202754.991
 92  8 28  2 50 30.0020000  0  6G25G15G11G21G12G28
  -7631512.502 6  -5954857.44025  24729343.142
  -9143580.832 7  -7136401.46925  23421655.245
 -21270131.378 8 -16576865.55526  21671405.898
   4264984.732 8   3207768.21827  21678508.821
  12475428.023 5    653362.15023  24394365.302
  20984098.499 6  -1061838.77125  24224811.892
 92  8 28  2 51  0.0020000  0  6G25G15G11G21G12G28
  -7723081.485 6  -6026209.78925  24711927.958
  -9227919.000 7  -7202119.47925  23405605.946
 -21229575.516 8 -16545263.58126  21679125.644
   4326648.594 8   3255817.98827  21690240.479
  12510314.664 5    680546.59324  24401006.455
  21100211.698 6   -971361.02125  24246905.397
 92  8 28  2 51 30.0020000  0  6G25G15G11G21G12G28
  -7814539.656 6  -6097475.80925  24694517.991
  -9311989.062 6  -7267628.58325  23389602.995
 -21188282.150 8 -16513086.93226  21686980.806
   4388638.835 8   3304122.08127  21702037.732
  12545909.246 5    708282.71624  24407781.225
  21216510.499 5   -880738.67225  24269034.757
 92  8 28  2 52  0.0020000  0  6G25G15G11G21G12G28
  -7905887.513 6  -6168655.85925  24677131.228
  -9395796.550 7  -7332933.05825  23373664.139
 -21146260.184 8 -16480342.57226  21694982.206
   4450953.626 8   3352679.05227  21713895.363
  12582203.125 5    736563.73623  24414684.336
  21332996.277 5   -789970.56525  24291189.569
 92  8 28  2 52 30.0020000  0  6G25G15G11G21G12G28
  -7997125.412 6  -6239750.25425  24659776.332
  -9479342.003 7  -7398033.38825  23357764.826
 -21103513.874 8 -16447033.76526  21703114.227
   4513589.380 8   3401486.15527  21725815.711
  12619192.505 5    765386.48423  24421721.904
  21449650.758 5   -699071.01725  24313402.122
 92  8 28  2 53  0.0020000  0  6G25G15G11G21G12G28
  -8088238.371 6  -6310747.24825  24642434.687
  -9562616.956 7  -7462922.92825  23341915.818
 -21060038.366 8 -16413156.74926  21711385.111
   4576542.374 8   3450540.42627  21737796.377
  12656882.425 5    794755.34623  24428897.736
  21566482.851 5   -608033.10225  24335632.422
 92  8 28  2 53 30.0020000  0  6G25G15G11G21G12G28
  -8179203.638 6  -6381629.19825  24625128.119
  -9645613.996 7  -7527595.90725  23326124.340
 -21015829.317 7 -16378708.15226  21719796.238
   4639796.378 8   3499829.24727  21749831.845
  12695277.582 5    824673.59223  24436201.310
  21683492.253 5   -516857.01925  24357887.545
 92  8 28  2 54  0.0020000  0  6G25G15G11G21G12G28
  -8270027.683 6  -6452401.11625  24607847.272
  -9728331.580 6  -7592051.13025  23310382.088
 -20970889.491 8 -16343690.12626  21728354.533
   4703349.173 8   3549350.88027  21761922.984
  12734375.600 5    855139.55123  24443638.561
  21800654.597 5   -425561.75325  24380203.946
 92  8 28  2 54 30.0020000  0  6G25G15G11G21G12G28
  -8360706.332 6  -6523059.67925  24590590.409
  -9810769.554 6  -7656288.45325  23294692.390
 -20925222.317 8 -16308105.31026  21737041.499
   4767201.177 8   3599105.70027  21774076.870
  12774173.107 5    886150.52722  24451220.043
  21917952.815 5   -334160.61325  24402508.295
 92  8 28  2 55  0.0020000  0  6G25G15G11G21G12G28
  -8451229.746 6  -6593597.29325  24573363.854
  -9892923.151 7  -7720304.24525  23279057.374
 -20878826.835 7 -16271952.97226  21745865.830
   4831354.515 8   3649095.31327  21786283.850
  12814671.702 5    917707.96823  24458925.398
  22035395.054 5   -242647.22425  24424859.202
 92  8 28  2 55 30.0020000  0  6G25G15G11G21G12G28
  -8541602.479 6  -6664017.49725  24556172.016
  -9974794.415 7  -7784099.97925  23263480.128
 -20831708.870 8 -16235237.69626  21754837.000
   4895820.947 8   3699328.90827  21798553.036
  12855865.832 5    949807.33823  24466760.414
  22152976.740 5   -151025.18825  24447235.411
 92  8 28  2 56  0.0020000  0  6G25G15G11G21G12G28
  -8631855.786 6  -6734344.65925  24538994.568
 -10056393.073 7  -7847683.31925  23247955.225
 -20783881.896 8 -16197969.93126  21763935.401
   4960602.764 8   3749808.25427  21810882.150
  12897742.303 5    982438.31623  24474733.065
  22270682.661 6    -59306.35225  24469638.302
 92  8 28  2 56 30.0020000  0  6G25G15G11G21G12G28
  -8721995.903 6  -6804583.65025  24521838.105
 -10137713.916 7  -7911050.17525  23232480.598
 -20735344.492 8 -16160148.58726  21773172.217
   5025692.520 8   3800527.52527  21823263.819
  12940302.774 5   1015602.27723  24482832.408
  22388520.393 6     32515.20725  24492066.255
 92  8 28  2 57  0.0020000  0  6G25G15G11G21G12G28
  -8812027.761 6  -6874738.22325  24504701.098
 -10218752.381 7  -7974196.97026  23217060.563
 -20686096.111 8 -16121773.22226  21782545.228
   5091095.410 8   3851490.83627  21835709.973
  12983548.226 5   1049300.10224  24491054.486
  22506495.227 6    124443.60325  24514514.385
 92  8 28  2 57 30.0020000  0  6G25G15G11G21G12G28
  -8901958.693 6  -6944814.15625  24487593.772
 -10299504.021 7  -8037120.31326  23201692.662
 -20636135.764 8 -16082843.11426  21792054.225
   5156816.679 8   3902702.20027  21848219.322
  13027479.754 5   1083532.51924  24499418.755
  22624595.852 5    216469.96025  24536980.352
 92  8 28  2 58  0.0020000  0  6G25G15G11G21G12G28
  -8991780.645 6  -7014805.20125  24470494.419
 -10379966.442 7  -8099818.28426  23186377.345
 -20585465.601 8 -16043359.87926  21801695.131
   5222837.152 8   3954146.73127  21860782.275
  13072096.021 5   1118298.53323  24507906.719
  22742814.997 6    308588.73525  24559487.511
 92  8 28  2 58 30.0020000  0  6G25G15G11G21G12G28
  -9081475.559 6  -7084697.29025  24453426.905
 -10460139.991 7  -8162291.14226  23171122.706
 -20534089.752 8 -16003326.75326  21811471.602
   5289151.408 8   4005820.16127  21873399.671
  13117393.019 5   1153594.83622  24516530.879
  22861150.007 5    400797.79425  24581997.967
 92  8 28  2 59  0.0020000  0  6G25G15G11G21G12G28
  -9171025.089 6  -7154476.08825  24436388.590
 -10540028.747 7  -8224542.06626  23155921.879
 -20482015.845 7 -15962749.68926  21821379.144
   5355754.646 8   4057718.81727  21886074.386
  13163363.359 5   1189415.83822  24525268.750
  22979591.216 5    493089.54925  24604536.754
 92  8 28  2 59 30.0020000  0  6G25G15G11G21G12G28
  -9260426.379 6  -7224139.36025  24419379.625
 -10619638.675 7  -8286575.75626  23140770.398
 -20429254.660 8 -15921637.09126  21831420.662
   5422623.361 8   4109824.30927  21898797.278
  13209996.785 5   1225753.61623  24534149.172
  23098126.451 5    585454.59625  24627099.374
 92  8 28  3  0  0.0020000  0  6G25G15G11G21G12G28
  -9349674.600 6  -7293683.30825  24402393.684
 -10698973.364 7  -8348394.96226  23125675.788
 -20375813.981 8 -15879995.02126  21841590.731
   5489755.492 8   4162135.05827  21911572.364
  13257285.615 5   1262602.06922  24543145.734
  23216753.097 5    677890.90425  24649671.527
